Darstellungsparameter: Aktuell verwendete Einstellungen:
Skalierung der Graphiken ... ?
xyx+y,   Skalierungsfaktor:      Skalierung: Modus: x, Faktor: 1
Darstellungszeitraum ... ?
Vom - - bis: - -   Zeitraum: 24.11.2009 - 23.12.2009
Min/Max/Avg-Anzeige ... ?
Zeige MMA aktuell
Zeige MMA Monat
Zeige MMA alles
Zeige --A aktuell
Zeige --A Monat
Zeige --A alles
Keine MMA-Anzeige
MMA:
Average (ber die Originaldaten)
MMA-Basis: 24.11.2009 - 23.12.2009
Quicknavigation für Darstellung... ?
Tage:      1T, 2T, 3T, 5T -1T -2T -3T -5T +1T +2T +3T +5T
Wochen: 1W, 2W, 3W -1W -2W -3W +1W +2W +3W
Monate: 1M, 3M, 6M -1M -3M -6M +1M +3M +6M
Jahre:    1J, 3J, 5J, 10J -1J -3J -5J -10J +1J +3J +5J +10J
Nutze für die Darstellung ... ?
Originaldaten oder Mittelwerte auf ...
Stundenbasis Tagesbasis Wochenbasis
Monatsbasis Jahresbasis      Datenbasis: Original-Daten
Darstellen als:
Statistik (Auto) Statistik J:M      Darstellung:
Zur Graphik,    zurück zur Übersicht aller Sensoren.
 
Tabellarische Datenbersicht: ?
 
Sensor: Nr:Datum:Temp:Abs-Feuchte:Windchill:Wind:
Aussen-T/F 1 24-11-2009 00:06:04 11.1 C 6.45 g/m*3 11.1 C 0 km/h
2 24-11-2009 00:18:04 10.8 C 6.52 g/m*3 10.8 C 0 km/h
3 24-11-2009 00:30:04 11 C 6.31 g/m*3 11 C 0 km/h
4 24-11-2009 00:42:04 11.3 C 6.12 g/m*3 11.3 C 0 km/h
5 24-11-2009 00:54:04 11.5 C 6.2 g/m*3 11.5 C 0 km/h
6 24-11-2009 01:06:04 11.2 C 6.28 g/m*3 11.2 C 0 km/h
7 24-11-2009 01:18:04 11.1 C 6.25 g/m*3 11.1 C 0 km/h
8 24-11-2009 01:30:05 11 C 6.41 g/m*3 11 C 0 km/h
9 24-11-2009 01:42:05 11.1 C 6.55 g/m*3 11.1 C 0 km/h
10 24-11-2009 01:54:05 11.1 C 6.45 g/m*3 11.1 C 0 km/h
11 24-11-2009 02:06:05 11.2 C 6.28 g/m*3 11.2 C 0 km/h
12 24-11-2009 02:18:05 11.2 C 6.28 g/m*3 11.2 C 0 km/h
13 24-11-2009 02:30:05 11 C 6.21 g/m*3 11 C 0 km/h
14 24-11-2009 02:42:05 11 C 6.11 g/m*3 11 C 0 km/h
15 24-11-2009 02:54:05 11 C 6.11 g/m*3 11 C 0 km/h
16 24-11-2009 03:06:05 10.9 C 6.17 g/m*3 10.9 C 0 km/h
17 24-11-2009 03:18:05 10.8 C 6.23 g/m*3 10.8 C 0 km/h
18 24-11-2009 03:30:05 10.7 C 6.29 g/m*3 10.7 C 0 km/h
19 24-11-2009 03:42:05 10.7 C 6.19 g/m*3 10.7 C 0 km/h
20 24-11-2009 03:54:05 10.7 C 6.19 g/m*3 10.7 C 0 km/h
21 24-11-2009 04:06:05 10.7 C 6.29 g/m*3 10.7 C 0 km/h
22 24-11-2009 04:18:05 10.6 C 6.25 g/m*3 10.6 C 0 km/h
23 24-11-2009 04:30:05 10.5 C 6.3 g/m*3 10.5 C 0 km/h
24 24-11-2009 04:42:05 10.5 C 6.3 g/m*3 10.5 C 0 km/h
25 24-11-2009 04:54:05 10.4 C 6.36 g/m*3 10.4 C 0 km/h
Sensor: Nr:Datum:Temp:Abs-Feuchte:Windchill:Wind:
Aussen-T/F 26 24-11-2009 05:06:05 10.5 C 6.4 g/m*3 10.5 C 0 km/h
27 24-11-2009 05:18:05 10.5 C 6.4 g/m*3 10.5 C 0 km/h
28 24-11-2009 05:30:06 10.6 C 6.34 g/m*3 10.6 C 0 km/h
29 24-11-2009 05:42:06 10.6 C 6.44 g/m*3 10.6 C 0 km/h
30 24-11-2009 05:54:06 10.4 C 6.46 g/m*3 10.4 C 0 km/h
31 24-11-2009 06:06:06 10.5 C 6.5 g/m*3 10.5 C 0 km/h
32 24-11-2009 06:18:06 10.4 C 6.55 g/m*3 10.4 C 0 km/h
33 24-11-2009 06:30:06 10.4 C 6.55 g/m*3 10.4 C 0 km/h
34 24-11-2009 06:42:06 10.4 C 6.55 g/m*3 10.4 C 0 km/h
35 24-11-2009 06:54:02 10.3 C 6.51 g/m*3 10.3 C 0 km/h
36 24-11-2009 07:06:02 10.5 C 6.5 g/m*3 10.5 C 0 km/h
37 24-11-2009 07:18:02 10.5 C 6.4 g/m*3 10.5 C 0 km/h
38 24-11-2009 07:30:02 10.3 C 6.32 g/m*3 10.3 C 0 km/h
39 24-11-2009 07:42:02 9.9 C 6.35 g/m*3 9.9 C 0 km/h
40 24-11-2009 07:54:02 9.8 C 6.31 g/m*3 9.8 C 0 km/h
41 24-11-2009 08:06:01 9.7 C 6.36 g/m*3 9.7 C 0 km/h
42 24-11-2009 08:18:02 9.5 C 6.28 g/m*3 9.5 C 0 km/h
43 24-11-2009 08:30:02 9.5 C 6.37 g/m*3 9.5 C 0 km/h
44 24-11-2009 08:42:02 9.4 C 6.33 g/m*3 9.4 C 0 km/h
45 24-11-2009 08:54:02 9.4 C 6.42 g/m*3 9.4 C 0 km/h
46 24-11-2009 09:06:03 9.8 C 6.49 g/m*3 9.8 C 0 km/h
47 24-11-2009 09:18:02 10 C 6.39 g/m*3 10 C 0 km/h
48 24-11-2009 09:30:02 10 C 6.48 g/m*3 10 C 0 km/h
49 24-11-2009 09:42:02 10.1 C 6.62 g/m*3 10.1 C 0 km/h
50 24-11-2009 09:54:01 10.2 C 6.66 g/m*3 10.2 C 0 km/h
Sensor: Nr:Datum:Temp:Abs-Feuchte:Windchill:Wind:
Aussen-T/F 51 24-11-2009 10:06:01 10.4 C 6.84 g/m*3 10.4 C 0 km/h
52 24-11-2009 10:18:01 10.5 C 6.98 g/m*3 10.5 C 0 km/h
53 24-11-2009 10:30:01 10.3 C 6.99 g/m*3 10.3 C 0 km/h
54 24-11-2009 10:42:02 10.3 C 7.37 g/m*3 10.3 C 0 km/h
55 24-11-2009 10:54:02 10.6 C 7.61 g/m*3 10.6 C 0 km/h
56 24-11-2009 11:06:02 11 C 7.71 g/m*3 11 C 0 km/h
57 24-11-2009 11:18:02 11.1 C 7.76 g/m*3 11.1 C 0 km/h
58 24-11-2009 11:30:02 11.4 C 7.9 g/m*3 11.4 C 0 km/h
59 24-11-2009 11:42:02 11.5 C 8.06 g/m*3 11.5 C 0 km/h
60 24-11-2009 11:54:01 11.4 C 8.21 g/m*3 11.4 C 0 km/h
61 24-11-2009 12:06:02 11.5 C 8.37 g/m*3 11.5 C 0 km/h
62 24-11-2009 12:18:01 11.7 C 8.58 g/m*3 11.7 C 0 km/h
63 24-11-2009 12:30:01 11.9 C 8.79 g/m*3 11.9 C 0 km/h
64 24-11-2009 12:42:02 12.2 C 8.96 g/m*3 12.2 C 0 km/h
65 24-11-2009 12:54:02 12.3 C 9.01 g/m*3 12.3 C 0 km/h
66 24-11-2009 13:06:02 12.5 C 9.24 g/m*3 12.5 C 0 km/h
67 24-11-2009 13:18:01 12.8 C 9.3 g/m*3 12.8 C 0 km/h
68 24-11-2009 13:30:01 13.3 C 9.24 g/m*3 13.3 C 0 km/h
69 24-11-2009 13:42:02 13.3 C 9.24 g/m*3 13.3 C 0 km/h
70 24-11-2009 13:54:02 13.7 C 9.35 g/m*3 13.7 C 0 km/h
71 24-11-2009 14:06:02 13.9 C 9.23 g/m*3 13.9 C 0 km/h
72 24-11-2009 14:18:01 14.1 C 8.86 g/m*3 14.1 C 0 km/h
73 24-11-2009 14:30:01 14.2 C 8.43 g/m*3 14.2 C 0 km/h
74 24-11-2009 14:42:02 14.4 C 8.03 g/m*3 14.4 C 0 km/h
75 24-11-2009 14:54:02 14.4 C 7.91 g/m*3 14.4 C 0 km/h
Sensor: Nr:Datum:Temp:Abs-Feuchte:Windchill:Wind:
Aussen-T/F 76 24-11-2009 15:06:02 14.2 C 8.06 g/m*3 14.2 C 0 km/h
77 24-11-2009 15:18:02 13.9 C 8.39 g/m*3 13.9 C 0 km/h
78 24-11-2009 15:30:02 13.7 C 8.41 g/m*3 13.7 C 0 km/h
79 24-11-2009 15:42:02 13.6 C 8.47 g/m*3 13.6 C 0 km/h
80 24-11-2009 15:54:02 13.5 C 8.54 g/m*3 13.5 C 0 km/h
81 24-11-2009 16:06:02 13.5 C 8.42 g/m*3 13.5 C 0 km/h
82 24-11-2009 16:18:02 13.4 C 8.25 g/m*3 13.4 C 0 km/h
83 24-11-2009 16:30:02 13.3 C 8.2 g/m*3 13.3 C 0 km/h
84 24-11-2009 16:42:02 13.3 C 8.2 g/m*3 13.3 C 0 km/h
85 24-11-2009 16:54:01 13.2 C 8.15 g/m*3 13.2 C 0 km/h
86 24-11-2009 17:06:02 13.4 C 8.25 g/m*3 13.4 C 0 km/h
87 24-11-2009 17:18:02 13.2 C 8.15 g/m*3 13.2 C 0 km/h
88 24-11-2009 17:30:02 13.3 C 8.2 g/m*3 13.3 C 0 km/h
89 24-11-2009 17:42:02 13.2 C 8.15 g/m*3 13.2 C 0 km/h
90 24-11-2009 17:54:02 13.2 C 8.27 g/m*3 13.2 C 0 km/h
91 24-11-2009 18:06:02 13.1 C 8.22 g/m*3 13.1 C 0 km/h
92 24-11-2009 18:18:02 13.1 C 8.33 g/m*3 13.1 C 0 km/h
93 24-11-2009 18:30:03 13.1 C 8.33 g/m*3 13.1 C 0 km/h
94 24-11-2009 18:42:01 13 C 8.28 g/m*3 13 C 0 km/h
95 24-11-2009 18:54:02 13 C 8.28 g/m*3 13 C 0 km/h
96 24-11-2009 19:06:01 13.1 C 8.22 g/m*3 13.1 C 0 km/h
97 24-11-2009 19:18:02 13.1 C 8.1 g/m*3 13.1 C 0 km/h
98 24-11-2009 19:30:02 13 C 8.05 g/m*3 13 C 0 km/h
99 24-11-2009 19:42:02 13 C 8.05 g/m*3 13 C 0 km/h
100 24-11-2009 19:54:02 13 C 7.94 g/m*3 13 C 0 km/h
Sensor: Nr:Datum:Temp:Abs-Feuchte:Windchill:Wind:
Aussen-T/F 101 24-11-2009 20:06:02 13 C 7.94 g/m*3 13 C 0 km/h
102 24-11-2009 20:18:02 13.1 C 7.87 g/m*3 13.1 C 0 km/h
103 24-11-2009 20:30:02 13.1 C 7.87 g/m*3 13.1 C 0 km/h
104 24-11-2009 20:42:02 13.1 C 7.76 g/m*3 13.1 C 0 km/h
105 24-11-2009 20:54:02 13.2 C 7.81 g/m*3 13.2 C 0 km/h
106 24-11-2009 21:06:01 13.3 C 7.74 g/m*3 13.3 C 0 km/h
107 24-11-2009 21:18:02 13.4 C 7.67 g/m*3 13.4 C 0 km/h
108 24-11-2009 21:30:02 13.3 C 7.63 g/m*3 13.3 C 0 km/h
109 24-11-2009 21:42:01 13.3 C 7.63 g/m*3 13.3 C 0 km/h
110 24-11-2009 21:54:02 13.1 C 7.53 g/m*3 13.1 C 0 km/h
111 24-11-2009 22:06:01 13.3 C 7.51 g/m*3 13.3 C 0 km/h
112 24-11-2009 22:18:02 13.3 C 7.39 g/m*3 13.3 C 0 km/h
113 24-11-2009 22:30:02 13.4 C 7.32 g/m*3 13.4 C 0 km/h
114 24-11-2009 22:42:01 13.3 C 7.28 g/m*3 13.3 C 0 km/h
115 24-11-2009 22:55:03 13.3 C 7.28 g/m*3 13.3 C 0 km/h
116 24-11-2009 23:07:03 13.2 C 7.12 g/m*3 13.2 C 0 km/h
117 24-11-2009 23:19:03 13.2 C 7 g/m*3 13.2 C 0 km/h
118 24-11-2009 23:31:03 13.2 C 6.89 g/m*3 13.2 C 0 km/h
119 24-11-2009 23:43:03 13.2 C 6.77 g/m*3 13.2 C 0 km/h
120 24-11-2009 23:55:03 13.1 C 6.62 g/m*3 13.1 C 0 km/h
121 25-11-2009 00:07:03 13.2 C 6.54 g/m*3 13.2 C 0 km/h
122 25-11-2009 00:19:03 13.2 C 6.54 g/m*3 13.2 C 0 km/h
123 25-11-2009 00:31:03 13.2 C 6.54 g/m*3 13.2 C 0 km/h
124 25-11-2009 00:43:03 13.2 C 6.54 g/m*3 13.2 C 0 km/h
125 25-11-2009 00:55:03 13.1 C 6.5 g/m*3 13.1 C 0 km/h
Sensor: Nr:Datum:Temp:Abs-Feuchte:Windchill:Wind:
Aussen-T/F 126 25-11-2009 01:07:03 13.1 C 6.62 g/m*3 13.1 C 0 km/h
127 25-11-2009 01:19:03 13.1 C 6.73 g/m*3 13.1 C 0 km/h
128 25-11-2009 01:31:03 12.9 C 6.88 g/m*3 12.9 C 0 km/h
129 25-11-2009 01:43:04 13 C 6.8 g/m*3 13 C 0 km/h
130 25-11-2009 01:55:04 13.1 C 6.85 g/m*3 13.1 C 0 km/h
131 25-11-2009 02:07:04 13 C 7.03 g/m*3 13 C 0 km/h
132 25-11-2009 02:19:04 12.9 C 7.1 g/m*3 12.9 C 0 km/h
133 25-11-2009 02:31:04 12.8 C 7.06 g/m*3 12.8 C 0 km/h
134 25-11-2009 02:43:04 12.9 C 6.99 g/m*3 12.9 C 0 km/h
135 25-11-2009 02:55:04 12.9 C 6.76 g/m*3 12.9 C 0 km/h
136 25-11-2009 03:07:04 12.9 C 6.76 g/m*3 12.9 C 0 km/h
137 25-11-2009 03:19:04 13 C 6.58 g/m*3 13 C 0 km/h
138 25-11-2009 03:31:04 13 C 6.46 g/m*3 13 C 0 km/h
139 25-11-2009 03:43:04 13.1 C 6.5 g/m*3 13.1 C 0 km/h
140 25-11-2009 03:55:04 13.1 C 6.5 g/m*3 13.1 C 0 km/h
141 25-11-2009 04:07:04 13 C 6.46 g/m*3 13 C 0 km/h
142 25-11-2009 04:19:04 12.9 C 6.42 g/m*3 12.9 C 0 km/h
143 25-11-2009 04:31:04 13 C 6.24 g/m*3 13 C 0 km/h
144 25-11-2009 04:43:04 12.8 C 6.38 g/m*3 12.8 C 0 km/h
145 25-11-2009 04:55:04 12.7 C 6.35 g/m*3 12.7 C 0 km/h
146 25-11-2009 05:07:04 12.7 C 6.35 g/m*3 12.7 C 0 km/h
147 25-11-2009 05:19:04 12.6 C 6.31 g/m*3 12.6 C 0 km/h
148 25-11-2009 05:31:04 12.4 C 6.23 g/m*3 12.4 C 0 km/h
149 25-11-2009 05:43:05 12.2 C 6.26 g/m*3 12.2 C 0 km/h
150 25-11-2009 05:55:05 12.1 C 6.33 g/m*3 12.1 C 0 km/h
Sensor: Nr:Datum:Temp:Abs-Feuchte:Windchill:Wind:
Aussen-T/F 151 25-11-2009 06:07:05 11.9 C 6.35 g/m*3 11.9 C 0 km/h
152 25-11-2009 06:19:05 11.7 C 6.38 g/m*3 11.7 C 0 km/h
153 25-11-2009 06:31:05 11.5 C 6.3 g/m*3 11.5 C 0 km/h
154 25-11-2009 06:43:05 11.4 C 6.36 g/m*3 11.4 C 0 km/h
155 25-11-2009 06:55:05 11.2 C 6.28 g/m*3 11.2 C 0 km/h
156 25-11-2009 07:07:02 11.2 C 6.28 g/m*3 11.2 C 0 km/h
157 25-11-2009 07:19:03 11.2 C 6.28 g/m*3 11.2 C 0 km/h
158 25-11-2009 07:31:02 10.7 C 6.29 g/m*3 10.7 C 0 km/h
159 25-11-2009 07:43:02 10.1 C 6.24 g/m*3 10.1 C 0 km/h
160 25-11-2009 07:55:02 10 C 6.3 g/m*3 10 C 0 km/h
161 25-11-2009 08:07:01 9.8 C 6.31 g/m*3 9.8 C 0 km/h
162 25-11-2009 08:19:02 9.5 C 6.28 g/m*3 9.5 C 0 km/h
163 25-11-2009 08:31:01 9.5 C 6.28 g/m*3 9.5 C 0 km/h
164 25-11-2009 08:43:01 9.4 C 6.33 g/m*3 9.4 C 0 km/h
165 25-11-2009 08:55:02 9.3 C 6.29 g/m*3 9.3 C 0 km/h
166 25-11-2009 09:07:02 9.5 C 6.46 g/m*3 9.5 C 0 km/h
167 25-11-2009 09:19:02 9.4 C 6.33 g/m*3 9.4 C 0 km/h
168 25-11-2009 09:31:02 9.4 C 6.42 g/m*3 9.4 C 0 km/h
169 25-11-2009 09:43:02 9.5 C 6.37 g/m*3 9.5 C 0 km/h
170 25-11-2009 09:55:02 10.2 C 6.28 g/m*3 10.2 C 0 km/h
171 25-11-2009 10:07:02 10.6 C 6.34 g/m*3 10.6 C 0 km/h
172 25-11-2009 10:19:02 11.2 C 6.18 g/m*3 11.2 C 0 km/h
173 25-11-2009 10:31:01 11.5 C 6.2 g/m*3 11.5 C 0 km/h
174 25-11-2009 10:43:01 11.2 C 6.08 g/m*3 11.2 C 0 km/h
175 25-11-2009 10:55:02 11.2 C 6.18 g/m*3 11.2 C 0 km/h
Sensor: Nr:Datum:Temp:Abs-Feuchte:Windchill:Wind:
Aussen-T/F 176 25-11-2009 11:07:01 11.5 C 6.2 g/m*3 11.5 C 0 km/h
177 25-11-2009 11:19:01 11.8 C 6.31 g/m*3 11.8 C 0 km/h
178 25-11-2009 11:31:02 12.3 C 6.08 g/m*3 12.3 C 0 km/h
179 25-11-2009 11:43:02 12.5 C 6.05 g/m*3 12.5 C 0 km/h
180 25-11-2009 11:55:02 12.6 C 5.97 g/m*3 12.6 C 0 km/h
181 25-11-2009 12:07:02 13.1 C 5.71 g/m*3 13.1 C 0 km/h
182 25-11-2009 12:19:02 13.7 C 5.68 g/m*3 13.7 C 0 km/h
183 25-11-2009 12:31:02 13.9 C 5.51 g/m*3 13.9 C 0 km/h
184 25-11-2009 12:43:02 14.1 C 5.22 g/m*3 14.1 C 0 km/h
185 25-11-2009 12:55:02 14.1 C 5.22 g/m*3 14.1 C 0 km/h
186 25-11-2009 13:07:02 14.4 C 5.07 g/m*3 14.4 C 0 km/h
187 25-11-2009 13:19:01 15 C 5 g/m*3 15 C 0 km/h
188 25-11-2009 13:31:02 15 C 5 g/m*3 15 C 0 km/h
189 25-11-2009 13:43:02 15 C 4.74 g/m*3 15 C 0 km/h
190 25-11-2009 13:55:02 15.2 C 4.67 g/m*3 15.2 C 0 km/h
191 25-11-2009 14:07:02 15.2 C 4.67 g/m*3 15.2 C 0 km/h
192 25-11-2009 14:19:01 15.1 C 4.52 g/m*3 15.1 C 0 km/h
193 25-11-2009 14:31:02 15.2 C 4.67 g/m*3 15.2 C 0 km/h
194 25-11-2009 14:43:02 15.2 C 4.67 g/m*3 15.2 C 0 km/h
195 25-11-2009 14:55:02 15.1 C 4.77 g/m*3 15.1 C 0 km/h
196 25-11-2009 15:07:02 14.8 C 4.94 g/m*3 14.8 C 0 km/h
197 25-11-2009 15:19:02 14.7 C 4.78 g/m*3 14.7 C 0 km/h
198 25-11-2009 15:31:02 14.5 C 4.85 g/m*3 14.5 C 0 km/h
199 25-11-2009 15:43:02 14.4 C 4.94 g/m*3 14.4 C 0 km/h
200 25-11-2009 15:55:02 14.3 C 4.91 g/m*3 14.3 C 0 km/h
Sensor: Nr:Datum:Temp:Abs-Feuchte:Windchill:Wind:
Aussen-T/F 201 25-11-2009 16:07:02 14.2 C 4.88 g/m*3 14.2 C 0 km/h
202 25-11-2009 16:19:03 14.1 C 4.85 g/m*3 14.1 C 0 km/h
203 25-11-2009 16:31:02 14 C 4.95 g/m*3 14 C 0 km/h
204 25-11-2009 16:43:02 14 C 4.95 g/m*3 14 C 0 km/h
205 25-11-2009 16:55:02 13.8 C 5 g/m*3 13.8 C 0 km/h
206 25-11-2009 17:07:02 13.6 C 5.18 g/m*3 13.6 C 0 km/h
207 25-11-2009 17:19:02 13.4 C 5.23 g/m*3 13.4 C 0 km/h
208 25-11-2009 17:31:02 13.4 C 5.23 g/m*3 13.4 C 0 km/h
209 25-11-2009 17:43:02 13.4 C 5.35 g/m*3 13.4 C 0 km/h
210 25-11-2009 17:55:02 13 C 5.78 g/m*3 13 C 0 km/h
211 25-11-2009 18:07:02 12.8 C 6.05 g/m*3 12.8 C 0 km/h
212 25-11-2009 18:19:02 12.4 C 6.45 g/m*3 12.4 C 0 km/h
213 25-11-2009 18:31:02 12 C 6.61 g/m*3 12 C 0 km/h
214 25-11-2009 18:43:02 11.3 C 7.04 g/m*3 11.3 C 0 km/h
215 25-11-2009 18:55:02 10.6 C 7.42 g/m*3 10.6 C 0 km/h
216 25-11-2009 19:07:01 10.3 C 7.57 g/m*3 10.3 C 0 km/h
217 25-11-2009 19:19:02 10.2 C 7.71 g/m*3 10.2 C 0 km/h
218 25-11-2009 19:31:01 10.1 C 7.75 g/m*3 10.1 C 0 km/h
219 25-11-2009 19:43:01 10 C 7.8 g/m*3 10 C 0 km/h
220 25-11-2009 19:55:02 9.9 C 7.84 g/m*3 9.9 C 0 km/h
221 25-11-2009 20:07:01 9.9 C 7.84 g/m*3 9.9 C 0 km/h
222 25-11-2009 20:19:01 10 C 7.71 g/m*3 10 C 0 km/h
223 25-11-2009 20:31:02 10.4 C 7.61 g/m*3 10.4 C 0 km/h
224 25-11-2009 20:43:02 10.4 C 7.42 g/m*3 10.4 C 0 km/h
225 25-11-2009 20:55:02 10.3 C 7.37 g/m*3 10.3 C 0 km/h
Sensor: Nr:Datum:Temp:Abs-Feuchte:Windchill:Wind:
Aussen-T/F 226 25-11-2009 21:07:02 10.2 C 7.33 g/m*3 10.2 C 0 km/h
227 25-11-2009 21:19:02 10.1 C 7.38 g/m*3 10.1 C 0 km/h
228 25-11-2009 21:31:02 10.2 C 7.33 g/m*3 10.2 C 0 km/h
229 25-11-2009 21:43:03 10.3 C 7.09 g/m*3 10.3 C 0 km/h
230 25-11-2009 21:55:01 10.3 C 6.99 g/m*3 10.3 C 0 km/h
231 25-11-2009 22:08:02 10.2 C 6.95 g/m*3 10.2 C 0 km/h
232 25-11-2009 22:20:02 10.2 C 6.85 g/m*3 10.2 C 0 km/h
233 25-11-2009 22:32:02 10 C 6.86 g/m*3 10 C 0 km/h
234 25-11-2009 22:44:02 10 C 6.86 g/m*3 10 C 0 km/h
235 25-11-2009 22:56:02 10 C 6.77 g/m*3 10 C 0 km/h
236 25-11-2009 23:08:02 10.1 C 6.81 g/m*3 10.1 C 0 km/h
237 25-11-2009 23:20:02 10.1 C 6.71 g/m*3 10.1 C 0 km/h
238 25-11-2009 23:32:02 9.8 C 6.68 g/m*3 9.8 C 0 km/h
239 25-11-2009 23:44:02 9.8 C 6.59 g/m*3 9.8 C 0 km/h
240 25-11-2009 23:56:02 9.8 C 6.49 g/m*3 9.8 C 0 km/h
241 26-11-2009 00:08:02 9.8 C 6.59 g/m*3 9.8 C 0 km/h
242 26-11-2009 00:20:02 9.8 C 6.49 g/m*3 9.8 C 0 km/h
243 26-11-2009 00:32:02 9.9 C 6.44 g/m*3 9.9 C 0 km/h
244 26-11-2009 00:44:02 9.8 C 6.4 g/m*3 9.8 C 0 km/h
245 26-11-2009 00:56:02 9.6 C 6.41 g/m*3 9.6 C 0 km/h
246 26-11-2009 01:08:03 9.7 C 6.36 g/m*3 9.7 C 0 km/h
247 26-11-2009 01:20:03 9.5 C 6.28 g/m*3 9.5 C 0 km/h
248 26-11-2009 01:32:03 9.5 C 6.19 g/m*3 9.5 C 0 km/h
249 26-11-2009 01:44:03 9.4 C 6.06 g/m*3 9.4 C 0 km/h
250 26-11-2009 01:56:03 9.2 C 5.98 g/m*3 9.2 C 0 km/h
Sensor: Nr:Datum:Temp:Abs-Feuchte:Windchill:Wind:
Aussen-T/F 251 26-11-2009 02:08:03 9 C 5.91 g/m*3 9 C 0 km/h
252 26-11-2009 02:20:03 9.2 C 5.8 g/m*3 9.2 C 0 km/h
253 26-11-2009 02:32:03 9.1 C 5.77 g/m*3 9.1 C 0 km/h
254 26-11-2009 02:44:03 9.1 C 5.77 g/m*3 9.1 C 0 km/h
255 26-11-2009 02:56:03 9.2 C 5.8 g/m*3 9.2 C 0 km/h
256 26-11-2009 03:08:03 9.4 C 5.79 g/m*3 9.4 C 0 km/h
257 26-11-2009 03:20:03 9.5 C 5.83 g/m*3 9.5 C 0 km/h
258 26-11-2009 03:32:03 9.4 C 5.88 g/m*3 9.4 C 0 km/h
259 26-11-2009 03:44:03 9.5 C 5.83 g/m*3 9.5 C 0 km/h
260 26-11-2009 03:56:03 9.4 C 5.79 g/m*3 9.4 C 0 km/h
261 26-11-2009 04:08:03 9.5 C 5.73 g/m*3 9.5 C 0 km/h
262 26-11-2009 04:20:03 9.4 C 5.7 g/m*3 9.4 C 0 km/h
263 26-11-2009 04:32:03 9.5 C 5.73 g/m*3 9.5 C 0 km/h
264 26-11-2009 04:44:03 9.6 C 5.68 g/m*3 9.6 C 0 km/h
265 26-11-2009 04:56:03 9.6 C 5.59 g/m*3 9.6 C 0 km/h
266 26-11-2009 05:08:03 9.6 C 5.59 g/m*3 9.6 C 0 km/h
267 26-11-2009 05:20:04 9.6 C 5.59 g/m*3 9.6 C 0 km/h
268 26-11-2009 05:32:04 9.7 C 5.53 g/m*3 9.7 C 0 km/h
269 26-11-2009 05:44:04 9.7 C 5.44 g/m*3 9.7 C 0 km/h
270 26-11-2009 05:56:04 9.7 C 5.44 g/m*3 9.7 C 0 km/h
271 26-11-2009 06:08:04 9.6 C 5.5 g/m*3 9.6 C 0 km/h
272 26-11-2009 06:20:04 9.6 C 5.5 g/m*3 9.6 C 0 km/h
273 26-11-2009 06:32:04 9.6 C 5.5 g/m*3 9.6 C 0 km/h
274 26-11-2009 06:44:04 9.7 C 5.53 g/m*3 9.7 C 0 km/h
275 26-11-2009 06:56:04 9.6 C 5.5 g/m*3 9.6 C 0 km/h
Sensor: Nr:Datum:Temp:Abs-Feuchte:Windchill:Wind:
Aussen-T/F 276 26-11-2009 07:08:02 9.7 C 5.53 g/m*3 9.7 C 0 km/h
277 26-11-2009 07:20:01 9.7 C 5.44 g/m*3 9.7 C 0 km/h
278 26-11-2009 07:32:02 9.7 C 5.44 g/m*3 9.7 C 0 km/h
279 26-11-2009 07:44:02 9.8 C 5.47 g/m*3 9.8 C 0 km/h
280 26-11-2009 07:56:02 9.8 C 5.38 g/m*3 9.8 C 0 km/h
281 26-11-2009 08:08:02 9.8 C 5.47 g/m*3 9.8 C 0 km/h
282 26-11-2009 08:20:02 9.9 C 5.42 g/m*3 9.9 C 0 km/h
283 26-11-2009 08:32:02 9.8 C 5.47 g/m*3 9.8 C 0 km/h
284 26-11-2009 08:44:02 10 C 5.45 g/m*3 10 C 0 km/h
285 26-11-2009 08:56:01 10 C 5.45 g/m*3 10 C 0 km/h
286 26-11-2009 09:08:01 9.9 C 5.51 g/m*3 9.9 C 0 km/h
287 26-11-2009 09:20:01 10 C 5.36 g/m*3 10 C 0 km/h
288 26-11-2009 09:32:01 10 C 5.36 g/m*3 10 C 0 km/h
289 26-11-2009 09:44:01 10 C 5.36 g/m*3 10 C 0 km/h
290 26-11-2009 09:56:01 10 C 5.36 g/m*3 10 C 0 km/h
291 26-11-2009 10:08:01 10 C 5.26 g/m*3 10 C 0 km/h
292 26-11-2009 10:20:02 10.1 C 5.3 g/m*3 10.1 C 0 km/h
293 26-11-2009 10:32:01 10.2 C 5.23 g/m*3 10.2 C 0 km/h
294 26-11-2009 10:44:01 10.3 C 5.27 g/m*3 10.3 C 0 km/h
295 26-11-2009 10:56:02 10.4 C 5.2 g/m*3 10.4 C 0 km/h
296 26-11-2009 11:08:01 10.5 C 5.14 g/m*3 10.5 C 0 km/h
297 26-11-2009 11:20:02 10.9 C 5.07 g/m*3 10.9 C 0 km/h
298 26-11-2009 11:32:01 10.7 C 5.3 g/m*3 10.7 C 0 km/h
299 26-11-2009 11:44:01 10.9 C 5.27 g/m*3 10.9 C 0 km/h
300 26-11-2009 11:56:03 11.1 C 5.24 g/m*3 11.1 C 0 km/h
Sensor: Nr:Datum:Temp:Abs-Feuchte:Windchill:Wind:
Aussen-T/F 301 26-11-2009 12:08:02 11.3 C 5.2 g/m*3 11.3 C 0 km/h
302 26-11-2009 12:20:02 11.1 C 5.24 g/m*3 11.1 C 0 km/h
303 26-11-2009 12:32:02 11 C 5.31 g/m*3 11 C 0 km/h
304 26-11-2009 12:44:02 11 C 5.31 g/m*3 11 C 0 km/h
305 26-11-2009 12:56:02 11.3 C 5.41 g/m*3 11.3 C 0 km/h
306 26-11-2009 13:08:02 11.3 C 5.41 g/m*3 11.3 C 0 km/h
307 26-11-2009 13:20:02 11.4 C 5.44 g/m*3 11.4 C 0 km/h
308 26-11-2009 13:32:02 11.7 C 5.54 g/m*3 11.7 C 0 km/h
309 26-11-2009 13:44:02 11.2 C 5.88 g/m*3 11.2 C 0 km/h
310 26-11-2009 13:56:02 11.1 C 5.94 g/m*3 11.1 C 0 km/h
311 26-11-2009 14:08:01 10.7 C 5.8 g/m*3 10.7 C 0 km/h
312 26-11-2009 14:20:01 10.6 C 5.76 g/m*3 10.6 C 0 km/h
313 26-11-2009 14:32:02 10.7 C 5.8 g/m*3 10.7 C 0 km/h
314 26-11-2009 14:44:02 10.8 C 5.83 g/m*3 10.8 C 0 km/h
315 26-11-2009 14:56:02 10.7 C 5.8 g/m*3 10.7 C 0 km/h
316 26-11-2009 15:08:02 10.7 C 5.89 g/m*3 10.7 C 0 km/h
317 26-11-2009 15:20:02 10.8 C 5.83 g/m*3 10.8 C 0 km/h
318 26-11-2009 15:32:02 10.8 C 5.63 g/m*3 10.8 C 0 km/h
319 26-11-2009 15:44:02 10.8 C 5.73 g/m*3 10.8 C 0 km/h
320 26-11-2009 15:56:01 10.6 C 5.47 g/m*3 10.6 C 0 km/h
321 26-11-2009 16:08:02 10.3 C 5.46 g/m*3 10.3 C 0 km/h
322 26-11-2009 16:20:01 10.3 C 5.46 g/m*3 10.3 C 0 km/h
323 26-11-2009 16:32:02 10.2 C 5.33 g/m*3 10.2 C 0 km/h
324 26-11-2009 16:44:02 10.1 C 5.3 g/m*3 10.1 C 0 km/h
325 26-11-2009 16:56:02 9.9 C 5.42 g/m*3 9.9 C 0 km/h
Sensor: Nr:Datum:Temp:Abs-Feuchte:Windchill:Wind:
Aussen-T/F 326 26-11-2009 17:08:02 9.8 C 5.47 g/m*3 9.8 C 0 km/h
327 26-11-2009 17:20:01 9.7 C 5.53 g/m*3 9.7 C 0 km/h
328 26-11-2009 17:32:02 10 C 5.54 g/m*3 10 C 0 km/h
329 26-11-2009 17:44:02 9.9 C 5.7 g/m*3 9.9 C 0 km/h
330 26-11-2009 17:56:02 10 C 5.64 g/m*3 10 C 0 km/h
331 26-11-2009 18:08:02 9.8 C 5.66 g/m*3 9.8 C 0 km/h
332 26-11-2009 18:20:02 10.1 C 5.67 g/m*3 10.1 C 0 km/h
333 26-11-2009 18:32:02 10 C 5.64 g/m*3 10 C 0 km/h
334 26-11-2009 18:44:02 10 C 5.64 g/m*3 10 C 0 km/h
335 26-11-2009 18:56:02 10.2 C 5.61 g/m*3 10.2 C 0 km/h
336 26-11-2009 19:08:02 10.2 C 5.52 g/m*3 10.2 C 0 km/h
337 26-11-2009 19:20:02 10.3 C 5.55 g/m*3 10.3 C 0 km/h
338 26-11-2009 19:32:02 9.5 C 6.1 g/m*3 9.5 C 0 km/h
339 26-11-2009 19:44:02 9 C 6.44 g/m*3 9 C 0 km/h
340 26-11-2009 19:56:02 8.8 C 6.79 g/m*3 8.8 C 0 km/h
341 26-11-2009 20:08:02 8.8 C 6.7 g/m*3 8.8 C 0 km/h
342 26-11-2009 20:20:02 8.9 C 6.83 g/m*3 8.9 C 0 km/h
343 26-11-2009 20:32:02 8.4 C 6.79 g/m*3 8.4 C 0 km/h
344 26-11-2009 20:44:02 8.4 C 6.79 g/m*3 8.4 C 0 km/h
345 26-11-2009 20:56:02 8.8 C 6.35 g/m*3 8.8 C 0 km/h
346 26-11-2009 21:08:02 9.3 C 6.11 g/m*3 9.3 C 0 km/h
347 26-11-2009 21:20:02 9.7 C 6.08 g/m*3 9.7 C 0 km/h
348 26-11-2009 21:32:03 9.8 C 5.94 g/m*3 9.8 C 0 km/h
349 26-11-2009 21:44:03 10 C 5.83 g/m*3 10 C 0 km/h
350 26-11-2009 21:56:02 10 C 5.83 g/m*3 10 C 0 km/h
Sensor: Nr:Datum:Temp:Abs-Feuchte:Windchill:Wind:
Aussen-T/F 351 26-11-2009 22:08:02 10 C 5.92 g/m*3 10 C 0 km/h
352 26-11-2009 22:20:01 10 C 5.83 g/m*3 10 C 0 km/h
353 26-11-2009 22:32:02 10.1 C 5.86 g/m*3 10.1 C 0 km/h
354 26-11-2009 22:44:02 10.1 C 5.77 g/m*3 10.1 C 0 km/h
355 26-11-2009 22:56:02 10.3 C 5.75 g/m*3 10.3 C 0 km/h
356 26-11-2009 23:09:01 10.5 C 5.72 g/m*3 10.5 C 0 km/h
357 26-11-2009 23:21:01 10.4 C 5.69 g/m*3 10.4 C 0 km/h
358 26-11-2009 23:33:01 10.5 C 5.72 g/m*3 10.5 C 0 km/h
359 26-11-2009 23:45:01 10.4 C 5.78 g/m*3 10.4 C 0 km/h
360 26-11-2009 23:57:01 10.4 C 5.88 g/m*3 10.4 C 0 km/h
361 27-11-2009 00:09:01 10.4 C 5.88 g/m*3 10.4 C 0 km/h
362 27-11-2009 00:21:01 10.6 C 5.86 g/m*3 10.6 C 0 km/h
363 27-11-2009 00:33:01 10.8 C 5.73 g/m*3 10.8 C 0 km/h
364 27-11-2009 00:45:01 10.8 C 5.73 g/m*3 10.8 C 0 km/h
365 27-11-2009 00:57:02 10.7 C 5.89 g/m*3 10.7 C 0 km/h
366 27-11-2009 01:09:02 10.4 C 6.07 g/m*3 10.4 C 0 km/h
367 27-11-2009 01:21:02 10.7 C 5.99 g/m*3 10.7 C 0 km/h
368 27-11-2009 01:33:02 10.8 C 5.93 g/m*3 10.8 C 0 km/h
369 27-11-2009 01:45:02 10.9 C 5.87 g/m*3 10.9 C 0 km/h
370 27-11-2009 01:57:02 11 C 5.81 g/m*3 11 C 0 km/h
371 27-11-2009 02:09:02 11 C 5.71 g/m*3 11 C 0 km/h
372 27-11-2009 02:21:02 10.9 C 5.87 g/m*3 10.9 C 0 km/h
373 27-11-2009 02:33:02 11 C 5.71 g/m*3 11 C 0 km/h
374 27-11-2009 02:45:02 10.9 C 5.77 g/m*3 10.9 C 0 km/h
375 27-11-2009 02:57:02 11 C 5.51 g/m*3 11 C 0 km/h
Sensor: Nr:Datum:Temp:Abs-Feuchte:Windchill:Wind:
Aussen-T/F 376 27-11-2009 03:09:02 10.9 C 5.57 g/m*3 10.9 C 0 km/h
377 27-11-2009 03:21:02 10.9 C 5.57 g/m*3 10.9 C 0 km/h
378 27-11-2009 03:33:02 10.9 C 5.67 g/m*3 10.9 C 0 km/h
379 27-11-2009 03:45:02 10.8 C 5.63 g/m*3 10.8 C 0 km/h
380 27-11-2009 03:57:02 10.5 C 5.72 g/m*3 10.5 C 0 km/h
381 27-11-2009 04:09:02 10.1 C 5.86 g/m*3 10.1 C 0 km/h
382 27-11-2009 04:21:02 9.8 C 5.94 g/m*3 9.8 C 0 km/h
383 27-11-2009 04:33:02 9.3 C 5.84 g/m*3 9.3 C 0 km/h
384 27-11-2009 04:45:03 9.1 C 6.03 g/m*3 9.1 C 0 km/h
385 27-11-2009 04:57:03 8.9 C 6.22 g/m*3 8.9 C 0 km/h
386 27-11-2009 05:09:03 9 C 6.08 g/m*3 9 C 0 km/h
387 27-11-2009 05:21:03 9.1 C 6.03 g/m*3 9.1 C 0 km/h
388 27-11-2009 05:33:03 9.1 C 6.03 g/m*3 9.1 C 0 km/h
389 27-11-2009 05:45:03 9.1 C 6.12 g/m*3 9.1 C 0 km/h
390 27-11-2009 05:57:03 8.9 C 6.22 g/m*3 8.9 C 0 km/h
391 27-11-2009 06:09:03 8.5 C 6.32 g/m*3 8.5 C 0 km/h
392 27-11-2009 06:21:03 8.3 C 6.66 g/m*3 8.3 C 0 km/h
393 27-11-2009 06:33:03 8.2 C 6.78 g/m*3 8.2 C 0 km/h
394 27-11-2009 06:45:03 8.1 C 6.66 g/m*3 8.1 C 0 km/h
395 27-11-2009 06:57:03 7.9 C 6.74 g/m*3 7.9 C 0 km/h
396 27-11-2009 07:09:02 7.7 C 6.73 g/m*3 7.7 C 0 km/h
397 27-11-2009 07:21:01 7.5 C 6.72 g/m*3 7.5 C 0 km/h
398 27-11-2009 07:33:01 7.4 C 6.84 g/m*3 7.4 C 0 km/h
399 27-11-2009 07:45:01 7.5 C 6.96 g/m*3 7.5 C 0 km/h
400 27-11-2009 07:57:01 7.5 C 7.04 g/m*3 7.5 C 0 km/h
Sensor: Nr:Datum:Temp:Abs-Feuchte:Windchill:Wind:
Aussen-T/F 401 27-11-2009 08:09:02 7.6 C 6.93 g/m*3 7.6 C 0 km/h
402 27-11-2009 08:21:01 8.2 C 6.7 g/m*3 8.2 C 0 km/h
403 27-11-2009 08:33:02 8.2 C 6.36 g/m*3 8.2 C 0 km/h
404 27-11-2009 08:45:01 8.4 C 6.02 g/m*3 8.4 C 0 km/h
405 27-11-2009 08:57:01 8.4 C 5.85 g/m*3 8.4 C 0 km/h
406 27-11-2009 09:09:02 8.3 C 5.82 g/m*3 8.3 C 0 km/h
407 27-11-2009 09:21:02 8.5 C 5.72 g/m*3 8.5 C 0 km/h
408 27-11-2009 09:33:02 8.6 C 5.67 g/m*3 8.6 C 0 km/h
409 27-11-2009 09:45:02 8.8 C 5.57 g/m*3 8.8 C 0 km/h
410 27-11-2009 09:57:02 8.7 C 5.53 g/m*3 8.7 C 0 km/h
411 27-11-2009 10:09:02 8.8 C 5.57 g/m*3 8.8 C 0 km/h
412 27-11-2009 10:21:01 9 C 5.55 g/m*3 9 C 0 km/h
413 27-11-2009 10:33:01 9.1 C 5.59 g/m*3 9.1 C 0 km/h
414 27-11-2009 10:45:01 9.2 C 5.54 g/m*3 9.2 C 0 km/h
415 27-11-2009 10:57:01 9.2 C 5.54 g/m*3 9.2 C 0 km/h
416 27-11-2009 11:09:02 9.4 C 5.61 g/m*3 9.4 C 0 km/h
417 27-11-2009 11:21:02 9.3 C 5.57 g/m*3 9.3 C 0 km/h
418 27-11-2009 11:33:01 9.4 C 5.52 g/m*3 9.4 C 0 km/h
419 27-11-2009 11:45:02 9.5 C 5.46 g/m*3 9.5 C 0 km/h
420 27-11-2009 11:57:02 9.6 C 5.4 g/m*3 9.6 C 0 km/h
421 27-11-2009 12:09:01 9.3 C 5.3 g/m*3 9.3 C 0 km/h
422 27-11-2009 12:21:02 9.1 C 5.32 g/m*3 9.1 C 0 km/h
423 27-11-2009 12:33:01 9 C 5.47 g/m*3 9 C 0 km/h
424 27-11-2009 12:45:03 9.2 C 5.54 g/m*3 9.2 C 0 km/h
425 27-11-2009 12:57:03 9.5 C 5.55 g/m*3 9.5 C 0 km/h
Sensor: Nr:Datum:Temp:Abs-Feuchte:Windchill:Wind:
Aussen-T/F 426 27-11-2009 13:09:02 9.8 C 5.57 g/m*3 9.8 C 0 km/h
427 27-11-2009 13:21:02 10 C 5.26 g/m*3 10 C 0 km/h
428 27-11-2009 13:33:02 10 C 5.17 g/m*3 10 C 0 km/h
429 27-11-2009 13:45:02 9.8 C 5.2 g/m*3 9.8 C 0 km/h
430 27-11-2009 13:57:02 9.6 C 5.13 g/m*3 9.6 C 0 km/h
431 27-11-2009 14:09:02 9.7 C 5.07 g/m*3 9.7 C 0 km/h
432 27-11-2009 14:21:02 9.8 C 5.01 g/m*3 9.8 C 0 km/h
433 27-11-2009 14:33:01 9.8 C 5.01 g/m*3 9.8 C 0 km/h
434 27-11-2009 14:45:02 9.8 C 4.92 g/m*3 9.8 C 0 km/h
435 27-11-2009 14:57:02 9.7 C 4.98 g/m*3 9.7 C 0 km/h
436 27-11-2009 15:09:01 9.8 C 5.01 g/m*3 9.8 C 0 km/h
437 27-11-2009 15:21:02 9.6 C 4.95 g/m*3 9.6 C 0 km/h
438 27-11-2009 15:33:02 9.3 C 5.12 g/m*3 9.3 C 0 km/h
439 27-11-2009 15:45:02 9.1 C 5.23 g/m*3 9.1 C 0 km/h
440 27-11-2009 15:57:02 9 C 5.38 g/m*3 9 C 0 km/h
441 27-11-2009 16:09:02 8.8 C 5.48 g/m*3 8.8 C 0 km/h
442 27-11-2009 16:21:01 8.7 C 5.45 g/m*3 8.7 C 0 km/h
443 27-11-2009 16:33:02 8.5 C 5.29 g/m*3 8.5 C 0 km/h
444 27-11-2009 16:45:01 8.6 C 5.16 g/m*3 8.6 C 0 km/h
445 27-11-2009 16:57:01 8.4 C 5.09 g/m*3 8.4 C 0 km/h
446 27-11-2009 17:09:02 8.5 C 4.95 g/m*3 8.5 C 0 km/h
447 27-11-2009 17:21:01 8.4 C 4.92 g/m*3 8.4 C 0 km/h
448 27-11-2009 17:33:02 8.3 C 4.89 g/m*3 8.3 C 0 km/h
449 27-11-2009 17:45:01 8.4 C 4.92 g/m*3 8.4 C 0 km/h
450 27-11-2009 17:57:01 8.4 C 4.92 g/m*3 8.4 C 0 km/h
Sensor: Nr:Datum:Temp:Abs-Feuchte:Windchill:Wind:
Aussen-T/F 451 27-11-2009 18:09:02 8.4 C 5.01 g/m*3 8.4 C 0 km/h
452 27-11-2009 18:21:02 8.5 C 4.95 g/m*3 8.5 C 0 km/h
453 27-11-2009 18:33:02 8.5 C 4.87 g/m*3 8.5 C 0 km/h
454 27-11-2009 18:45:01 8.4 C 4.84 g/m*3 8.4 C 0 km/h
455 27-11-2009 18:57:01 8.4 C 4.92 g/m*3 8.4 C 0 km/h
456 27-11-2009 19:09:02 8.9 C 4.82 g/m*3 8.9 C 0 km/h
457 27-11-2009 19:21:02 8.7 C 5.02 g/m*3 8.7 C 0 km/h
458 27-11-2009 19:33:01 8.3 C 5.14 g/m*3 8.3 C 0 km/h
459 27-11-2009 19:45:02 8.2 C 5.11 g/m*3 8.2 C 0 km/h
460 27-11-2009 19:57:02 8.2 C 5.11 g/m*3 8.2 C 0 km/h
461 27-11-2009 20:09:01 8.3 C 5.14 g/m*3 8.3 C 0 km/h
462 27-11-2009 20:21:02 8.2 C 5.11 g/m*3 8.2 C 0 km/h
463 27-11-2009 20:33:01 8.2 C 5.11 g/m*3 8.2 C 0 km/h
464 27-11-2009 20:45:02 8.2 C 5.11 g/m*3 8.2 C 0 km/h
465 27-11-2009 20:57:02 8.1 C 5.08 g/m*3 8.1 C 0 km/h
466 27-11-2009 21:09:01 8.1 C 5.16 g/m*3 8.1 C 0 km/h
467 27-11-2009 21:21:01 8.3 C 5.23 g/m*3 8.3 C 0 km/h
468 27-11-2009 21:33:02 8.3 C 5.14 g/m*3 8.3 C 0 km/h
469 27-11-2009 21:45:02 8.1 C 5.08 g/m*3 8.1 C 0 km/h
470 27-11-2009 21:57:03 8 C 5.04 g/m*3 8 C 0 km/h
471 27-11-2009 22:09:02 8 C 5.04 g/m*3 8 C 0 km/h
472 27-11-2009 22:21:02 8.1 C 5.08 g/m*3 8.1 C 0 km/h
473 27-11-2009 22:34:04 8 C 5.13 g/m*3 8 C 0 km/h
474 27-11-2009 22:46:04 8.1 C 5.24 g/m*3 8.1 C 0 km/h
475 27-11-2009 22:58:04 8 C 5.29 g/m*3 8 C 0 km/h
Sensor: Nr:Datum:Temp:Abs-Feuchte:Windchill:Wind:
Aussen-T/F 476 27-11-2009 23:10:04 7.9 C 5.59 g/m*3 7.9 C 0 km/h
477 27-11-2009 23:22:04 7.8 C 5.55 g/m*3 7.8 C 0 km/h
478 27-11-2009 23:34:04 7.9 C 5.5 g/m*3 7.9 C 0 km/h
479 27-11-2009 23:46:04 8 C 5.37 g/m*3 8 C 0 km/h
480 27-11-2009 23:58:04 8 C 5.29 g/m*3 8 C 0 km/h
481 28-11-2009 00:10:04 7.9 C 5.26 g/m*3 7.9 C 0 km/h
482 28-11-2009 00:22:04 8 C 5.21 g/m*3 8 C 0 km/h
483 28-11-2009 00:34:04 8.1 C 5.16 g/m*3 8.1 C 0 km/h
484 28-11-2009 00:46:04 8 C 5.37 g/m*3 8 C 0 km/h
485 28-11-2009 00:58:05 7.3 C 5.69 g/m*3 7.3 C 0 km/h
486 28-11-2009 01:10:05 7 C 5.81 g/m*3 7 C 0 km/h
487 28-11-2009 01:22:05 7.4 C 5.88 g/m*3 7.4 C 0 km/h
488 28-11-2009 01:34:05 7.3 C 5.93 g/m*3 7.3 C 0 km/h
489 28-11-2009 01:46:05 7.4 C 5.88 g/m*3 7.4 C 0 km/h
490 28-11-2009 01:58:05 7.6 C 5.72 g/m*3 7.6 C 0 km/h
491 28-11-2009 02:10:05 7.6 C 5.56 g/m*3 7.6 C 0 km/h
492 28-11-2009 02:22:05 7.5 C 5.6 g/m*3 7.5 C 0 km/h
493 28-11-2009 02:34:05 7.5 C 5.6 g/m*3 7.5 C 0 km/h
494 28-11-2009 02:46:05 7.5 C 5.6 g/m*3 7.5 C 0 km/h
495 28-11-2009 02:58:05 7.8 C 5.55 g/m*3 7.8 C 0 km/h
496 28-11-2009 03:10:05 8 C 5.46 g/m*3 8 C 0 km/h
497 28-11-2009 03:22:05 8 C 5.37 g/m*3 8 C 0 km/h
498 28-11-2009 03:34:05 7.9 C 5.34 g/m*3 7.9 C 0 km/h
499 28-11-2009 03:46:05 7.9 C 5.42 g/m*3 7.9 C 0 km/h
500 28-11-2009 03:58:05 8 C 5.29 g/m*3 8 C 0 km/h
Sensor: Nr:Datum:Temp:Abs-Feuchte:Windchill:Wind:
Aussen-T/F 501 28-11-2009 04:10:05 7.6 C 5.32 g/m*3 7.6 C 0 km/h
502 28-11-2009 04:22:05 7.6 C 5.24 g/m*3 7.6 C 0 km/h
503 28-11-2009 04:34:05 7.5 C 5.28 g/m*3 7.5 C 0 km/h
504 28-11-2009 04:46:05 7.7 C 5.27 g/m*3 7.7 C 0 km/h
505 28-11-2009 04:58:06 7.9 C 5.26 g/m*3 7.9 C 0 km/h
506 28-11-2009 05:10:06 7.9 C 5.17 g/m*3 7.9 C 0 km/h
507 28-11-2009 05:22:06 7.9 C 5.34 g/m*3 7.9 C 0 km/h
508 28-11-2009 05:34:06 7.1 C 5.77 g/m*3 7.1 C 0 km/h
509 28-11-2009 05:46:06 7 C 5.89 g/m*3 7 C 0 km/h
510 28-11-2009 05:58:06 6.9 C 5.93 g/m*3 6.9 C 0 km/h
511 28-11-2009 06:10:06 7.3 C 5.77 g/m*3 7.3 C 0 km/h
512 28-11-2009 06:22:06 7.4 C 5.73 g/m*3 7.4 C 0 km/h
513 28-11-2009 06:34:06 7.6 C 5.72 g/m*3 7.6 C 0 km/h
514 28-11-2009 06:46:06 7.5 C 5.68 g/m*3 7.5 C 0 km/h
515 28-11-2009 06:58:06 7.5 C 5.68 g/m*3 7.5 C 0 km/h
516 28-11-2009 07:10:06 7.4 C 5.65 g/m*3 7.4 C 0 km/h
517 28-11-2009 07:22:06 7.5 C 5.6 g/m*3 7.5 C 0 km/h
518 28-11-2009 07:34:06 7.4 C 5.65 g/m*3 7.4 C 0 km/h
519 28-11-2009 07:46:06 7.3 C 5.61 g/m*3 7.3 C 0 km/h
520 28-11-2009 07:58:06 7.2 C 5.65 g/m*3 7.2 C 0 km/h
521 28-11-2009 08:10:03 7 C 5.58 g/m*3 7 C 0 km/h
522 28-11-2009 08:22:03 7.2 C 5.73 g/m*3 7.2 C 0 km/h
523 28-11-2009 08:34:03 7.3 C 5.77 g/m*3 7.3 C 0 km/h
524 28-11-2009 08:46:01 7.7 C 5.76 g/m*3 7.7 C 0 km/h
525 28-11-2009 08:58:01 7.7 C 5.68 g/m*3 7.7 C 0 km/h
Sensor: Nr:Datum:Temp:Abs-Feuchte:Windchill:Wind:
Aussen-T/F 526 28-11-2009 09:10:02 7.6 C 5.72 g/m*3 7.6 C 0 km/h
527 28-11-2009 09:22:01 8 C 5.7 g/m*3 8 C 0 km/h
528 28-11-2009 09:34:02 8.2 C 5.78 g/m*3 8.2 C 0 km/h
529 28-11-2009 09:46:02 8.4 C 5.77 g/m*3 8.4 C 0 km/h
530 28-11-2009 09:58:02 8.5 C 5.81 g/m*3 8.5 C 0 km/h
531 28-11-2009 10:10:02 8.5 C 5.89 g/m*3 8.5 C 0 km/h
532 28-11-2009 10:22:02 8.6 C 5.84 g/m*3 8.6 C 0 km/h
533 28-11-2009 10:34:02 8.7 C 5.88 g/m*3 8.7 C 0 km/h
534 28-11-2009 10:46:01 8.7 C 5.88 g/m*3 8.7 C 0 km/h
535 28-11-2009 10:58:01 9.2 C 5.8 g/m*3 9.2 C 0 km/h
536 28-11-2009 11:10:02 9.5 C 5.64 g/m*3 9.5 C 0 km/h
537 28-11-2009 11:22:02 9.7 C 5.62 g/m*3 9.7 C 0 km/h
538 28-11-2009 11:34:01 9.7 C 5.72 g/m*3 9.7 C 0 km/h
539 28-11-2009 11:46:02 9.5 C 5.83 g/m*3 9.5 C 0 km/h
540 28-11-2009 11:58:02 9.2 C 5.98 g/m*3 9.2 C 0 km/h
541 28-11-2009 12:10:01 8.8 C 6.18 g/m*3 8.8 C 0 km/h
542 28-11-2009 12:22:02 8.4 C 6.36 g/m*3 8.4 C 0 km/h
543 28-11-2009 12:34:01 8.3 C 6.41 g/m*3 8.3 C 0 km/h
544 28-11-2009 12:46:02 8.3 C 6.41 g/m*3 8.3 C 0 km/h
545 28-11-2009 12:58:02 8.4 C 6.45 g/m*3 8.4 C 0 km/h
546 28-11-2009 13:10:01 8.5 C 6.49 g/m*3 8.5 C 0 km/h
547 28-11-2009 13:22:01 8.6 C 6.44 g/m*3 8.6 C 0 km/h
548 28-11-2009 13:34:01 8.8 C 6.44 g/m*3 8.8 C 0 km/h
549 28-11-2009 13:46:02 9 C 6.35 g/m*3 9 C 0 km/h
550 28-11-2009 13:58:02 9.1 C 6.12 g/m*3 9.1 C 0 km/h
Sensor: Nr:Datum:Temp:Abs-Feuchte:Windchill:Wind:
Aussen-T/F 551 28-11-2009 14:10:02 9.2 C 6.16 g/m*3 9.2 C 0 km/h
552 28-11-2009 14:22:02 9.2 C 6.16 g/m*3 9.2 C 0 km/h
553 28-11-2009 14:34:02 9.3 C 6.2 g/m*3 9.3 C 0 km/h
554 28-11-2009 14:46:02 9.4 C 6.24 g/m*3 9.4 C 0 km/h
555 28-11-2009 14:58:03 9.3 C 6.2 g/m*3 9.3 C 0 km/h
556 28-11-2009 15:10:01 9.3 C 6.29 g/m*3 9.3 C 0 km/h
557 28-11-2009 15:22:01 9.2 C 6.34 g/m*3 9.2 C 0 km/h
558 28-11-2009 15:34:02 9.2 C 6.43 g/m*3 9.2 C 0 km/h
559 28-11-2009 15:46:02 9.4 C 6.33 g/m*3 9.4 C 0 km/h
560 28-11-2009 15:58:02 9.3 C 6.38 g/m*3 9.3 C 0 km/h
561 28-11-2009 16:10:03 9.4 C 6.51 g/m*3 9.4 C 0 km/h
562 28-11-2009 16:22:02 9.3 C 6.56 g/m*3 9.3 C 0 km/h
563 28-11-2009 16:34:02 9.4 C 6.6 g/m*3 9.4 C 0 km/h
564 28-11-2009 16:46:01 9.5 C 6.55 g/m*3 9.5 C 0 km/h
565 28-11-2009 16:58:01 9.6 C 6.5 g/m*3 9.6 C 0 km/h
566 28-11-2009 17:10:02 9.8 C 6.49 g/m*3 9.8 C 0 km/h
567 28-11-2009 17:22:01 9.7 C 6.45 g/m*3 9.7 C 0 km/h
568 28-11-2009 17:34:02 9.6 C 6.5 g/m*3 9.6 C 0 km/h
569 28-11-2009 17:46:02 9.5 C 6.55 g/m*3 9.5 C 0 km/h
570 28-11-2009 17:58:02 9.6 C 6.6 g/m*3 9.6 C 0 km/h
571 28-11-2009 18:10:02 9.7 C 6.55 g/m*3 9.7 C 0 km/h
572 28-11-2009 18:22:01 9.7 C 6.55 g/m*3 9.7 C 0 km/h
573 28-11-2009 18:34:02 9.9 C 6.54 g/m*3 9.9 C 0 km/h
574 28-11-2009 18:46:02 10 C 6.48 g/m*3 10 C 0 km/h
575 28-11-2009 18:58:02 9.9 C 6.63 g/m*3 9.9 C 0 km/h
Sensor: Nr:Datum:Temp:Abs-Feuchte:Windchill:Wind:
Aussen-T/F 576 28-11-2009 19:10:02 9.5 C 6.74 g/m*3 9.5 C 0 km/h
577 28-11-2009 19:22:01 9.6 C 6.78 g/m*3 9.6 C 0 km/h
578 28-11-2009 19:34:02 9.9 C 6.72 g/m*3 9.9 C 0 km/h
579 28-11-2009 19:46:02 10.2 C 6.57 g/m*3 10.2 C 0 km/h
580 28-11-2009 19:58:02 10.3 C 6.51 g/m*3 10.3 C 0 km/h
581 28-11-2009 20:10:02 10.4 C 6.46 g/m*3 10.4 C 0 km/h
582 28-11-2009 20:22:01 10.4 C 6.46 g/m*3 10.4 C 0 km/h
583 28-11-2009 20:34:02 10.1 C 6.43 g/m*3 10.1 C 0 km/h
584 28-11-2009 20:46:01 10.2 C 6.47 g/m*3 10.2 C 0 km/h
585 28-11-2009 20:58:01 10.4 C 6.46 g/m*3 10.4 C 0 km/h
586 28-11-2009 21:10:02 10.5 C 6.4 g/m*3 10.5 C 0 km/h
587 28-11-2009 21:22:02 10.6 C 6.25 g/m*3 10.6 C 0 km/h
588 28-11-2009 21:34:02 10.8 C 6.13 g/m*3 10.8 C 0 km/h
589 28-11-2009 21:46:02 10.9 C 6.07 g/m*3 10.9 C 0 km/h
590 28-11-2009 21:58:02 10.9 C 5.97 g/m*3 10.9 C 0 km/h
591 28-11-2009 22:10:03 10.9 C 5.77 g/m*3 10.9 C 0 km/h
592 28-11-2009 22:22:02 10.9 C 5.77 g/m*3 10.9 C 0 km/h
593 28-11-2009 22:34:02 10.5 C 5.72 g/m*3 10.5 C 0 km/h
594 28-11-2009 22:46:01 10.3 C 5.65 g/m*3 10.3 C 0 km/h
595 28-11-2009 22:58:01 10.4 C 5.59 g/m*3 10.4 C 0 km/h
596 28-11-2009 23:11:02 10.3 C 5.65 g/m*3 10.3 C 0 km/h
597 28-11-2009 23:23:02 10.4 C 5.59 g/m*3 10.4 C 0 km/h
598 28-11-2009 23:35:02 10.4 C 5.59 g/m*3 10.4 C 0 km/h
599 28-11-2009 23:47:02 10.4 C 5.49 g/m*3 10.4 C 0 km/h
600 28-11-2009 23:59:02 10.2 C 5.42 g/m*3 10.2 C 0 km/h
Sensor: Nr:Datum:Temp:Abs-Feuchte:Windchill:Wind:
Aussen-T/F 601 29-11-2009 00:11:02 9.8 C 5.47 g/m*3 9.8 C 0 km/h
602 29-11-2009 00:23:02 9.7 C 5.35 g/m*3 9.7 C 0 km/h
603 29-11-2009 00:35:02 9.6 C 5.4 g/m*3 9.6 C 0 km/h
604 29-11-2009 00:47:02 9.5 C 5.37 g/m*3 9.5 C 0 km/h
605 29-11-2009 00:59:02 9.6 C 5.31 g/m*3 9.6 C 0 km/h
606 29-11-2009 01:11:02 10 C 5.26 g/m*3 10 C 0 km/h
607 29-11-2009 01:23:02 10.1 C 5.11 g/m*3 10.1 C 0 km/h
608 29-11-2009 01:35:03 10 C 5.17 g/m*3 10 C 0 km/h
609 29-11-2009 01:47:03 10.1 C 5.01 g/m*3 10.1 C 0 km/h
610 29-11-2009 01:59:03 10.4 C 4.92 g/m*3 10.4 C 0 km/h
611 29-11-2009 02:11:03 10.6 C 4.88 g/m*3 10.6 C 0 km/h
612 29-11-2009 02:23:03 10.7 C 4.81 g/m*3 10.7 C 0 km/h
613 29-11-2009 02:35:03 10.6 C 4.88 g/m*3 10.6 C 0 km/h
614 29-11-2009 02:47:03 10.7 C 4.71 g/m*3 10.7 C 0 km/h
615 29-11-2009 02:59:03 10.6 C 4.78 g/m*3 10.6 C 0 km/h
616 29-11-2009 03:11:03 10.4 C 4.82 g/m*3 10.4 C 0 km/h
617 29-11-2009 03:23:03 10.1 C 4.82 g/m*3 10.1 C 0 km/h
618 29-11-2009 03:35:03 10.1 C 4.73 g/m*3 10.1 C 0 km/h
619 29-11-2009 03:47:03 9.9 C 4.86 g/m*3 9.9 C 0 km/h
620 29-11-2009 03:59:03 9.5 C 4.82 g/m*3 9.5 C 0 km/h
621 29-11-2009 04:11:03 9 C 4.94 g/m*3 9 C 0 km/h
622 29-11-2009 04:23:03 8.8 C 5.05 g/m*3 8.8 C 0 km/h
623 29-11-2009 04:35:03 8.7 C 5.02 g/m*3 8.7 C 0 km/h
624 29-11-2009 04:47:03 8.4 C 5.09 g/m*3 8.4 C 0 km/h
625 29-11-2009 04:59:03 8.1 C 5.08 g/m*3 8.1 C 0 km/h
Sensor: Nr:Datum:Temp:Abs-Feuchte:Windchill:Wind:
Aussen-T/F 626 29-11-2009 05:11:03 8.2 C 5.02 g/m*3 8.2 C 0 km/h
627 29-11-2009 05:23:04 8.5 C 5.12 g/m*3 8.5 C 0 km/h
628 29-11-2009 05:35:04 8.6 C 4.98 g/m*3 8.6 C 0 km/h
629 29-11-2009 05:47:04 8.3 C 4.89 g/m*3 8.3 C 0 km/h
630 29-11-2009 05:59:04 8.1 C 4.99 g/m*3 8.1 C 0 km/h
631 29-11-2009 06:11:04 8 C 4.96 g/m*3 8 C 0 km/h
632 29-11-2009 06:23:04 8.1 C 4.91 g/m*3 8.1 C 0 km/h
633 29-11-2009 06:35:04 8.2 C 4.86 g/m*3 8.2 C 0 km/h
634 29-11-2009 06:47:04 8.3 C 4.89 g/m*3 8.3 C 0 km/h
635 29-11-2009 06:59:04 8.1 C 4.91 g/m*3 8.1 C 0 km/h
636 29-11-2009 07:11:04 8.3 C 4.8 g/m*3 8.3 C 0 km/h
637 29-11-2009 07:23:04 8.2 C 4.77 g/m*3 8.2 C 0 km/h
638 29-11-2009 07:35:03 7.9 C 4.93 g/m*3 7.9 C 0 km/h
639 29-11-2009 07:47:02 8.1 C 4.99 g/m*3 8.1 C 0 km/h
640 29-11-2009 07:59:02 8.1 C 4.99 g/m*3 8.1 C 0 km/h
641 29-11-2009 08:11:03 8.3 C 5.06 g/m*3 8.3 C 0 km/h
642 29-11-2009 08:23:02 8.6 C 5.16 g/m*3 8.6 C 0 km/h
643 29-11-2009 08:35:02 8.6 C 5.24 g/m*3 8.6 C 0 km/h
644 29-11-2009 08:47:01 8.7 C 5.28 g/m*3 8.7 C 0 km/h
645 29-11-2009 08:59:01 8.9 C 5.34 g/m*3 8.9 C 0 km/h
646 29-11-2009 09:11:02 9.1 C 5.32 g/m*3 9.1 C 0 km/h
647 29-11-2009 09:23:01 9.4 C 5.25 g/m*3 9.4 C 0 km/h
648 29-11-2009 09:35:02 9.4 C 5.25 g/m*3 9.4 C 0 km/h
649 29-11-2009 09:47:02 9.5 C 5.37 g/m*3 9.5 C 0 km/h
650 29-11-2009 09:59:02 9.8 C 5.38 g/m*3 9.8 C 0 km/h
Sensor: Nr:Datum:Temp:Abs-Feuchte:Windchill:Wind:
Aussen-T/F 651 29-11-2009 10:11:02 10 C 5.45 g/m*3 10 C 0 km/h
652 29-11-2009 10:23:02 10.2 C 5.33 g/m*3 10.2 C 0 km/h
653 29-11-2009 10:35:01 10.5 C 5.33 g/m*3 10.5 C 0 km/h
654 29-11-2009 10:47:02 10.5 C 5.33 g/m*3 10.5 C 0 km/h
655 29-11-2009 10:59:02 11 C 5.41 g/m*3 11 C 0 km/h
656 29-11-2009 11:11:01 11.2 C 5.27 g/m*3 11.2 C 0 km/h
657 29-11-2009 11:23:02 11.3 C 5.2 g/m*3 11.3 C 0 km/h
658 29-11-2009 11:35:02 11.3 C 5.1 g/m*3 11.3 C 0 km/h
659 29-11-2009 11:47:02 11.5 C 5.16 g/m*3 11.5 C 0 km/h
660 29-11-2009 11:59:03 11.7 C 5.33 g/m*3 11.7 C 0 km/h
661 29-11-2009 12:11:02 11.9 C 5.3 g/m*3 11.9 C 0 km/h
662 29-11-2009 12:23:02 12.1 C 5.15 g/m*3 12.1 C 0 km/h
663 29-11-2009 12:35:02 12.5 C 5.17 g/m*3 12.5 C 0 km/h
664 29-11-2009 12:47:02 12.8 C 5.26 g/m*3 12.8 C 0 km/h
665 29-11-2009 12:59:02 13.2 C 5.28 g/m*3 13.2 C 0 km/h
666 29-11-2009 13:11:01 13.4 C 5.23 g/m*3 13.4 C 0 km/h
667 29-11-2009 13:23:01 13.7 C 5.33 g/m*3 13.7 C 0 km/h
668 29-11-2009 13:35:02 13.8 C 5.24 g/m*3 13.8 C 0 km/h
669 29-11-2009 13:47:02 13 C 5.67 g/m*3 13 C 0 km/h
670 29-11-2009 13:59:02 12.7 C 6.12 g/m*3 12.7 C 0 km/h
671 29-11-2009 14:11:02 11.7 C 6.48 g/m*3 11.7 C 0 km/h
672 29-11-2009 14:23:02 11 C 6.91 g/m*3 11 C 0 km/h
673 29-11-2009 14:35:02 10.8 C 7.12 g/m*3 10.8 C 0 km/h
674 29-11-2009 14:47:02 10.7 C 7.17 g/m*3 10.7 C 0 km/h
675 29-11-2009 14:59:02 10.5 C 7.18 g/m*3 10.5 C 0 km/h
Sensor: Nr:Datum:Temp:Abs-Feuchte:Windchill:Wind:
Aussen-T/F 676 29-11-2009 15:11:03 10.4 C 7.13 g/m*3 10.4 C 0 km/h
677 29-11-2009 15:23:02 10.3 C 7.28 g/m*3 10.3 C 0 km/h
678 29-11-2009 15:35:02 10.2 C 7.23 g/m*3 10.2 C 0 km/h
679 29-11-2009 15:47:01 9.9 C 7.28 g/m*3 9.9 C 0 km/h
680 29-11-2009 15:59:01 9.9 C 7.28 g/m*3 9.9 C 0 km/h
681 29-11-2009 16:11:02 9.9 C 7.19 g/m*3 9.9 C 0 km/h
682 29-11-2009 16:23:01 9.8 C 7.14 g/m*3 9.8 C 0 km/h
683 29-11-2009 16:35:02 9.7 C 7.19 g/m*3 9.7 C 0 km/h
684 29-11-2009 16:47:01 9.5 C 7.19 g/m*3 9.5 C 0 km/h
685 29-11-2009 16:59:01 9.5 C 7.28 g/m*3 9.5 C 0 km/h
686 29-11-2009 17:11:02 9.4 C 7.33 g/m*3 9.4 C 0 km/h
687 29-11-2009 17:23:01 9.3 C 7.37 g/m*3 9.3 C 0 km/h
688 29-11-2009 17:35:02 9.2 C 7.32 g/m*3 9.2 C 0 km/h
689 29-11-2009 17:47:01 9 C 7.23 g/m*3 9 C 0 km/h
690 29-11-2009 17:59:01 8.9 C 7.36 g/m*3 8.9 C 0 km/h
691 29-11-2009 18:11:02 8.7 C 7.26 g/m*3 8.7 C 0 km/h
692 29-11-2009 18:23:01 8.5 C 7.26 g/m*3 8.5 C 0 km/h
693 29-11-2009 18:35:02 8.4 C 7.3 g/m*3 8.4 C 0 km/h
694 29-11-2009 18:47:01 8.3 C 7.25 g/m*3 8.3 C 0 km/h
695 29-11-2009 18:59:01 8.2 C 7.29 g/m*3 8.2 C 0 km/h
696 29-11-2009 19:11:02 8.2 C 7.37 g/m*3 8.2 C 0 km/h
697 29-11-2009 19:23:02 8.2 C 7.37 g/m*3 8.2 C 0 km/h
698 29-11-2009 19:35:01 8.2 C 7.45 g/m*3 8.2 C 0 km/h
699 29-11-2009 19:47:02 8.1 C 7.41 g/m*3 8.1 C 0 km/h
700 29-11-2009 19:59:02 8.1 C 7.49 g/m*3 8.1 C 0 km/h
Sensor: Nr:Datum:Temp:Abs-Feuchte:Windchill:Wind:
Aussen-T/F 701 29-11-2009 20:11:01 8.1 C 7.49 g/m*3 8.1 C 0 km/h
702 29-11-2009 20:23:02 8.1 C 7.57 g/m*3 8.1 C 0 km/h
703 29-11-2009 20:35:01 8.1 C 7.57 g/m*3 8.1 C 0 km/h
704 29-11-2009 20:47:02 7.9 C 7.56 g/m*3 7.9 C 0 km/h
705 29-11-2009 20:59:02 7.8 C 7.51 g/m*3 7.8 C 0 km/h
706 29-11-2009 21:11:02 7.6 C 7.41 g/m*3 7.6 C 0 km/h
707 29-11-2009 21:23:01 7.6 C 7.41 g/m*3 7.6 C 0 km/h
708 29-11-2009 21:35:02 7.5 C 7.36 g/m*3 7.5 C 0 km/h
709 29-11-2009 21:47:01 7.4 C 7.4 g/m*3 7.4 C 0 km/h
710 29-11-2009 21:59:01 7.4 C 7.4 g/m*3 7.4 C 0 km/h
711 29-11-2009 22:11:02 7.3 C 7.35 g/m*3 7.3 C 0 km/h
712 29-11-2009 22:23:01 7.2 C 7.3 g/m*3 7.2 C 0 km/h
713 29-11-2009 22:36:02 7.1 C 7.25 g/m*3 7.1 C 0 km/h
714 29-11-2009 22:48:02 7.1 C 7.33 g/m*3 7.1 C 0 km/h
715 29-11-2009 23:00:02 7.1 C 7.33 g/m*3 7.1 C 0 km/h
716 29-11-2009 23:12:02 7.1 C 7.33 g/m*3 7.1 C 0 km/h
717 29-11-2009 23:24:02 7 C 7.28 g/m*3 7 C 0 km/h
718 29-11-2009 23:36:03 7 C 7.28 g/m*3 7 C 0 km/h
719 29-11-2009 23:48:03 7 C 7.28 g/m*3 7 C 0 km/h
720 30-11-2009 00:00:03 6.9 C 7.31 g/m*3 6.9 C 0 km/h
721 30-11-2009 00:12:03 6.9 C 7.31 g/m*3 6.9 C 0 km/h
722 30-11-2009 00:24:03 6.7 C 7.22 g/m*3 6.7 C 0 km/h
723 30-11-2009 00:36:03 6.5 C 7.12 g/m*3 6.5 C 0 km/h
724 30-11-2009 00:48:03 6.4 C 7.08 g/m*3 6.4 C 0 km/h
725 30-11-2009 01:00:03 6.4 C 7.08 g/m*3 6.4 C 0 km/h
Sensor: Nr:Datum:Temp:Abs-Feuchte:Windchill:Wind:
Aussen-T/F 726 30-11-2009 01:12:03 6.4 C 7.08 g/m*3 6.4 C 0 km/h
727 30-11-2009 01:24:03 6.4 C 7.08 g/m*3 6.4 C 0 km/h
728 30-11-2009 01:36:03 6.4 C 7.08 g/m*3 6.4 C 0 km/h
729 30-11-2009 01:48:03 6.3 C 7.03 g/m*3 6.3 C 0 km/h
730 30-11-2009 02:00:03 6.2 C 6.99 g/m*3 6.2 C 0 km/h
731 30-11-2009 02:12:03 6.2 C 6.99 g/m*3 6.2 C 0 km/h
732 30-11-2009 02:24:03 6.3 C 7.03 g/m*3 6.3 C 0 km/h
733 30-11-2009 02:36:03 6.3 C 7.03 g/m*3 6.3 C 0 km/h
734 30-11-2009 02:48:03 6.2 C 6.99 g/m*3 6.2 C 0 km/h
735 30-11-2009 03:00:03 6.2 C 6.91 g/m*3 6.2 C 0 km/h
736 30-11-2009 03:12:03 6.1 C 6.87 g/m*3 6.1 C 0 km/h
737 30-11-2009 03:24:04 6.2 C 6.84 g/m*3 6.2 C 0 km/h
738 30-11-2009 03:36:04 6.2 C 6.77 g/m*3 6.2 C 0 km/h
739 30-11-2009 03:48:04 6.2 C 6.69 g/m*3 6.2 C 0 km/h
740 30-11-2009 04:00:04 6.2 C 6.69 g/m*3 6.2 C 0 km/h
741 30-11-2009 04:12:04 6.2 C 6.62 g/m*3 6.2 C 0 km/h
742 30-11-2009 04:24:04 6.2 C 6.62 g/m*3 6.2 C 0 km/h
743 30-11-2009 04:36:04 6.2 C 6.62 g/m*3 6.2 C 0 km/h
744 30-11-2009 04:48:04 6.3 C 6.66 g/m*3 6.3 C 0 km/h
745 30-11-2009 05:00:04 6.3 C 6.66 g/m*3 6.3 C 0 km/h
746 30-11-2009 05:12:04 6.4 C 6.71 g/m*3 6.4 C 0 km/h
747 30-11-2009 05:24:04 6.3 C 6.59 g/m*3 6.3 C 0 km/h
748 30-11-2009 05:36:04 6.3 C 6.66 g/m*3 6.3 C 0 km/h
749 30-11-2009 05:48:04 6.4 C 6.71 g/m*3 6.4 C 0 km/h
750 30-11-2009 06:00:04 6.4 C 6.71 g/m*3 6.4 C 0 km/h
Sensor: Nr:Datum:Temp:Abs-Feuchte:Windchill:Wind:
Aussen-T/F 751 30-11-2009 06:12:04 6.4 C 6.71 g/m*3 6.4 C 0 km/h
752 30-11-2009 06:24:04 6.2 C 6.55 g/m*3 6.2 C 0 km/h
753 30-11-2009 06:36:04 6.2 C 6.55 g/m*3 6.2 C 0 km/h
754 30-11-2009 06:48:04 6.1 C 6.5 g/m*3 6.1 C 0 km/h
755 30-11-2009 07:00:04 6 C 6.39 g/m*3 6 C 0 km/h
756 30-11-2009 07:12:02 6 C 6.39 g/m*3 6 C 0 km/h
757 30-11-2009 07:24:02 6 C 6.31 g/m*3 6 C 0 km/h
758 30-11-2009 07:36:02 5.9 C 6.42 g/m*3 5.9 C 0 km/h
759 30-11-2009 07:48:02 5.9 C 6.42 g/m*3 5.9 C 0 km/h
760 30-11-2009 08:00:02 5.8 C 6.45 g/m*3 5.8 C 0 km/h
761 30-11-2009 08:12:01 5.8 C 6.45 g/m*3 5.8 C 0 km/h
762 30-11-2009 08:24:01 5.6 C 6.29 g/m*3 5.6 C 0 km/h
763 30-11-2009 08:36:02 5.5 C 6.32 g/m*3 5.5 C 0 km/h
764 30-11-2009 08:48:02 5.6 C 6.36 g/m*3 5.6 C 0 km/h
765 30-11-2009 09:00:02 5.9 C 6.56 g/m*3 5.9 C 0 km/h
766 30-11-2009 09:12:02 6 C 6.53 g/m*3 6 C 0 km/h
767 30-11-2009 09:24:02 6.2 C 6.55 g/m*3 6.2 C 0 km/h
768 30-11-2009 09:36:02 6.3 C 6.59 g/m*3 6.3 C 0 km/h
769 30-11-2009 09:48:03 6.4 C 6.63 g/m*3 6.4 C 0 km/h
770 30-11-2009 10:00:03 6.4 C 6.56 g/m*3 6.4 C 0 km/h
771 30-11-2009 10:12:02 6.5 C 6.37 g/m*3 6.5 C 0 km/h
772 30-11-2009 10:24:02 6.7 C 6.38 g/m*3 6.7 C 0 km/h
773 30-11-2009 10:36:02 7 C 6.43 g/m*3 7 C 0 km/h
774 30-11-2009 10:48:02 7.1 C 6.47 g/m*3 7.1 C 0 km/h
775 30-11-2009 11:00:02 7.3 C 6.4 g/m*3 7.3 C 0 km/h
Sensor: Nr:Datum:Temp:Abs-Feuchte:Windchill:Wind:
Aussen-T/F 776 30-11-2009 11:12:02 7.4 C 6.28 g/m*3 7.4 C 0 km/h
777 30-11-2009 11:24:02 7.3 C 6.08 g/m*3 7.3 C 0 km/h
778 30-11-2009 11:36:01 7.4 C 6.12 g/m*3 7.4 C 0 km/h
779 30-11-2009 11:48:02 7.5 C 6.16 g/m*3 7.5 C 0 km/h
780 30-11-2009 12:00:02 7.6 C 6.12 g/m*3 7.6 C 0 km/h
781 30-11-2009 12:12:01 7.6 C 6.04 g/m*3 7.6 C 0 km/h
782 30-11-2009 12:24:02 7.8 C 6.04 g/m*3 7.8 C 0 km/h
783 30-11-2009 12:36:01 8 C 6.04 g/m*3 8 C 0 km/h
784 30-11-2009 12:48:02 8 C 5.87 g/m*3 8 C 0 km/h
785 30-11-2009 13:00:02 7.9 C 5.91 g/m*3 7.9 C 0 km/h
786 30-11-2009 13:12:02 8.2 C 5.95 g/m*3 8.2 C 0 km/h
787 30-11-2009 13:24:02 8.1 C 5.82 g/m*3 8.1 C 0 km/h
788 30-11-2009 13:36:03 8.1 C 5.74 g/m*3 8.1 C 0 km/h
789 30-11-2009 13:48:02 8.2 C 5.69 g/m*3 8.2 C 0 km/h
790 30-11-2009 14:00:02 8.3 C 5.65 g/m*3 8.3 C 0 km/h
791 30-11-2009 14:12:01 8.4 C 5.68 g/m*3 8.4 C 0 km/h
792 30-11-2009 14:24:02 8.3 C 5.65 g/m*3 8.3 C 0 km/h
793 30-11-2009 14:36:02 8.3 C 5.73 g/m*3 8.3 C 0 km/h
794 30-11-2009 14:48:02 8.3 C 5.65 g/m*3 8.3 C 0 km/h
795 30-11-2009 15:00:02 8.1 C 5.66 g/m*3 8.1 C 0 km/h
796 30-11-2009 15:12:03 8 C 5.7 g/m*3 8 C 0 km/h
797 30-11-2009 15:24:02 7.9 C 5.75 g/m*3 7.9 C 0 km/h
798 30-11-2009 15:36:02 7.8 C 5.88 g/m*3 7.8 C 0 km/h
799 30-11-2009 15:48:01 7.6 C 5.8 g/m*3 7.6 C 0 km/h
800 30-11-2009 16:00:01 7.3 C 5.77 g/m*3 7.3 C 0 km/h
Sensor: Nr:Datum:Temp:Abs-Feuchte:Windchill:Wind:
Aussen-T/F 801 30-11-2009 16:12:02 7 C 5.81 g/m*3 7 C 0 km/h
802 30-11-2009 16:24:01 6.6 C 5.89 g/m*3 6.6 C 0 km/h
803 30-11-2009 16:36:02 6.3 C 5.85 g/m*3 6.3 C 0 km/h
804 30-11-2009 16:48:02 6.1 C 5.84 g/m*3 6.1 C 0 km/h
805 30-11-2009 17:00:02 6 C 5.88 g/m*3 6 C 0 km/h
806 30-11-2009 17:12:02 5.9 C 5.91 g/m*3 5.9 C 0 km/h
807 30-11-2009 17:24:01 6 C 5.95 g/m*3 6 C 0 km/h
808 30-11-2009 17:36:02 6 C 5.95 g/m*3 6 C 0 km/h
809 30-11-2009 17:48:02 6 C 5.95 g/m*3 6 C 0 km/h
810 30-11-2009 18:00:02 6 C 6.02 g/m*3 6 C 0 km/h
811 30-11-2009 18:12:02 6 C 6.02 g/m*3 6 C 0 km/h
812 30-11-2009 18:24:01 5.9 C 6.06 g/m*3 5.9 C 0 km/h
813 30-11-2009 18:36:02 6 C 6.02 g/m*3 6 C 0 km/h
814 30-11-2009 18:48:02 6.1 C 6.06 g/m*3 6.1 C 0 km/h
815 30-11-2009 19:00:02 6 C 6.02 g/m*3 6 C 0 km/h
816 30-11-2009 19:12:02 6 C 6.02 g/m*3 6 C 0 km/h
817 30-11-2009 19:24:01 5.9 C 6.06 g/m*3 5.9 C 0 km/h
818 30-11-2009 19:36:02 5.9 C 6.13 g/m*3 5.9 C 0 km/h
819 30-11-2009 19:48:01 5.9 C 6.13 g/m*3 5.9 C 0 km/h
820 30-11-2009 20:00:01 5.9 C 6.13 g/m*3 5.9 C 0 km/h
821 30-11-2009 20:12:02 5.9 C 6.13 g/m*3 5.9 C 0 km/h
822 30-11-2009 20:24:02 5.9 C 6.13 g/m*3 5.9 C 0 km/h
823 30-11-2009 20:36:02 5.9 C 6.13 g/m*3 5.9 C 0 km/h
824 30-11-2009 20:48:02 5.7 C 6.05 g/m*3 5.7 C 0 km/h
825 30-11-2009 21:00:02 5.7 C 6.05 g/m*3 5.7 C 0 km/h
Sensor: Nr:Datum:Temp:Abs-Feuchte:Windchill:Wind:
Aussen-T/F 826 30-11-2009 21:12:02 5.6 C 6.01 g/m*3 5.6 C 0 km/h
827 30-11-2009 21:24:02 5.6 C 6.08 g/m*3 5.6 C 0 km/h
828 30-11-2009 21:36:01 5.5 C 6.04 g/m*3 5.5 C 0 km/h
829 30-11-2009 21:48:02 5.5 C 6.04 g/m*3 5.5 C 0 km/h
830 30-11-2009 22:00:02 5.4 C 6 g/m*3 5.4 C 0 km/h
831 30-11-2009 22:12:02 5.4 C 6 g/m*3 5.4 C 0 km/h
832 30-11-2009 22:24:02 5.3 C 6.03 g/m*3 5.3 C 0 km/h
833 30-11-2009 22:36:01 5.3 C 6.03 g/m*3 5.3 C 0 km/h
834 30-11-2009 22:48:01 5.2 C 5.99 g/m*3 5.2 C 0 km/h
835 30-11-2009 23:00:01 5.2 C 5.99 g/m*3 5.2 C 0 km/h
836 30-11-2009 23:12:01 5.4 C 6.07 g/m*3 5.4 C 0 km/h
837 30-11-2009 23:24:02 5.5 C 6.11 g/m*3 5.5 C 0 km/h
838 30-11-2009 23:36:01 5.4 C 6.07 g/m*3 5.4 C 0 km/h
839 30-11-2009 23:48:02 5.5 C 6.18 g/m*3 5.5 C 0 km/h
840 01-12-2009 00:00:02 5.5 C 6.18 g/m*3 5.5 C 0 km/h
841 01-12-2009 00:12:01 5.6 C 6.15 g/m*3 5.6 C 0 km/h
842 01-12-2009 00:24:01 5.6 C 6.15 g/m*3 5.6 C 0 km/h
843 01-12-2009 00:36:02 5.6 C 6.15 g/m*3 5.6 C 0 km/h
844 01-12-2009 00:48:02 5.6 C 6.15 g/m*3 5.6 C 0 km/h
845 01-12-2009 01:00:02 5.5 C 6.11 g/m*3 5.5 C 0 km/h
846 01-12-2009 01:12:02 5.5 C 6.11 g/m*3 5.5 C 0 km/h
847 01-12-2009 01:24:02 5.5 C 6.11 g/m*3 5.5 C 0 km/h
848 01-12-2009 01:36:02 5.5 C 6.11 g/m*3 5.5 C 0 km/h
849 01-12-2009 01:48:02 5.4 C 6.07 g/m*3 5.4 C 0 km/h
850 01-12-2009 02:00:02 5.4 C 6.14 g/m*3 5.4 C 0 km/h
Sensor: Nr:Datum:Temp:Abs-Feuchte:Windchill:Wind:
Aussen-T/F 851 01-12-2009 02:12:02 5.4 C 6.14 g/m*3 5.4 C 0 km/h
852 01-12-2009 02:24:02 5.4 C 6.14 g/m*3 5.4 C 0 km/h
853 01-12-2009 02:36:02 5.4 C 6.07 g/m*3 5.4 C 0 km/h
854 01-12-2009 02:48:01 5.4 C 6.07 g/m*3 5.4 C 0 km/h
855 01-12-2009 03:00:01 5.3 C 6.03 g/m*3 5.3 C 0 km/h
856 01-12-2009 03:12:01 5.3 C 5.96 g/m*3 5.3 C 0 km/h
857 01-12-2009 03:24:02 5.3 C 5.89 g/m*3 5.3 C 0 km/h
858 01-12-2009 03:36:01 5.3 C 5.89 g/m*3 5.3 C 0 km/h
859 01-12-2009 03:48:01 5.2 C 5.78 g/m*3 5.2 C 0 km/h
860 01-12-2009 04:00:01 5 C 5.71 g/m*3 5 C 0 km/h
861 01-12-2009 04:12:02 4.9 C 5.81 g/m*3 4.9 C 0 km/h
862 01-12-2009 04:24:01 4.8 C 5.77 g/m*3 4.8 C 0 km/h
863 01-12-2009 04:36:01 4.7 C 5.73 g/m*3 4.7 C 0 km/h
864 01-12-2009 04:48:01 4.7 C 5.73 g/m*3 4.7 C 0 km/h
865 01-12-2009 05:00:01 4.9 C 5.87 g/m*3 4.9 C 0 km/h
866 01-12-2009 05:12:02 4.9 C 5.94 g/m*3 4.9 C 0 km/h
867 01-12-2009 05:24:01 5 C 5.91 g/m*3 5 C 0 km/h
868 01-12-2009 05:36:01 5 C 5.91 g/m*3 5 C 0 km/h
869 01-12-2009 05:48:01 5 C 5.91 g/m*3 5 C 0 km/h
870 01-12-2009 06:00:01 5.1 C 5.95 g/m*3 5.1 C 0 km/h
871 01-12-2009 06:12:01 5.1 C 5.95 g/m*3 5.1 C 0 km/h
872 01-12-2009 06:24:02 5.1 C 5.95 g/m*3 5.1 C 0 km/h
873 01-12-2009 06:36:01 5 C 5.91 g/m*3 5 C 0 km/h
874 01-12-2009 06:48:02 5 C 5.91 g/m*3 5 C 0 km/h
875 01-12-2009 07:00:02 5 C 5.91 g/m*3 5 C 0 km/h
Sensor: Nr:Datum:Temp:Abs-Feuchte:Windchill:Wind:
Aussen-T/F 876 01-12-2009 07:12:01 5 C 5.98 g/m*3 5 C 0 km/h
877 01-12-2009 07:24:02 5 C 5.98 g/m*3 5 C 0 km/h
878 01-12-2009 07:36:01 5 C 5.98 g/m*3 5 C 0 km/h
879 01-12-2009 07:48:02 4.9 C 5.94 g/m*3 4.9 C 0 km/h
880 01-12-2009 08:00:02 4.8 C 5.9 g/m*3 4.8 C 0 km/h
881 01-12-2009 08:12:01 4.8 C 5.9 g/m*3 4.8 C 0 km/h
882 01-12-2009 08:24:01 4.8 C 5.97 g/m*3 4.8 C 0 km/h
883 01-12-2009 08:36:01 4.9 C 6.01 g/m*3 4.9 C 0 km/h
884 01-12-2009 08:48:02 4.9 C 6.01 g/m*3 4.9 C 0 km/h
885 01-12-2009 09:00:02 5 C 5.98 g/m*3 5 C 0 km/h
886 01-12-2009 09:12:01 5.1 C 6.02 g/m*3 5.1 C 0 km/h
887 01-12-2009 09:24:01 5.2 C 6.06 g/m*3 5.2 C 0 km/h
888 01-12-2009 09:36:02 5.3 C 6.1 g/m*3 5.3 C 0 km/h
889 01-12-2009 09:48:01 5.4 C 6.14 g/m*3 5.4 C 0 km/h
890 01-12-2009 10:00:01 5.5 C 6.11 g/m*3 5.5 C 0 km/h
891 01-12-2009 10:12:02 5.6 C 6.15 g/m*3 5.6 C 0 km/h
892 01-12-2009 10:24:01 5.7 C 6.12 g/m*3 5.7 C 0 km/h
893 01-12-2009 10:36:02 5.7 C 6.12 g/m*3 5.7 C 0 km/h
894 01-12-2009 10:48:01 5.8 C 6.09 g/m*3 5.8 C 0 km/h
895 01-12-2009 11:00:01 6.1 C 6.06 g/m*3 6.1 C 0 km/h
896 01-12-2009 11:12:02 6.3 C 6.07 g/m*3 6.3 C 0 km/h
897 01-12-2009 11:24:01 6.3 C 6 g/m*3 6.3 C 0 km/h
898 01-12-2009 11:36:01 6.4 C 6.04 g/m*3 6.4 C 0 km/h
899 01-12-2009 11:48:01 6.6 C 5.96 g/m*3 6.6 C 0 km/h
900 01-12-2009 12:00:01 6.7 C 5.85 g/m*3 6.7 C 0 km/h
Sensor: Nr:Datum:Temp:Abs-Feuchte:Windchill:Wind:
Aussen-T/F 901 01-12-2009 12:12:01 6.8 C 5.89 g/m*3 6.8 C 0 km/h
902 01-12-2009 12:24:01 6.8 C 5.81 g/m*3 6.8 C 0 km/h
903 01-12-2009 12:36:01 6.9 C 5.85 g/m*3 6.9 C 0 km/h
904 01-12-2009 12:48:01 6.9 C 5.77 g/m*3 6.9 C 0 km/h
905 01-12-2009 13:00:01 6.9 C 5.77 g/m*3 6.9 C 0 km/h
906 01-12-2009 13:12:01 6.9 C 5.77 g/m*3 6.9 C 0 km/h
907 01-12-2009 13:24:02 6.9 C 5.77 g/m*3 6.9 C 0 km/h
908 01-12-2009 13:36:01 6.9 C 5.7 g/m*3 6.9 C 0 km/h
909 01-12-2009 13:48:02 6.9 C 5.77 g/m*3 6.9 C 0 km/h
910 01-12-2009 14:00:02 6.8 C 5.74 g/m*3 6.8 C 0 km/h
911 01-12-2009 14:12:01 6.8 C 5.81 g/m*3 6.8 C 0 km/h
912 01-12-2009 14:24:02 6.8 C 5.74 g/m*3 6.8 C 0 km/h
913 01-12-2009 14:36:01 6.8 C 5.81 g/m*3 6.8 C 0 km/h
914 01-12-2009 14:48:02 6.8 C 5.81 g/m*3 6.8 C 0 km/h
915 01-12-2009 15:00:02 6.7 C 5.85 g/m*3 6.7 C 0 km/h
916 01-12-2009 15:12:01 6.6 C 5.89 g/m*3 6.6 C 0 km/h
917 01-12-2009 15:24:01 6.6 C 5.89 g/m*3 6.6 C 0 km/h
918 01-12-2009 15:36:01 6.5 C 5.85 g/m*3 6.5 C 0 km/h
919 01-12-2009 15:48:02 6.5 C 5.85 g/m*3 6.5 C 0 km/h
920 01-12-2009 16:00:02 6.4 C 5.81 g/m*3 6.4 C 0 km/h
921 01-12-2009 16:12:01 6.3 C 5.85 g/m*3 6.3 C 0 km/h
922 01-12-2009 16:24:01 6.2 C 5.81 g/m*3 6.2 C 0 km/h
923 01-12-2009 16:36:02 6.1 C 5.77 g/m*3 6.1 C 0 km/h
924 01-12-2009 16:48:01 6 C 5.81 g/m*3 6 C 0 km/h
925 01-12-2009 17:00:01 5.9 C 5.84 g/m*3 5.9 C 0 km/h
Sensor: Nr:Datum:Temp:Abs-Feuchte:Windchill:Wind:
Aussen-T/F 926 01-12-2009 17:12:02 5.9 C 5.84 g/m*3 5.9 C 0 km/h
927 01-12-2009 17:24:01 5.9 C 5.84 g/m*3 5.9 C 0 km/h
928 01-12-2009 17:36:02 5.8 C 5.87 g/m*3 5.8 C 0 km/h
929 01-12-2009 17:48:01 5.8 C 5.87 g/m*3 5.8 C 0 km/h
930 01-12-2009 18:00:01 5.8 C 5.87 g/m*3 5.8 C 0 km/h
931 01-12-2009 18:12:02 5.7 C 5.91 g/m*3 5.7 C 0 km/h
932 01-12-2009 18:24:01 5.8 C 5.95 g/m*3 5.8 C 0 km/h
933 01-12-2009 18:36:02 5.7 C 5.91 g/m*3 5.7 C 0 km/h
934 01-12-2009 18:48:02 5.7 C 5.91 g/m*3 5.7 C 0 km/h
935 01-12-2009 19:00:02 5.7 C 5.91 g/m*3 5.7 C 0 km/h
936 01-12-2009 19:12:01 5.6 C 5.87 g/m*3 5.6 C 0 km/h
937 01-12-2009 19:24:02 5.6 C 5.87 g/m*3 5.6 C 0 km/h
938 01-12-2009 19:36:01 5.6 C 5.87 g/m*3 5.6 C 0 km/h
939 01-12-2009 19:48:02 5.7 C 5.91 g/m*3 5.7 C 0 km/h
940 01-12-2009 20:00:02 5.6 C 5.87 g/m*3 5.6 C 0 km/h
941 01-12-2009 20:12:01 5.6 C 5.87 g/m*3 5.6 C 0 km/h
942 01-12-2009 20:24:02 5.5 C 5.83 g/m*3 5.5 C 0 km/h
943 01-12-2009 20:36:01 5.5 C 5.83 g/m*3 5.5 C 0 km/h
944 01-12-2009 20:48:02 5.5 C 5.83 g/m*3 5.5 C 0 km/h
945 01-12-2009 21:00:02 5.5 C 5.9 g/m*3 5.5 C 0 km/h
946 01-12-2009 21:12:01 5.5 C 5.9 g/m*3 5.5 C 0 km/h
947 01-12-2009 21:24:01 5.4 C 5.86 g/m*3 5.4 C 0 km/h
948 01-12-2009 21:36:02 5.4 C 5.86 g/m*3 5.4 C 0 km/h
949 01-12-2009 21:48:01 5.4 C 5.93 g/m*3 5.4 C 0 km/h
950 01-12-2009 22:00:01 5.6 C 6.01 g/m*3 5.6 C 0 km/h
Sensor: Nr:Datum:Temp:Abs-Feuchte:Windchill:Wind:
Aussen-T/F 951 01-12-2009 22:12:02 5.5 C 5.97 g/m*3 5.5 C 0 km/h
952 01-12-2009 22:25:05 5.4 C 5.93 g/m*3 5.4 C 0 km/h
953 01-12-2009 22:37:05 5.3 C 5.89 g/m*3 5.3 C 0 km/h
954 01-12-2009 22:49:05 5.3 C 5.89 g/m*3 5.3 C 0 km/h
955 01-12-2009 23:01:05 5.2 C 5.78 g/m*3 5.2 C 0 km/h
956 01-12-2009 23:13:05 5.2 C 5.78 g/m*3 5.2 C 0 km/h
957 01-12-2009 23:25:05 5.2 C 5.78 g/m*3 5.2 C 0 km/h
958 01-12-2009 23:37:05 5.2 C 5.78 g/m*3 5.2 C 0 km/h
959 01-12-2009 23:49:05 5.2 C 5.71 g/m*3 5.2 C 0 km/h
960 02-12-2009 00:01:06 5.2 C 5.65 g/m*3 5.2 C 0 km/h
961 02-12-2009 00:13:06 5.2 C 5.65 g/m*3 5.2 C 0 km/h
962 02-12-2009 00:25:06 5.2 C 5.58 g/m*3 5.2 C 0 km/h
963 02-12-2009 00:37:06 5.2 C 5.58 g/m*3 5.2 C 0 km/h
964 02-12-2009 00:49:06 5 C 5.44 g/m*3 5 C 0 km/h
965 02-12-2009 01:01:06 4.8 C 5.43 g/m*3 4.8 C 0 km/h
966 02-12-2009 01:13:06 4.7 C 5.46 g/m*3 4.7 C 0 km/h
967 02-12-2009 01:25:06 4.6 C 5.49 g/m*3 4.6 C 0 km/h
968 02-12-2009 01:37:06 4.5 C 5.52 g/m*3 4.5 C 0 km/h
969 02-12-2009 01:49:06 4.3 C 5.45 g/m*3 4.3 C 0 km/h
970 02-12-2009 02:01:06 4.4 C 5.55 g/m*3 4.4 C 0 km/h
971 02-12-2009 02:13:06 4.6 C 5.62 g/m*3 4.6 C 0 km/h
972 02-12-2009 02:25:06 4.7 C 5.66 g/m*3 4.7 C 0 km/h
973 02-12-2009 02:37:06 4.7 C 5.66 g/m*3 4.7 C 0 km/h
974 02-12-2009 02:49:06 4.8 C 5.77 g/m*3 4.8 C 0 km/h
975 02-12-2009 03:01:06 4.9 C 5.81 g/m*3 4.9 C 0 km/h
Sensor: Nr:Datum:Temp:Abs-Feuchte:Windchill:Wind:
Aussen-T/F 976 02-12-2009 03:13:06 4.7 C 5.73 g/m*3 4.7 C 0 km/h
977 02-12-2009 03:25:06 4.7 C 5.8 g/m*3 4.7 C 0 km/h
978 02-12-2009 03:37:06 4.8 C 5.83 g/m*3 4.8 C 0 km/h
979 02-12-2009 03:49:06 5 C 5.84 g/m*3 5 C 0 km/h
980 02-12-2009 04:01:07 4.9 C 5.87 g/m*3 4.9 C 0 km/h
981 02-12-2009 04:13:07 4.9 C 5.87 g/m*3 4.9 C 0 km/h
982 02-12-2009 04:25:07 4.9 C 5.87 g/m*3 4.9 C 0 km/h
983 02-12-2009 04:37:07 4.9 C 5.94 g/m*3 4.9 C 0 km/h
984 02-12-2009 04:49:07 5 C 5.91 g/m*3 5 C 0 km/h
985 02-12-2009 05:01:07 5 C 5.91 g/m*3 5 C 0 km/h
986 02-12-2009 05:13:07 5 C 5.91 g/m*3 5 C 0 km/h
987 02-12-2009 05:25:07 4.8 C 5.83 g/m*3 4.8 C 0 km/h
988 02-12-2009 05:37:07 4.8 C 5.83 g/m*3 4.8 C 0 km/h
989 02-12-2009 05:49:07 4.8 C 5.83 g/m*3 4.8 C 0 km/h
990 02-12-2009 06:01:05 4.8 C 5.83 g/m*3 4.8 C 0 km/h
991 02-12-2009 06:13:05 5 C 5.91 g/m*3 5 C 0 km/h
992 02-12-2009 06:25:05 4.9 C 5.87 g/m*3 4.9 C 0 km/h
993 02-12-2009 06:37:05 5 C 5.91 g/m*3 5 C 0 km/h
994 02-12-2009 06:49:01 5 C 5.91 g/m*3 5 C 0 km/h
995 02-12-2009 07:01:02 4.9 C 5.94 g/m*3 4.9 C 0 km/h
996 02-12-2009 07:13:02 5 C 5.91 g/m*3 5 C 0 km/h
997 02-12-2009 07:25:01 5.1 C 5.95 g/m*3 5.1 C 0 km/h
998 02-12-2009 07:37:01 5.2 C 5.99 g/m*3 5.2 C 0 km/h
999 02-12-2009 07:49:01 5.2 C 5.99 g/m*3 5.2 C 0 km/h
1000 02-12-2009 08:01:01 4.8 C 5.83 g/m*3 4.8 C 0 km/h
Sensor: Nr:Datum:Temp:Abs-Feuchte:Windchill:Wind:
Aussen-T/F 1001 02-12-2009 08:13:01 4.8 C 5.83 g/m*3 4.8 C 0 km/h
1002 02-12-2009 08:25:02 4.6 C 5.82 g/m*3 4.6 C 0 km/h
1003 02-12-2009 08:37:01 4.7 C 5.86 g/m*3 4.7 C 0 km/h
1004 02-12-2009 08:49:02 4.7 C 5.8 g/m*3 4.7 C 0 km/h
1005 02-12-2009 09:01:01 4.6 C 5.76 g/m*3 4.6 C 0 km/h
1006 02-12-2009 09:13:01 4.6 C 5.76 g/m*3 4.6 C 0 km/h
1007 02-12-2009 09:25:02 4.5 C 5.65 g/m*3 4.5 C 0 km/h
1008 02-12-2009 09:37:01 4.5 C 5.65 g/m*3 4.5 C 0 km/h
1009 02-12-2009 09:49:02 4.5 C 5.65 g/m*3 4.5 C 0 km/h
1010 02-12-2009 10:01:02 4.7 C 5.66 g/m*3 4.7 C 0 km/h
1011 02-12-2009 10:13:02 4.9 C 5.54 g/m*3 4.9 C 0 km/h
1012 02-12-2009 10:25:02 5.2 C 5.23 g/m*3 5.2 C 0 km/h
1013 02-12-2009 10:37:02 5.2 C 5.1 g/m*3 5.2 C 0 km/h
1014 02-12-2009 10:49:02 5.2 C 5.03 g/m*3 5.2 C 0 km/h
1015 02-12-2009 11:01:01 5.3 C 4.99 g/m*3 5.3 C 0 km/h
1016 02-12-2009 11:13:01 5.5 C 5.06 g/m*3 5.5 C 0 km/h
1017 02-12-2009 11:25:02 5.8 C 4.8 g/m*3 5.8 C 0 km/h
1018 02-12-2009 11:37:02 5.7 C 4.84 g/m*3 5.7 C 0 km/h
1019 02-12-2009 11:49:02 5.9 C 4.61 g/m*3 5.9 C 0 km/h
1020 02-12-2009 12:01:02 6.2 C 4.41 g/m*3 6.2 C 0 km/h
1021 02-12-2009 12:13:02 6.8 C 4.44 g/m*3 6.8 C 0 km/h
1022 02-12-2009 12:25:02 7.2 C 4.32 g/m*3 7.2 C 0 km/h
1023 02-12-2009 12:37:03 7.5 C 4.4 g/m*3 7.5 C 0 km/h
1024 02-12-2009 12:49:02 7.6 C 4.27 g/m*3 7.6 C 0 km/h
1025 02-12-2009 13:01:02 7.6 C 4.27 g/m*3 7.6 C 0 km/h
Sensor: Nr:Datum:Temp:Abs-Feuchte:Windchill:Wind:
Aussen-T/F 1026 02-12-2009 13:13:02 7.7 C 4.3 g/m*3 7.7 C 0 km/h
1027 02-12-2009 13:25:02 7.7 C 4.22 g/m*3 7.7 C 0 km/h
1028 02-12-2009 13:37:02 7.9 C 4.35 g/m*3 7.9 C 0 km/h
1029 02-12-2009 13:49:02 7.8 C 4.24 g/m*3 7.8 C 0 km/h
1030 02-12-2009 14:01:02 8 C 4.38 g/m*3 8 C 0 km/h
1031 02-12-2009 14:13:02 8 C 4.3 g/m*3 8 C 0 km/h
1032 02-12-2009 14:25:02 7.8 C 4.24 g/m*3 7.8 C 0 km/h
1033 02-12-2009 14:37:02 7.8 C 4.33 g/m*3 7.8 C 0 km/h
1034 02-12-2009 14:49:02 7.8 C 4.33 g/m*3 7.8 C 0 km/h
1035 02-12-2009 15:01:02 7.7 C 4.3 g/m*3 7.7 C 0 km/h
1036 02-12-2009 15:13:02 7.7 C 4.38 g/m*3 7.7 C 0 km/h
1037 02-12-2009 15:25:02 7.6 C 4.27 g/m*3 7.6 C 0 km/h
1038 02-12-2009 15:37:02 7.6 C 4.19 g/m*3 7.6 C 0 km/h
1039 02-12-2009 15:49:02 7.5 C 4.24 g/m*3 7.5 C 0 km/h
1040 02-12-2009 16:01:02 7.4 C 4.21 g/m*3 7.4 C 0 km/h
1041 02-12-2009 16:13:02 7.3 C 4.19 g/m*3 7.3 C 0 km/h
1042 02-12-2009 16:25:02 7 C 4.26 g/m*3 7 C 0 km/h
1043 02-12-2009 16:37:02 6.9 C 4.39 g/m*3 6.9 C 0 km/h
1044 02-12-2009 16:49:02 6.8 C 4.44 g/m*3 6.8 C 0 km/h
1045 02-12-2009 17:01:02 6.9 C 4.46 g/m*3 6.9 C 0 km/h
1046 02-12-2009 17:13:02 6.8 C 4.51 g/m*3 6.8 C 0 km/h
1047 02-12-2009 17:25:03 6.6 C 4.53 g/m*3 6.6 C 0 km/h
1048 02-12-2009 17:37:02 6.5 C 4.5 g/m*3 6.5 C 0 km/h
1049 02-12-2009 17:49:02 6.5 C 4.57 g/m*3 6.5 C 0 km/h
1050 02-12-2009 18:01:02 6.5 C 4.65 g/m*3 6.5 C 0 km/h
Sensor: Nr:Datum:Temp:Abs-Feuchte:Windchill:Wind:
Aussen-T/F 1051 02-12-2009 18:13:02 6.5 C 4.65 g/m*3 6.5 C 0 km/h
1052 02-12-2009 18:25:02 6.4 C 4.62 g/m*3 6.4 C 0 km/h
1053 02-12-2009 18:37:02 6.5 C 4.65 g/m*3 6.5 C 0 km/h
1054 02-12-2009 18:49:02 6.4 C 4.69 g/m*3 6.4 C 0 km/h
1055 02-12-2009 19:01:01 6.4 C 4.77 g/m*3 6.4 C 0 km/h
1056 02-12-2009 19:13:01 6.5 C 4.8 g/m*3 6.5 C 0 km/h
1057 02-12-2009 19:25:02 6.7 C 4.79 g/m*3 6.7 C 0 km/h
1058 02-12-2009 19:37:01 6.6 C 4.83 g/m*3 6.6 C 0 km/h
1059 02-12-2009 19:49:02 6.6 C 4.98 g/m*3 6.6 C 0 km/h
1060 02-12-2009 20:01:01 6.4 C 4.99 g/m*3 6.4 C 0 km/h
1061 02-12-2009 20:13:01 6.5 C 5.02 g/m*3 6.5 C 0 km/h
1062 02-12-2009 20:25:01 6.6 C 5.06 g/m*3 6.6 C 0 km/h
1063 02-12-2009 20:37:02 6.6 C 5.06 g/m*3 6.6 C 0 km/h
1064 02-12-2009 20:49:02 6.7 C 5.09 g/m*3 6.7 C 0 km/h
1065 02-12-2009 21:01:02 6.8 C 5.12 g/m*3 6.8 C 0 km/h
1066 02-12-2009 21:13:02 6.9 C 5.16 g/m*3 6.9 C 0 km/h
1067 02-12-2009 21:25:02 7 C 5.04 g/m*3 7 C 0 km/h
1068 02-12-2009 21:37:02 6.9 C 5.08 g/m*3 6.9 C 0 km/h
1069 02-12-2009 21:49:02 7 C 5.04 g/m*3 7 C 0 km/h
1070 02-12-2009 22:01:02 7 C 5.11 g/m*3 7 C 0 km/h
1071 02-12-2009 22:13:02 6.9 C 5.23 g/m*3 6.9 C 0 km/h
1072 02-12-2009 22:26:02 7 C 5.19 g/m*3 7 C 0 km/h
1073 02-12-2009 22:38:02 7 C 5.19 g/m*3 7 C 0 km/h
1074 02-12-2009 22:50:02 6.9 C 5.31 g/m*3 6.9 C 0 km/h
1075 02-12-2009 23:02:02 6.8 C 5.28 g/m*3 6.8 C 0 km/h
Sensor: Nr:Datum:Temp:Abs-Feuchte:Windchill:Wind:
Aussen-T/F 1076 02-12-2009 23:14:02 6.7 C 5.32 g/m*3 6.7 C 0 km/h
1077 02-12-2009 23:26:02 6.6 C 5.36 g/m*3 6.6 C 0 km/h
1078 02-12-2009 23:38:02 6.4 C 5.36 g/m*3 6.4 C 0 km/h
1079 02-12-2009 23:50:02 6.4 C 5.36 g/m*3 6.4 C 0 km/h
1080 03-12-2009 00:02:03 6.6 C 5.44 g/m*3 6.6 C 0 km/h
1081 03-12-2009 00:14:03 6.7 C 5.47 g/m*3 6.7 C 0 km/h
1082 03-12-2009 00:26:03 6.8 C 5.51 g/m*3 6.8 C 0 km/h
1083 03-12-2009 00:38:03 7 C 5.35 g/m*3 7 C 0 km/h
1084 03-12-2009 00:50:03 7.1 C 5.3 g/m*3 7.1 C 0 km/h
1085 03-12-2009 01:02:03 7.1 C 5.3 g/m*3 7.1 C 0 km/h
1086 03-12-2009 01:14:03 7.2 C 5.34 g/m*3 7.2 C 0 km/h
1087 03-12-2009 01:26:03 7.2 C 5.34 g/m*3 7.2 C 0 km/h
1088 03-12-2009 01:38:03 7.1 C 5.3 g/m*3 7.1 C 0 km/h
1089 03-12-2009 01:50:03 7 C 5.19 g/m*3 7 C 0 km/h
1090 03-12-2009 02:02:03 7.1 C 5.23 g/m*3 7.1 C 0 km/h
1091 03-12-2009 02:14:03 7.1 C 5.3 g/m*3 7.1 C 0 km/h
1092 03-12-2009 02:26:03 7.2 C 5.26 g/m*3 7.2 C 0 km/h
1093 03-12-2009 02:38:03 7.3 C 5.29 g/m*3 7.3 C 0 km/h
1094 03-12-2009 02:50:03 7.5 C 5.28 g/m*3 7.5 C 0 km/h
1095 03-12-2009 03:02:03 7.4 C 5.25 g/m*3 7.4 C 0 km/h
1096 03-12-2009 03:14:03 7.4 C 5.41 g/m*3 7.4 C 0 km/h
1097 03-12-2009 03:26:03 7.3 C 5.45 g/m*3 7.3 C 0 km/h
1098 03-12-2009 03:38:03 7.5 C 5.68 g/m*3 7.5 C 0 km/h
1099 03-12-2009 03:50:03 7.7 C 5.68 g/m*3 7.7 C 0 km/h
1100 03-12-2009 04:02:03 7.8 C 5.79 g/m*3 7.8 C 0 km/h
Sensor: Nr:Datum:Temp:Abs-Feuchte:Windchill:Wind:
Aussen-T/F 1101 03-12-2009 04:14:04 7.9 C 5.83 g/m*3 7.9 C 0 km/h
1102 03-12-2009 04:26:04 8.1 C 5.82 g/m*3 8.1 C 0 km/h
1103 03-12-2009 04:38:04 8.1 C 5.82 g/m*3 8.1 C 0 km/h
1104 03-12-2009 04:50:04 7.8 C 5.96 g/m*3 7.8 C 0 km/h
1105 03-12-2009 05:02:04 7.5 C 6.08 g/m*3 7.5 C 0 km/h
1106 03-12-2009 05:14:04 7.3 C 6.24 g/m*3 7.3 C 0 km/h
1107 03-12-2009 05:26:04 7.4 C 6.28 g/m*3 7.4 C 0 km/h
1108 03-12-2009 05:38:04 7.6 C 6.36 g/m*3 7.6 C 0 km/h
1109 03-12-2009 05:50:04 7.6 C 6.36 g/m*3 7.6 C 0 km/h
1110 03-12-2009 06:02:04 7.8 C 6.45 g/m*3 7.8 C 0 km/h
1111 03-12-2009 06:14:04 8 C 6.37 g/m*3 8 C 0 km/h
1112 03-12-2009 06:26:04 7.9 C 6.32 g/m*3 7.9 C 0 km/h
1113 03-12-2009 06:38:04 7.9 C 6.32 g/m*3 7.9 C 0 km/h
1114 03-12-2009 06:50:04 7.7 C 6.24 g/m*3 7.7 C 0 km/h
1115 03-12-2009 07:02:02 7.6 C 6.28 g/m*3 7.6 C 0 km/h
1116 03-12-2009 07:14:02 7.5 C 6.24 g/m*3 7.5 C 0 km/h
1117 03-12-2009 07:26:01 7.4 C 6.28 g/m*3 7.4 C 0 km/h
1118 03-12-2009 07:38:02 7.5 C 6.32 g/m*3 7.5 C 0 km/h
1119 03-12-2009 07:50:02 7.5 C 6.32 g/m*3 7.5 C 0 km/h
1120 03-12-2009 08:02:02 7.6 C 6.2 g/m*3 7.6 C 0 km/h
1121 03-12-2009 08:14:02 7.7 C 6.32 g/m*3 7.7 C 0 km/h
1122 03-12-2009 08:26:02 7.7 C 6.32 g/m*3 7.7 C 0 km/h
1123 03-12-2009 08:38:02 8 C 6.28 g/m*3 8 C 0 km/h
1124 03-12-2009 08:50:02 8.2 C 6.2 g/m*3 8.2 C 0 km/h
1125 03-12-2009 09:02:02 8.2 C 6.36 g/m*3 8.2 C 0 km/h
Sensor: Nr:Datum:Temp:Abs-Feuchte:Windchill:Wind:
Aussen-T/F 1126 03-12-2009 09:14:02 7.9 C 6.41 g/m*3 7.9 C 0 km/h
1127 03-12-2009 09:26:02 7.9 C 6.49 g/m*3 7.9 C 0 km/h
1128 03-12-2009 09:38:02 8.1 C 6.49 g/m*3 8.1 C 0 km/h
1129 03-12-2009 09:50:02 8.4 C 6.53 g/m*3 8.4 C 0 km/h
1130 03-12-2009 10:02:02 8.5 C 6.49 g/m*3 8.5 C 0 km/h
1131 03-12-2009 10:14:02 8.9 C 6.39 g/m*3 8.9 C 0 km/h
1132 03-12-2009 10:26:02 9.2 C 6.43 g/m*3 9.2 C 0 km/h
1133 03-12-2009 10:38:02 9.5 C 6.46 g/m*3 9.5 C 0 km/h
1134 03-12-2009 10:50:02 9.6 C 6.41 g/m*3 9.6 C 0 km/h
1135 03-12-2009 11:02:02 9.8 C 6.4 g/m*3 9.8 C 0 km/h
1136 03-12-2009 11:14:02 10.1 C 6.34 g/m*3 10.1 C 0 km/h
1137 03-12-2009 11:26:02 10.3 C 6.42 g/m*3 10.3 C 0 km/h
1138 03-12-2009 11:38:02 10.3 C 6.32 g/m*3 10.3 C 0 km/h
1139 03-12-2009 11:50:02 10 C 6.2 g/m*3 10 C 0 km/h
1140 03-12-2009 12:02:01 10 C 6.2 g/m*3 10 C 0 km/h
1141 03-12-2009 12:14:01 10.3 C 6.22 g/m*3 10.3 C 0 km/h
1142 03-12-2009 12:26:02 10.5 C 6.21 g/m*3 10.5 C 0 km/h
1143 03-12-2009 12:38:01 10.6 C 6.25 g/m*3 10.6 C 0 km/h
1144 03-12-2009 12:50:02 10.5 C 6.21 g/m*3 10.5 C 0 km/h
1145 03-12-2009 13:02:01 10.4 C 6.17 g/m*3 10.4 C 0 km/h
1146 03-12-2009 13:14:01 10.6 C 6.25 g/m*3 10.6 C 0 km/h
1147 03-12-2009 13:26:01 10.6 C 6.15 g/m*3 10.6 C 0 km/h
1148 03-12-2009 13:38:02 10.5 C 6.21 g/m*3 10.5 C 0 km/h
1149 03-12-2009 13:50:02 10.6 C 6.15 g/m*3 10.6 C 0 km/h
1150 03-12-2009 14:02:02 10.4 C 6.17 g/m*3 10.4 C 0 km/h
Sensor: Nr:Datum:Temp:Abs-Feuchte:Windchill:Wind:
Aussen-T/F 1151 03-12-2009 14:14:02 10.6 C 6.15 g/m*3 10.6 C 0 km/h
1152 03-12-2009 14:26:02 10.6 C 6.15 g/m*3 10.6 C 0 km/h
1153 03-12-2009 14:38:02 10.4 C 6.07 g/m*3 10.4 C 0 km/h
1154 03-12-2009 14:50:01 10.3 C 6.13 g/m*3 10.3 C 0 km/h
1155 03-12-2009 15:02:02 9.9 C 6.35 g/m*3 9.9 C 0 km/h
1156 03-12-2009 15:14:02 9.9 C 6.35 g/m*3 9.9 C 0 km/h
1157 03-12-2009 15:26:01 9.8 C 6.31 g/m*3 9.8 C 0 km/h
1158 03-12-2009 15:38:02 9.6 C 6.23 g/m*3 9.6 C 0 km/h
1159 03-12-2009 15:50:02 9.4 C 6.24 g/m*3 9.4 C 0 km/h
1160 03-12-2009 16:02:02 9.3 C 6.2 g/m*3 9.3 C 0 km/h
1161 03-12-2009 16:14:02 9.3 C 6.2 g/m*3 9.3 C 0 km/h
1162 03-12-2009 16:26:01 9.4 C 6.15 g/m*3 9.4 C 0 km/h
1163 03-12-2009 16:38:02 9.4 C 6.15 g/m*3 9.4 C 0 km/h
1164 03-12-2009 16:50:02 9.5 C 6.19 g/m*3 9.5 C 0 km/h
1165 03-12-2009 17:02:02 9.2 C 6.16 g/m*3 9.2 C 0 km/h
1166 03-12-2009 17:14:02 9.4 C 6.15 g/m*3 9.4 C 0 km/h
1167 03-12-2009 17:26:01 9.5 C 6.19 g/m*3 9.5 C 0 km/h
1168 03-12-2009 17:38:02 9.5 C 6.19 g/m*3 9.5 C 0 km/h
1169 03-12-2009 17:50:02 8.9 C 6.31 g/m*3 8.9 C 0 km/h
1170 03-12-2009 18:02:02 8.5 C 6.4 g/m*3 8.5 C 0 km/h
1171 03-12-2009 18:14:02 8.7 C 6.49 g/m*3 8.7 C 0 km/h
1172 03-12-2009 18:26:02 8.7 C 6.49 g/m*3 8.7 C 0 km/h
1173 03-12-2009 18:38:02 8.8 C 6.53 g/m*3 8.8 C 0 km/h
1174 03-12-2009 18:50:02 8.9 C 6.48 g/m*3 8.9 C 0 km/h
1175 03-12-2009 19:02:02 8.9 C 6.48 g/m*3 8.9 C 0 km/h
Sensor: Nr:Datum:Temp:Abs-Feuchte:Windchill:Wind:
Aussen-T/F 1176 03-12-2009 19:14:02 8.7 C 6.31 g/m*3 8.7 C 0 km/h
1177 03-12-2009 19:26:02 9.1 C 6.21 g/m*3 9.1 C 0 km/h
1178 03-12-2009 19:38:02 9.4 C 6.15 g/m*3 9.4 C 0 km/h
1179 03-12-2009 19:50:02 9.3 C 6.02 g/m*3 9.3 C 0 km/h
1180 03-12-2009 20:02:01 9.2 C 5.98 g/m*3 9.2 C 0 km/h
1181 03-12-2009 20:14:01 9.2 C 5.98 g/m*3 9.2 C 0 km/h
1182 03-12-2009 20:26:02 9.1 C 5.94 g/m*3 9.1 C 0 km/h
1183 03-12-2009 20:38:01 9.2 C 5.98 g/m*3 9.2 C 0 km/h
1184 03-12-2009 20:50:02 9 C 5.91 g/m*3 9 C 0 km/h
1185 03-12-2009 21:02:01 8.8 C 5.92 g/m*3 8.8 C 0 km/h
1186 03-12-2009 21:14:01 8.9 C 5.96 g/m*3 8.9 C 0 km/h
1187 03-12-2009 21:26:02 8.6 C 5.93 g/m*3 8.6 C 0 km/h
1188 03-12-2009 21:38:01 8.3 C 5.9 g/m*3 8.3 C 0 km/h
1189 03-12-2009 21:51:03 8.3 C 5.98 g/m*3 8.3 C 0 km/h
1190 03-12-2009 22:03:03 8.5 C 6.06 g/m*3 8.5 C 0 km/h
1191 03-12-2009 22:15:03 8.2 C 5.95 g/m*3 8.2 C 0 km/h
1192 03-12-2009 22:27:03 8.2 C 6.03 g/m*3 8.2 C 0 km/h
1193 03-12-2009 22:39:03 8.5 C 6.06 g/m*3 8.5 C 0 km/h
1194 03-12-2009 22:51:03 8 C 6.04 g/m*3 8 C 0 km/h
1195 03-12-2009 23:03:03 7 C 6.04 g/m*3 7 C 0 km/h
1196 03-12-2009 23:15:03 6.8 C 6.12 g/m*3 6.8 C 0 km/h
1197 03-12-2009 23:27:03 6.6 C 6.11 g/m*3 6.6 C 0 km/h
1198 03-12-2009 23:39:03 6.5 C 5.92 g/m*3 6.5 C 0 km/h
1199 03-12-2009 23:51:03 6.5 C 5.77 g/m*3 6.5 C 0 km/h
1200 04-12-2009 00:03:03 6.6 C 5.51 g/m*3 6.6 C 0 km/h
Sensor: Nr:Datum:Temp:Abs-Feuchte:Windchill:Wind:
Aussen-T/F 1201 04-12-2009 00:15:03 6.7 C 5.47 g/m*3 6.7 C 0 km/h
1202 04-12-2009 00:27:03 6.8 C 5.43 g/m*3 6.8 C 0 km/h
1203 04-12-2009 00:39:03 6.7 C 5.32 g/m*3 6.7 C 0 km/h
1204 04-12-2009 00:51:03 6.6 C 5.28 g/m*3 6.6 C 0 km/h
1205 04-12-2009 01:03:03 6.4 C 5.22 g/m*3 6.4 C 0 km/h
1206 04-12-2009 01:15:03 6.2 C 5.22 g/m*3 6.2 C 0 km/h
1207 04-12-2009 01:27:03 6.3 C 5.26 g/m*3 6.3 C 0 km/h
1208 04-12-2009 01:39:03 6.2 C 5.07 g/m*3 6.2 C 0 km/h
1209 04-12-2009 01:51:03 6.2 C 4.71 g/m*3 6.2 C 0 km/h
1210 04-12-2009 02:03:04 6.2 C 4.78 g/m*3 6.2 C 0 km/h
1211 04-12-2009 02:15:04 6.2 C 5 g/m*3 6.2 C 0 km/h
1212 04-12-2009 02:27:04 5.6 C 5.16 g/m*3 5.6 C 0 km/h
1213 04-12-2009 02:39:04 5.6 C 5.23 g/m*3 5.6 C 0 km/h
1214 04-12-2009 02:51:04 5.6 C 5.16 g/m*3 5.6 C 0 km/h
1215 04-12-2009 03:03:04 5.6 C 5.16 g/m*3 5.6 C 0 km/h
1216 04-12-2009 03:15:04 5.5 C 5.2 g/m*3 5.5 C 0 km/h
1217 04-12-2009 03:27:04 5.4 C 5.16 g/m*3 5.4 C 0 km/h
1218 04-12-2009 03:39:04 5.4 C 5.16 g/m*3 5.4 C 0 km/h
1219 04-12-2009 03:51:04 5.4 C 5.16 g/m*3 5.4 C 0 km/h
1220 04-12-2009 04:03:04 5.5 C 5.2 g/m*3 5.5 C 0 km/h
1221 04-12-2009 04:15:04 5.4 C 4.81 g/m*3 5.4 C 0 km/h
1222 04-12-2009 04:27:04 5 C 4.62 g/m*3 5 C 0 km/h
1223 04-12-2009 04:39:04 4.8 C 4.63 g/m*3 4.8 C 0 km/h
1224 04-12-2009 04:51:04 4.6 C 4.5 g/m*3 4.6 C 0 km/h
1225 04-12-2009 05:03:04 4.3 C 4.48 g/m*3 4.3 C 0 km/h
Sensor: Nr:Datum:Temp:Abs-Feuchte:Windchill:Wind:
Aussen-T/F 1226 04-12-2009 05:15:04 4 C 4.51 g/m*3 4 C 0 km/h
1227 04-12-2009 05:27:04 3.7 C 4.49 g/m*3 3.7 C 0 km/h
1228 04-12-2009 05:39:04 3.4 C 4.52 g/m*3 3.4 C 0 km/h
1229 04-12-2009 05:51:04 3.1 C 4.49 g/m*3 3.1 C 0 km/h
1230 04-12-2009 06:03:04 3.2 C 4.64 g/m*3 3.2 C 0 km/h
1231 04-12-2009 06:15:02 3.3 C 4.67 g/m*3 3.3 C 0 km/h
1232 04-12-2009 06:27:02 3.1 C 4.61 g/m*3 3.1 C 0 km/h
1233 04-12-2009 06:39:02 3.1 C 4.67 g/m*3 3.1 C 0 km/h
1234 04-12-2009 06:51:02 3.4 C 4.76 g/m*3 3.4 C 0 km/h
1235 04-12-2009 07:03:02 3.9 C 4.74 g/m*3 3.9 C 0 km/h
1236 04-12-2009 07:15:03 4.1 C 4.61 g/m*3 4.1 C 0 km/h
1237 04-12-2009 07:27:03 4.1 C 4.54 g/m*3 4.1 C 0 km/h
1238 04-12-2009 07:39:02 3.4 C 4.46 g/m*3 3.4 C 0 km/h
1239 04-12-2009 07:51:01 3.1 C 4.43 g/m*3 3.1 C 0 km/h
1240 04-12-2009 08:03:01 2.8 C 4.46 g/m*3 2.8 C 0 km/h
1241 04-12-2009 08:15:01 2.7 C 4.49 g/m*3 2.7 C 0 km/h
1242 04-12-2009 08:27:01 3 C 4.58 g/m*3 3 C 0 km/h
1243 04-12-2009 08:39:00 3.3 C 4.67 g/m*3 3.3 C 0 km/h
1244 04-12-2009 08:51:03 3.6 C 4.7 g/m*3 3.6 C 0 km/h
1245 04-12-2009 09:03:02 3.8 C 4.64 g/m*3 3.8 C 0 km/h
1246 04-12-2009 09:15:02 3.9 C 4.61 g/m*3 3.9 C 0 km/h
1247 04-12-2009 09:27:03 4.1 C 4.54 g/m*3 4.1 C 0 km/h
1248 04-12-2009 09:39:02 4.2 C 4.45 g/m*3 4.2 C 0 km/h
1249 04-12-2009 09:51:02 4.3 C 4.28 g/m*3 4.3 C 0 km/h
1250 04-12-2009 10:03:01 4 C 4.13 g/m*3 4 C 0 km/h
Sensor: Nr:Datum:Temp:Abs-Feuchte:Windchill:Wind:
Aussen-T/F 1251 04-12-2009 10:15:02 4 C 4.13 g/m*3 4 C 0 km/h
1252 04-12-2009 10:27:02 4.1 C 4.16 g/m*3 4.1 C 0 km/h
1253 04-12-2009 10:39:02 4.2 C 4.12 g/m*3 4.2 C 0 km/h
1254 04-12-2009 10:51:02 4.2 C 4.12 g/m*3 4.2 C 0 km/h
1255 04-12-2009 11:03:03 4.1 C 4.1 g/m*3 4.1 C 0 km/h
1256 04-12-2009 11:15:02 4.1 C 4.1 g/m*3 4.1 C 0 km/h
1257 04-12-2009 11:27:02 4.2 C 4.06 g/m*3 4.2 C 0 km/h
1258 04-12-2009 11:39:02 4.1 C 4.1 g/m*3 4.1 C 0 km/h
1259 04-12-2009 11:51:01 4.3 C 4.09 g/m*3 4.3 C 0 km/h
1260 04-12-2009 12:03:02 4.6 C 4.17 g/m*3 4.6 C 0 km/h
1261 04-12-2009 12:15:01 5.1 C 4.1 g/m*3 5.1 C 0 km/h
1262 04-12-2009 12:27:01 5.4 C 4.12 g/m*3 5.4 C 0 km/h
1263 04-12-2009 12:39:01 5.5 C 4.07 g/m*3 5.5 C 0 km/h
1264 04-12-2009 12:51:01 5.7 C 4.2 g/m*3 5.7 C 0 km/h
1265 04-12-2009 13:03:02 5.5 C 4 g/m*3 5.5 C 0 km/h
1266 04-12-2009 13:15:01 5 C 3.87 g/m*3 5 C 0 km/h
1267 04-12-2009 13:27:01 4.9 C 3.92 g/m*3 4.9 C 0 km/h
1268 04-12-2009 13:39:02 4.9 C 3.85 g/m*3 4.9 C 0 km/h
1269 04-12-2009 13:51:02 4.9 C 3.85 g/m*3 4.9 C 0 km/h
1270 04-12-2009 14:03:02 4.8 C 3.82 g/m*3 4.8 C 0 km/h
1271 04-12-2009 14:15:02 4.8 C 3.82 g/m*3 4.8 C 0 km/h
1272 04-12-2009 14:27:02 4.9 C 3.78 g/m*3 4.9 C 0 km/h
1273 04-12-2009 14:39:02 5.1 C 3.69 g/m*3 5.1 C 0 km/h
1274 04-12-2009 14:51:02 4.9 C 3.71 g/m*3 4.9 C 0 km/h
1275 04-12-2009 15:03:03 4.8 C 3.62 g/m*3 4.8 C 0 km/h
Sensor: Nr:Datum:Temp:Abs-Feuchte:Windchill:Wind:
Aussen-T/F 1276 04-12-2009 15:15:02 4.7 C 3.6 g/m*3 4.7 C 0 km/h
1277 04-12-2009 15:27:02 4.5 C 3.68 g/m*3 4.5 C 0 km/h
1278 04-12-2009 15:39:03 4.7 C 3.66 g/m*3 4.7 C 0 km/h
1279 04-12-2009 15:51:02 4.9 C 3.65 g/m*3 4.9 C 0 km/h
1280 04-12-2009 16:03:02 4.9 C 3.78 g/m*3 4.9 C 0 km/h
1281 04-12-2009 16:15:03 4.9 C 3.71 g/m*3 4.9 C 0 km/h
1282 04-12-2009 16:27:03 4.9 C 3.78 g/m*3 4.9 C 0 km/h
1283 04-12-2009 16:39:02 4.9 C 3.78 g/m*3 4.9 C 0 km/h
1284 04-12-2009 16:51:03 4.8 C 3.82 g/m*3 4.8 C 0 km/h
1285 04-12-2009 17:03:02 4.8 C 3.89 g/m*3 4.8 C 0 km/h
1286 04-12-2009 17:15:03 4.7 C 3.93 g/m*3 4.7 C 0 km/h
1287 04-12-2009 17:27:03 4.7 C 4 g/m*3 4.7 C 0 km/h
1288 04-12-2009 17:39:02 4.7 C 4.06 g/m*3 4.7 C 0 km/h
1289 04-12-2009 17:51:02 4.8 C 4.09 g/m*3 4.8 C 0 km/h
1290 04-12-2009 18:03:02 4.8 C 4.09 g/m*3 4.8 C 0 km/h
1291 04-12-2009 18:15:02 4.8 C 4.16 g/m*3 4.8 C 0 km/h
1292 04-12-2009 18:27:02 4.7 C 4.2 g/m*3 4.7 C 0 km/h
1293 04-12-2009 18:39:02 4.9 C 4.19 g/m*3 4.9 C 0 km/h
1294 04-12-2009 18:51:02 5 C 4.08 g/m*3 5 C 0 km/h
1295 04-12-2009 19:03:01 5 C 4.08 g/m*3 5 C 0 km/h
1296 04-12-2009 19:15:02 5 C 4.08 g/m*3 5 C 0 km/h
1297 04-12-2009 19:27:02 5 C 4.14 g/m*3 5 C 0 km/h
1298 04-12-2009 19:39:02 5 C 4.14 g/m*3 5 C 0 km/h
1299 04-12-2009 19:51:01 5.1 C 4.17 g/m*3 5.1 C 0 km/h
1300 04-12-2009 20:03:02 5.1 C 4.17 g/m*3 5.1 C 0 km/h
Sensor: Nr:Datum:Temp:Abs-Feuchte:Windchill:Wind:
Aussen-T/F 1301 04-12-2009 20:15:01 5 C 4.21 g/m*3 5 C 0 km/h
1302 04-12-2009 20:27:01 5 C 4.21 g/m*3 5 C 0 km/h
1303 04-12-2009 20:39:02 5 C 4.21 g/m*3 5 C 0 km/h
1304 04-12-2009 20:51:02 5 C 4.28 g/m*3 5 C 0 km/h
1305 04-12-2009 21:03:02 5 C 4.28 g/m*3 5 C 0 km/h
1306 04-12-2009 21:15:01 5.1 C 4.31 g/m*3 5.1 C 0 km/h
1307 04-12-2009 21:27:01 5.1 C 4.31 g/m*3 5.1 C 0 km/h
1308 04-12-2009 21:39:02 5.2 C 4.34 g/m*3 5.2 C 0 km/h
1309 04-12-2009 21:51:02 5.2 C 4.34 g/m*3 5.2 C 0 km/h
1310 04-12-2009 22:04:03 5.2 C 4.34 g/m*3 5.2 C 0 km/h
1311 04-12-2009 22:16:03 5.2 C 4.34 g/m*3 5.2 C 0 km/h
1312 04-12-2009 22:28:03 5.1 C 4.31 g/m*3 5.1 C 0 km/h
1313 04-12-2009 22:40:03 5.1 C 4.17 g/m*3 5.1 C 0 km/h
1314 04-12-2009 22:52:03 5.1 C 4.17 g/m*3 5.1 C 0 km/h
1315 04-12-2009 23:04:03 4.7 C 4.06 g/m*3 4.7 C 0 km/h
1316 04-12-2009 23:16:03 4.1 C 4.03 g/m*3 4.1 C 0 km/h
1317 04-12-2009 23:28:03 3.6 C 4.15 g/m*3 3.6 C 0 km/h
1318 04-12-2009 23:40:03 3.2 C 4.16 g/m*3 3.2 C 0 km/h
1319 04-12-2009 23:52:03 3 C 4.16 g/m*3 3 C 0 km/h
1320 05-12-2009 00:04:03 2.7 C 4.2 g/m*3 2.7 C 0 km/h
1321 05-12-2009 00:16:03 2.5 C 4.25 g/m*3 2.5 C 0 km/h
1322 05-12-2009 00:28:03 2.3 C 4.2 g/m*3 2.3 C 0 km/h
1323 05-12-2009 00:40:03 2.7 C 4.37 g/m*3 2.7 C 0 km/h
1324 05-12-2009 00:52:03 3.2 C 4.4 g/m*3 3.2 C 0 km/h
1325 05-12-2009 01:04:03 3.3 C 4.43 g/m*3 3.3 C 0 km/h
Sensor: Nr:Datum:Temp:Abs-Feuchte:Windchill:Wind:
Aussen-T/F 1326 05-12-2009 01:16:03 2.9 C 4.25 g/m*3 2.9 C 0 km/h
1327 05-12-2009 01:28:04 2.7 C 4.31 g/m*3 2.7 C 0 km/h
1328 05-12-2009 01:40:04 2.8 C 4.4 g/m*3 2.8 C 0 km/h
1329 05-12-2009 01:52:04 3.1 C 4.37 g/m*3 3.1 C 0 km/h
1330 05-12-2009 02:04:04 2.9 C 4.31 g/m*3 2.9 C 0 km/h
1331 05-12-2009 02:16:04 2.8 C 4.28 g/m*3 2.8 C 0 km/h
1332 05-12-2009 02:28:04 2.8 C 4.28 g/m*3 2.8 C 0 km/h
1333 05-12-2009 02:40:04 2.7 C 4.31 g/m*3 2.7 C 0 km/h
1334 05-12-2009 02:52:04 2.7 C 4.31 g/m*3 2.7 C 0 km/h
1335 05-12-2009 03:04:04 2.7 C 4.37 g/m*3 2.7 C 0 km/h
1336 05-12-2009 03:16:04 3 C 4.34 g/m*3 3 C 0 km/h
1337 05-12-2009 03:28:04 2.9 C 4.37 g/m*3 2.9 C 0 km/h
1338 05-12-2009 03:40:04 3.2 C 4.4 g/m*3 3.2 C 0 km/h
1339 05-12-2009 03:52:04 3.3 C 4.37 g/m*3 3.3 C 0 km/h
1340 05-12-2009 04:04:04 3.3 C 4.37 g/m*3 3.3 C 0 km/h
1341 05-12-2009 04:16:04 3.4 C 4.4 g/m*3 3.4 C 0 km/h
1342 05-12-2009 04:28:04 3.4 C 4.34 g/m*3 3.4 C 0 km/h
1343 05-12-2009 04:40:04 3.2 C 4.28 g/m*3 3.2 C 0 km/h
1344 05-12-2009 04:52:04 3.2 C 4.34 g/m*3 3.2 C 0 km/h
1345 05-12-2009 05:04:04 3.3 C 4.37 g/m*3 3.3 C 0 km/h
1346 05-12-2009 05:16:05 3.3 C 4.31 g/m*3 3.3 C 0 km/h
1347 05-12-2009 05:28:05 3.4 C 4.34 g/m*3 3.4 C 0 km/h
1348 05-12-2009 05:40:05 3.4 C 4.34 g/m*3 3.4 C 0 km/h
1349 05-12-2009 05:52:05 3.4 C 4.28 g/m*3 3.4 C 0 km/h
1350 05-12-2009 06:04:05 3.4 C 4.28 g/m*3 3.4 C 0 km/h
Sensor: Nr:Datum:Temp:Abs-Feuchte:Windchill:Wind:
Aussen-T/F 1351 05-12-2009 06:16:05 3.4 C 4.28 g/m*3 3.4 C 0 km/h
1352 05-12-2009 06:28:05 3.5 C 4.24 g/m*3 3.5 C 0 km/h
1353 05-12-2009 06:40:05 3.5 C 4.24 g/m*3 3.5 C 0 km/h
1354 05-12-2009 06:52:05 3.5 C 4.24 g/m*3 3.5 C 0 km/h
1355 05-12-2009 07:04:05 3.5 C 4.18 g/m*3 3.5 C 0 km/h
1356 05-12-2009 07:16:05 3.7 C 4.18 g/m*3 3.7 C 0 km/h
1357 05-12-2009 07:28:05 3.7 C 4.11 g/m*3 3.7 C 0 km/h
1358 05-12-2009 07:40:02 3.8 C 4.08 g/m*3 3.8 C 0 km/h
1359 05-12-2009 07:52:01 3.8 C 4.08 g/m*3 3.8 C 0 km/h
1360 05-12-2009 08:04:01 3.9 C 4.11 g/m*3 3.9 C 0 km/h
1361 05-12-2009 08:16:02 4 C 4.07 g/m*3 4 C 0 km/h
1362 05-12-2009 08:28:02 4 C 4.01 g/m*3 4 C 0 km/h
1363 05-12-2009 08:40:01 4.1 C 4.03 g/m*3 4.1 C 0 km/h
1364 05-12-2009 08:52:03 4.1 C 4.03 g/m*3 4.1 C 0 km/h
1365 05-12-2009 09:04:02 4.2 C 4.06 g/m*3 4.2 C 0 km/h
1366 05-12-2009 09:16:02 4.2 C 4.12 g/m*3 4.2 C 0 km/h
1367 05-12-2009 09:28:02 4.3 C 4.15 g/m*3 4.3 C 0 km/h
1368 05-12-2009 09:40:02 4.4 C 4.11 g/m*3 4.4 C 0 km/h
1369 05-12-2009 09:52:02 4.6 C 4.17 g/m*3 4.6 C 0 km/h
1370 05-12-2009 10:04:02 4.7 C 4.13 g/m*3 4.7 C 0 km/h
1371 05-12-2009 10:16:02 4.8 C 4.16 g/m*3 4.8 C 0 km/h
1372 05-12-2009 10:28:03 5.1 C 4.17 g/m*3 5.1 C 0 km/h
1373 05-12-2009 10:40:02 5.2 C 4.13 g/m*3 5.2 C 0 km/h
1374 05-12-2009 10:52:02 5.3 C 4.23 g/m*3 5.3 C 0 km/h
1375 05-12-2009 11:04:01 5.3 C 4.3 g/m*3 5.3 C 0 km/h
Sensor: Nr:Datum:Temp:Abs-Feuchte:Windchill:Wind:
Aussen-T/F 1376 05-12-2009 11:16:02 5.2 C 4.54 g/m*3 5.2 C 0 km/h
1377 05-12-2009 11:28:02 5.2 C 4.68 g/m*3 5.2 C 0 km/h
1378 05-12-2009 11:40:02 5.6 C 4.81 g/m*3 5.6 C 0 km/h
1379 05-12-2009 11:52:02 5.7 C 4.77 g/m*3 5.7 C 0 km/h
1380 05-12-2009 12:04:02 6 C 4.79 g/m*3 6 C 0 km/h
1381 05-12-2009 12:16:02 6.3 C 4.89 g/m*3 6.3 C 0 km/h
1382 05-12-2009 12:28:02 6.2 C 4.93 g/m*3 6.2 C 0 km/h
1383 05-12-2009 12:40:03 6.4 C 4.99 g/m*3 6.4 C 0 km/h
1384 05-12-2009 12:52:02 6.4 C 5.07 g/m*3 6.4 C 0 km/h
1385 05-12-2009 13:04:02 6.6 C 5.13 g/m*3 6.6 C 0 km/h
1386 05-12-2009 13:16:01 6.8 C 5.2 g/m*3 6.8 C 0 km/h
1387 05-12-2009 13:28:01 6.8 C 5.28 g/m*3 6.8 C 0 km/h
1388 05-12-2009 13:40:02 6.9 C 5.31 g/m*3 6.9 C 0 km/h
1389 05-12-2009 13:52:02 7 C 5.27 g/m*3 7 C 0 km/h
1390 05-12-2009 14:04:02 7.4 C 5.33 g/m*3 7.4 C 0 km/h
1391 05-12-2009 14:16:02 7.2 C 5.34 g/m*3 7.2 C 0 km/h
1392 05-12-2009 14:28:02 7.1 C 5.46 g/m*3 7.1 C 0 km/h
1393 05-12-2009 14:40:02 6.9 C 5.54 g/m*3 6.9 C 0 km/h
1394 05-12-2009 14:52:02 6.9 C 5.62 g/m*3 6.9 C 0 km/h
1395 05-12-2009 15:04:02 6.8 C 5.66 g/m*3 6.8 C 0 km/h
1396 05-12-2009 15:16:02 6.6 C 5.66 g/m*3 6.6 C 0 km/h
1397 05-12-2009 15:28:02 6.3 C 5.77 g/m*3 6.3 C 0 km/h
1398 05-12-2009 15:40:02 6.3 C 5.85 g/m*3 6.3 C 0 km/h
1399 05-12-2009 15:52:02 6.2 C 5.88 g/m*3 6.2 C 0 km/h
1400 05-12-2009 16:04:02 6.2 C 5.96 g/m*3 6.2 C 0 km/h
Sensor: Nr:Datum:Temp:Abs-Feuchte:Windchill:Wind:
Aussen-T/F 1401 05-12-2009 16:16:03 6.1 C 5.99 g/m*3 6.1 C 0 km/h
1402 05-12-2009 16:28:03 6.1 C 6.06 g/m*3 6.1 C 0 km/h
1403 05-12-2009 16:40:02 6.1 C 6.14 g/m*3 6.1 C 0 km/h
1404 05-12-2009 16:52:02 6.2 C 6.18 g/m*3 6.2 C 0 km/h
1405 05-12-2009 17:04:02 6.2 C 6.25 g/m*3 6.2 C 0 km/h
1406 05-12-2009 17:16:03 6.4 C 6.33 g/m*3 6.4 C 0 km/h
1407 05-12-2009 17:28:03 6.5 C 6.37 g/m*3 6.5 C 0 km/h
1408 05-12-2009 17:40:02 6.7 C 6.38 g/m*3 6.7 C 0 km/h
1409 05-12-2009 17:52:03 6.9 C 6.39 g/m*3 6.9 C 0 km/h
1410 05-12-2009 18:04:02 7.1 C 6.24 g/m*3 7.1 C 0 km/h
1411 05-12-2009 18:16:02 7.3 C 6.24 g/m*3 7.3 C 0 km/h
1412 05-12-2009 18:28:02 7.3 C 6.24 g/m*3 7.3 C 0 km/h
1413 05-12-2009 18:40:02 7.3 C 6.24 g/m*3 7.3 C 0 km/h
1414 05-12-2009 18:52:02 7.3 C 6.32 g/m*3 7.3 C 0 km/h
1415 05-12-2009 19:04:02 7.4 C 6.36 g/m*3 7.4 C 0 km/h
1416 05-12-2009 19:16:02 7.3 C 6.32 g/m*3 7.3 C 0 km/h
1417 05-12-2009 19:28:02 7.4 C 6.36 g/m*3 7.4 C 0 km/h
1418 05-12-2009 19:40:02 7.4 C 6.36 g/m*3 7.4 C 0 km/h
1419 05-12-2009 19:52:02 7.5 C 6.48 g/m*3 7.5 C 0 km/h
1420 05-12-2009 20:04:01 7.6 C 6.61 g/m*3 7.6 C 0 km/h
1421 05-12-2009 20:16:02 7.6 C 6.53 g/m*3 7.6 C 0 km/h
1422 05-12-2009 20:28:02 7.6 C 6.61 g/m*3 7.6 C 0 km/h
1423 05-12-2009 20:40:02 7.8 C 6.69 g/m*3 7.8 C 0 km/h
1424 05-12-2009 20:52:02 7.8 C 6.69 g/m*3 7.8 C 0 km/h
1425 05-12-2009 21:04:02 7.9 C 6.74 g/m*3 7.9 C 0 km/h
Sensor: Nr:Datum:Temp:Abs-Feuchte:Windchill:Wind:
Aussen-T/F 1426 05-12-2009 21:16:02 7.9 C 6.74 g/m*3 7.9 C 0 km/h
1427 05-12-2009 21:28:02 7.8 C 6.69 g/m*3 7.8 C 0 km/h
1428 05-12-2009 21:40:03 7.9 C 6.82 g/m*3 7.9 C 0 km/h
1429 05-12-2009 21:53:02 7.8 C 6.77 g/m*3 7.8 C 0 km/h
1430 05-12-2009 22:05:02 7.8 C 6.77 g/m*3 7.8 C 0 km/h
1431 05-12-2009 22:17:02 7.9 C 6.82 g/m*3 7.9 C 0 km/h
1432 05-12-2009 22:29:02 7.9 C 6.82 g/m*3 7.9 C 0 km/h
1433 05-12-2009 22:41:02 7.8 C 6.77 g/m*3 7.8 C 0 km/h
1434 05-12-2009 22:53:02 7.9 C 6.82 g/m*3 7.9 C 0 km/h
1435 05-12-2009 23:05:02 8 C 6.86 g/m*3 8 C 0 km/h
1436 05-12-2009 23:17:03 8 C 6.86 g/m*3 8 C 0 km/h
1437 05-12-2009 23:29:03 8.1 C 6.82 g/m*3 8.1 C 0 km/h
1438 05-12-2009 23:41:03 8.2 C 6.95 g/m*3 8.2 C 0 km/h
1439 05-12-2009 23:53:03 8.4 C 6.96 g/m*3 8.4 C 0 km/h
1440 06-12-2009 00:05:03 8.6 C 7.05 g/m*3 8.6 C 0 km/h
1441 06-12-2009 00:17:03 8.9 C 7.1 g/m*3 8.9 C 0 km/h
1442 06-12-2009 00:29:03 9 C 6.96 g/m*3 9 C 0 km/h
1443 06-12-2009 00:41:03 9.1 C 7.01 g/m*3 9.1 C 0 km/h
1444 06-12-2009 00:53:03 9.2 C 7.05 g/m*3 9.2 C 0 km/h
1445 06-12-2009 01:05:03 9.3 C 7.1 g/m*3 9.3 C 0 km/h
1446 06-12-2009 01:17:03 9.4 C 7.15 g/m*3 9.4 C 0 km/h
1447 06-12-2009 01:29:03 9.3 C 7.1 g/m*3 9.3 C 0 km/h
1448 06-12-2009 01:41:03 9.5 C 7.19 g/m*3 9.5 C 0 km/h
1449 06-12-2009 01:53:03 9.4 C 7.15 g/m*3 9.4 C 0 km/h
1450 06-12-2009 02:05:03 9.5 C 7.19 g/m*3 9.5 C 0 km/h
Sensor: Nr:Datum:Temp:Abs-Feuchte:Windchill:Wind:
Aussen-T/F 1451 06-12-2009 02:17:03 9.6 C 7.15 g/m*3 9.6 C 0 km/h
1452 06-12-2009 02:29:03 9.6 C 7.15 g/m*3 9.6 C 0 km/h
1453 06-12-2009 02:41:03 9.7 C 7.19 g/m*3 9.7 C 0 km/h
1454 06-12-2009 02:53:03 9.8 C 7.14 g/m*3 9.8 C 0 km/h
1455 06-12-2009 03:05:04 9.7 C 7.1 g/m*3 9.7 C 0 km/h
1456 06-12-2009 03:17:04 10 C 7.05 g/m*3 10 C 0 km/h
1457 06-12-2009 03:29:04 10 C 7.05 g/m*3 10 C 0 km/h
1458 06-12-2009 03:41:04 9.9 C 7.19 g/m*3 9.9 C 0 km/h
1459 06-12-2009 03:53:04 9.9 C 7.19 g/m*3 9.9 C 0 km/h
1460 06-12-2009 04:05:04 10 C 7.14 g/m*3 10 C 0 km/h
1461 06-12-2009 04:17:04 10 C 7.05 g/m*3 10 C 0 km/h
1462 06-12-2009 04:29:04 10 C 7.14 g/m*3 10 C 0 km/h
1463 06-12-2009 04:41:04 9.9 C 7.19 g/m*3 9.9 C 0 km/h
1464 06-12-2009 04:53:04 9.7 C 7.19 g/m*3 9.7 C 0 km/h
1465 06-12-2009 05:05:04 9.9 C 7.28 g/m*3 9.9 C 0 km/h
1466 06-12-2009 05:17:04 10.2 C 7.23 g/m*3 10.2 C 0 km/h
1467 06-12-2009 05:29:04 9.8 C 7.33 g/m*3 9.8 C 0 km/h
1468 06-12-2009 05:41:04 9.4 C 7.33 g/m*3 9.4 C 0 km/h
1469 06-12-2009 05:53:04 9.3 C 7.37 g/m*3 9.3 C 0 km/h
1470 06-12-2009 06:05:04 9.4 C 7.42 g/m*3 9.4 C 0 km/h
1471 06-12-2009 06:17:04 9.6 C 7.42 g/m*3 9.6 C 0 km/h
1472 06-12-2009 06:29:04 9.2 C 7.41 g/m*3 9.2 C 0 km/h
1473 06-12-2009 06:41:04 8.8 C 7.49 g/m*3 8.8 C 0 km/h
1474 06-12-2009 06:53:05 8.9 C 7.71 g/m*3 8.9 C 0 km/h
1475 06-12-2009 07:05:05 8.8 C 7.66 g/m*3 8.8 C 0 km/h
Sensor: Nr:Datum:Temp:Abs-Feuchte:Windchill:Wind:
Aussen-T/F 1476 06-12-2009 07:17:05 8.6 C 7.56 g/m*3 8.6 C 0 km/h
1477 06-12-2009 07:29:05 8.4 C 7.55 g/m*3 8.4 C 0 km/h
1478 06-12-2009 07:41:02 8.4 C 7.55 g/m*3 8.4 C 0 km/h
1479 06-12-2009 07:53:02 8.3 C 7.5 g/m*3 8.3 C 0 km/h
1480 06-12-2009 08:05:03 8.2 C 7.54 g/m*3 8.2 C 0 km/h
1481 06-12-2009 08:17:02 8.2 C 7.54 g/m*3 8.2 C 0 km/h
1482 06-12-2009 08:29:02 8.2 C 7.62 g/m*3 8.2 C 0 km/h
1483 06-12-2009 08:41:03 8.2 C 7.62 g/m*3 8.2 C 0 km/h
1484 06-12-2009 08:53:02 8.2 C 7.62 g/m*3 8.2 C 0 km/h
1485 06-12-2009 09:05:01 8.2 C 7.62 g/m*3 8.2 C 0 km/h
1486 06-12-2009 09:17:02 8.4 C 7.72 g/m*3 8.4 C 0 km/h
1487 06-12-2009 09:29:02 8.4 C 7.8 g/m*3 8.4 C 0 km/h
1488 06-12-2009 09:41:02 8.6 C 7.91 g/m*3 8.6 C 0 km/h
1489 06-12-2009 09:53:02 8.7 C 7.87 g/m*3 8.7 C 0 km/h
1490 06-12-2009 10:05:02 8.8 C 7.83 g/m*3 8.8 C 0 km/h
1491 06-12-2009 10:17:02 8.9 C 7.8 g/m*3 8.9 C 0 km/h
1492 06-12-2009 10:29:02 9.2 C 7.86 g/m*3 9.2 C 0 km/h
1493 06-12-2009 10:41:02 9.3 C 7.91 g/m*3 9.3 C 0 km/h
1494 06-12-2009 10:53:02 9.6 C 8.06 g/m*3 9.6 C 0 km/h
1495 06-12-2009 11:05:02 9.7 C 8.11 g/m*3 9.7 C 0 km/h
1496 06-12-2009 11:17:02 9.8 C 8.07 g/m*3 9.8 C 0 km/h
1497 06-12-2009 11:29:03 9.7 C 7.93 g/m*3 9.7 C 0 km/h
1498 06-12-2009 11:41:02 9.8 C 7.89 g/m*3 9.8 C 0 km/h
1499 06-12-2009 11:53:02 9.8 C 7.61 g/m*3 9.8 C 0 km/h
1500 06-12-2009 12:05:02 10 C 7.52 g/m*3 10 C 0 km/h
Sensor: Nr:Datum:Temp:Abs-Feuchte:Windchill:Wind:
Aussen-T/F 1501 06-12-2009 12:17:02 10.2 C 7.61 g/m*3 10.2 C 0 km/h
1502 06-12-2009 12:29:03 10.2 C 7.71 g/m*3 10.2 C 0 km/h
1503 06-12-2009 12:41:02 10.2 C 7.71 g/m*3 10.2 C 0 km/h
1504 06-12-2009 12:53:02 10.2 C 7.8 g/m*3 10.2 C 0 km/h
1505 06-12-2009 13:05:02 10.1 C 7.75 g/m*3 10.1 C 0 km/h
1506 06-12-2009 13:17:01 10.3 C 7.57 g/m*3 10.3 C 0 km/h
1507 06-12-2009 13:29:01 10.7 C 7.27 g/m*3 10.7 C 0 km/h
1508 06-12-2009 13:41:02 10.9 C 6.96 g/m*3 10.9 C 0 km/h
1509 06-12-2009 13:53:02 11.1 C 7.05 g/m*3 11.1 C 0 km/h
1510 06-12-2009 14:05:02 11.6 C 7.17 g/m*3 11.6 C 0 km/h
1511 06-12-2009 14:17:02 11.9 C 7.1 g/m*3 11.9 C 0 km/h
1512 06-12-2009 14:29:02 12 C 6.93 g/m*3 12 C 0 km/h
1513 06-12-2009 14:41:02 11.8 C 7.05 g/m*3 11.8 C 0 km/h
1514 06-12-2009 14:53:01 11.6 C 7.17 g/m*3 11.6 C 0 km/h
1515 06-12-2009 15:05:01 11.6 C 7.28 g/m*3 11.6 C 0 km/h
1516 06-12-2009 15:17:02 11.4 C 7.29 g/m*3 11.4 C 0 km/h
1517 06-12-2009 15:29:02 11.2 C 7.5 g/m*3 11.2 C 0 km/h
1518 06-12-2009 15:41:01 11.1 C 7.45 g/m*3 11.1 C 0 km/h
1519 06-12-2009 15:53:02 11.1 C 7.45 g/m*3 11.1 C 0 km/h
1520 06-12-2009 16:05:02 11.2 C 7.4 g/m*3 11.2 C 0 km/h
1521 06-12-2009 16:17:02 11.1 C 7.35 g/m*3 11.1 C 0 km/h
1522 06-12-2009 16:29:02 11.1 C 7.35 g/m*3 11.1 C 0 km/h
1523 06-12-2009 16:41:02 11.1 C 7.35 g/m*3 11.1 C 0 km/h
1524 06-12-2009 16:53:01 11 C 7.41 g/m*3 11 C 0 km/h
1525 06-12-2009 17:05:02 11 C 7.41 g/m*3 11 C 0 km/h
Sensor: Nr:Datum:Temp:Abs-Feuchte:Windchill:Wind:
Aussen-T/F 1526 06-12-2009 17:17:02 10.9 C 7.46 g/m*3 10.9 C 0 km/h
1527 06-12-2009 17:29:02 10.9 C 7.66 g/m*3 10.9 C 0 km/h
1528 06-12-2009 17:41:01 11 C 7.71 g/m*3 11 C 0 km/h
1529 06-12-2009 17:53:02 10.8 C 7.71 g/m*3 10.8 C 0 km/h
1530 06-12-2009 18:05:07 11 C 7.71 g/m*3 11 C 0 km/h
1531 06-12-2009 18:17:05 11 C 7.71 g/m*3 11 C 0 km/h
1532 06-12-2009 18:29:05 11 C 7.71 g/m*3 11 C 0 km/h
1533 06-12-2009 18:41:05 11 C 7.71 g/m*3 11 C 0 km/h
1534 06-12-2009 18:53:05 11 C 7.71 g/m*3 11 C 0 km/h
1535 06-12-2009 19:05:05 11.2 C 7.7 g/m*3 11.2 C 0 km/h
1536 06-12-2009 19:17:06 11.4 C 7.8 g/m*3 11.4 C 0 km/h
1537 06-12-2009 19:29:06 11.4 C 7.8 g/m*3 11.4 C 0 km/h
1538 06-12-2009 19:41:06 11.4 C 7.9 g/m*3 11.4 C 0 km/h
1539 06-12-2009 19:53:02 11 C 8.01 g/m*3 11 C 0 km/h
1540 06-12-2009 20:05:02 11 C 8.31 g/m*3 11 C 0 km/h
1541 06-12-2009 20:17:02 10.7 C 8.25 g/m*3 10.7 C 0 km/h
1542 06-12-2009 20:29:02 10.6 C 8.2 g/m*3 10.6 C 0 km/h
1543 06-12-2009 20:41:02 10.5 C 8.24 g/m*3 10.5 C 0 km/h
1544 06-12-2009 20:53:02 10.4 C 8.19 g/m*3 10.4 C 0 km/h
1545 06-12-2009 21:05:02 10.4 C 8.19 g/m*3 10.4 C 0 km/h
1546 06-12-2009 21:17:02 10 C 7.99 g/m*3 10 C 0 km/h
1547 06-12-2009 21:29:02 9.6 C 7.88 g/m*3 9.6 C 0 km/h
1548 06-12-2009 21:41:02 9.3 C 7.82 g/m*3 9.3 C 0 km/h
1549 06-12-2009 21:54:02 9.2 C 7.77 g/m*3 9.2 C 0 km/h
1550 06-12-2009 22:06:02 9 C 7.76 g/m*3 9 C 0 km/h
Sensor: Nr:Datum:Temp:Abs-Feuchte:Windchill:Wind:
Aussen-T/F 1551 06-12-2009 22:18:02 8.9 C 7.8 g/m*3 8.9 C 0 km/h
1552 06-12-2009 22:30:03 8.9 C 7.88 g/m*3 8.9 C 0 km/h
1553 06-12-2009 22:42:03 8.9 C 7.88 g/m*3 8.9 C 0 km/h
1554 06-12-2009 22:54:03 8.6 C 7.65 g/m*3 8.6 C 0 km/h
1555 06-12-2009 23:06:03 8.4 C 7.47 g/m*3 8.4 C 0 km/h
1556 06-12-2009 23:18:03 8 C 7.19 g/m*3 8 C 0 km/h
1557 06-12-2009 23:30:03 7.7 C 7.14 g/m*3 7.7 C 0 km/h
1558 06-12-2009 23:42:03 7.6 C 6.93 g/m*3 7.6 C 0 km/h
1559 06-12-2009 23:54:03 7.3 C 6.72 g/m*3 7.3 C 0 km/h
1560 07-12-2009 00:06:03 6.9 C 6.62 g/m*3 6.9 C 0 km/h
1561 07-12-2009 00:18:03 6.7 C 6.46 g/m*3 6.7 C 0 km/h
1562 07-12-2009 00:30:03 7 C 6.43 g/m*3 7 C 0 km/h
1563 07-12-2009 00:42:03 6.7 C 6.31 g/m*3 6.7 C 0 km/h
1564 07-12-2009 00:54:03 6.6 C 6.34 g/m*3 6.6 C 0 km/h
1565 07-12-2009 01:06:03 6.6 C 6.42 g/m*3 6.6 C 0 km/h
1566 07-12-2009 01:18:03 6.8 C 6.5 g/m*3 6.8 C 0 km/h
1567 07-12-2009 01:30:03 6.6 C 6.42 g/m*3 6.6 C 0 km/h
1568 07-12-2009 01:42:03 6.5 C 6.45 g/m*3 6.5 C 0 km/h
1569 07-12-2009 01:54:03 5.9 C 6.27 g/m*3 5.9 C 0 km/h
1570 07-12-2009 02:06:03 5.4 C 6.07 g/m*3 5.4 C 0 km/h
1571 07-12-2009 02:18:03 4.9 C 5.94 g/m*3 4.9 C 0 km/h
1572 07-12-2009 02:30:04 4.7 C 5.93 g/m*3 4.7 C 0 km/h
1573 07-12-2009 02:42:04 4.7 C 5.93 g/m*3 4.7 C 0 km/h
1574 07-12-2009 02:54:04 4.5 C 5.85 g/m*3 4.5 C 0 km/h
1575 07-12-2009 03:06:04 4.3 C 5.84 g/m*3 4.3 C 0 km/h
Sensor: Nr:Datum:Temp:Abs-Feuchte:Windchill:Wind:
Aussen-T/F 1576 07-12-2009 03:18:04 4.3 C 5.84 g/m*3 4.3 C 0 km/h
1577 07-12-2009 03:30:04 4.4 C 5.94 g/m*3 4.4 C 0 km/h
1578 07-12-2009 03:42:04 4 C 5.79 g/m*3 4 C 0 km/h
1579 07-12-2009 03:54:04 3.9 C 5.81 g/m*3 3.9 C 0 km/h
1580 07-12-2009 04:06:04 3.7 C 5.73 g/m*3 3.7 C 0 km/h
1581 07-12-2009 04:18:04 3.6 C 5.69 g/m*3 3.6 C 0 km/h
1582 07-12-2009 04:30:04 3.5 C 5.66 g/m*3 3.5 C 0 km/h
1583 07-12-2009 04:42:04 3.3 C 5.58 g/m*3 3.3 C 0 km/h
1584 07-12-2009 04:54:04 3 C 5.47 g/m*3 3 C 0 km/h
1585 07-12-2009 05:06:04 3 C 5.53 g/m*3 3 C 0 km/h
1586 07-12-2009 05:18:04 2.9 C 5.55 g/m*3 2.9 C 0 km/h
1587 07-12-2009 05:30:04 2.6 C 5.44 g/m*3 2.6 C 0 km/h
1588 07-12-2009 05:42:04 2.3 C 5.33 g/m*3 2.3 C 0 km/h
1589 07-12-2009 05:54:04 2.2 C 5.29 g/m*3 2.2 C 0 km/h
1590 07-12-2009 06:06:04 2.3 C 5.33 g/m*3 2.3 C 0 km/h
1591 07-12-2009 06:18:04 2.4 C 5.37 g/m*3 2.4 C 0 km/h
1592 07-12-2009 06:30:04 2.3 C 5.33 g/m*3 2.3 C 0 km/h
1593 07-12-2009 06:42:05 2.5 C 5.46 g/m*3 2.5 C 0 km/h
1594 07-12-2009 06:54:05 3 C 5.65 g/m*3 3 C 0 km/h
1595 07-12-2009 07:06:02 3 C 5.65 g/m*3 3 C 0 km/h
1596 07-12-2009 07:18:02 3 C 5.65 g/m*3 3 C 0 km/h
1597 07-12-2009 07:30:02 2.8 C 5.57 g/m*3 2.8 C 0 km/h
1598 07-12-2009 07:42:02 2.9 C 5.61 g/m*3 2.9 C 0 km/h
1599 07-12-2009 07:54:02 2.7 C 5.54 g/m*3 2.7 C 0 km/h
1600 07-12-2009 08:06:02 2.8 C 5.57 g/m*3 2.8 C 0 km/h
Sensor: Nr:Datum:Temp:Abs-Feuchte:Windchill:Wind:
Aussen-T/F 1601 07-12-2009 08:18:02 3.3 C 5.76 g/m*3 3.3 C 0 km/h
1602 07-12-2009 08:30:02 3.3 C 5.76 g/m*3 3.3 C 0 km/h
1603 07-12-2009 08:42:02 3.3 C 5.76 g/m*3 3.3 C 0 km/h
1604 07-12-2009 08:54:01 2.9 C 5.61 g/m*3 2.9 C 0 km/h
1605 07-12-2009 09:06:02 2.9 C 5.61 g/m*3 2.9 C 0 km/h
1606 07-12-2009 09:18:02 3 C 5.65 g/m*3 3 C 0 km/h
1607 07-12-2009 09:30:02 3.4 C 5.8 g/m*3 3.4 C 0 km/h
1608 07-12-2009 09:42:01 4.5 C 6.24 g/m*3 4.5 C 0 km/h
1609 07-12-2009 09:54:01 5.2 C 6.54 g/m*3 5.2 C 0 km/h
1610 07-12-2009 10:06:02 5.4 C 6.63 g/m*3 5.4 C 0 km/h
1611 07-12-2009 10:18:01 5.5 C 6.6 g/m*3 5.5 C 0 km/h
1612 07-12-2009 10:30:01 5.8 C 6.52 g/m*3 5.8 C 0 km/h
1613 07-12-2009 10:42:01 5.9 C 6.42 g/m*3 5.9 C 0 km/h
1614 07-12-2009 10:54:02 6.3 C 6.29 g/m*3 6.3 C 0 km/h
1615 07-12-2009 11:06:02 6.5 C 6.3 g/m*3 6.5 C 0 km/h
1616 07-12-2009 11:18:03 6.7 C 6.23 g/m*3 6.7 C 0 km/h
1617 07-12-2009 11:30:03 6.8 C 6.27 g/m*3 6.8 C 0 km/h
1618 07-12-2009 11:42:02 7 C 6.28 g/m*3 7 C 0 km/h
1619 07-12-2009 11:54:02 7.1 C 6.01 g/m*3 7.1 C 0 km/h
1620 07-12-2009 12:06:01 7.1 C 6.01 g/m*3 7.1 C 0 km/h
1621 07-12-2009 12:18:02 7.4 C 5.88 g/m*3 7.4 C 0 km/h
1622 07-12-2009 12:30:03 7.5 C 5.84 g/m*3 7.5 C 0 km/h
1623 07-12-2009 12:42:01 7.7 C 6.16 g/m*3 7.7 C 0 km/h
1624 07-12-2009 12:54:02 7.9 C 6.16 g/m*3 7.9 C 0 km/h
1625 07-12-2009 13:06:02 7.7 C 6 g/m*3 7.7 C 0 km/h
Sensor: Nr:Datum:Temp:Abs-Feuchte:Windchill:Wind:
Aussen-T/F 1626 07-12-2009 13:18:02 7.8 C 5.96 g/m*3 7.8 C 0 km/h
1627 07-12-2009 13:30:02 7.9 C 5.67 g/m*3 7.9 C 0 km/h
1628 07-12-2009 13:42:03 7.7 C 5.59 g/m*3 7.7 C 0 km/h
1629 07-12-2009 13:54:02 7.5 C 5.68 g/m*3 7.5 C 0 km/h
1630 07-12-2009 14:06:02 7.8 C 5.71 g/m*3 7.8 C 0 km/h
1631 07-12-2009 14:18:02 8 C 5.62 g/m*3 8 C 0 km/h
1632 07-12-2009 14:30:02 8 C 5.21 g/m*3 8 C 0 km/h
1633 07-12-2009 14:42:02 8 C 5.13 g/m*3 8 C 0 km/h
1634 07-12-2009 14:54:01 7.6 C 5.24 g/m*3 7.6 C 0 km/h
1635 07-12-2009 15:06:02 7.4 C 5.25 g/m*3 7.4 C 0 km/h
1636 07-12-2009 15:18:01 7.2 C 5.26 g/m*3 7.2 C 0 km/h
1637 07-12-2009 15:30:01 7.1 C 5.23 g/m*3 7.1 C 0 km/h
1638 07-12-2009 15:42:02 7.1 C 5.3 g/m*3 7.1 C 0 km/h
1639 07-12-2009 15:54:02 7.2 C 5.26 g/m*3 7.2 C 0 km/h
1640 07-12-2009 16:06:02 6.9 C 5.31 g/m*3 6.9 C 0 km/h
1641 07-12-2009 16:18:01 6.7 C 5.32 g/m*3 6.7 C 0 km/h
1642 07-12-2009 16:30:01 6.6 C 5.36 g/m*3 6.6 C 0 km/h
1643 07-12-2009 16:42:02 6.4 C 5.36 g/m*3 6.4 C 0 km/h
1644 07-12-2009 16:54:02 6.3 C 5.55 g/m*3 6.3 C 0 km/h
1645 07-12-2009 17:06:02 6.2 C 5.66 g/m*3 6.2 C 0 km/h
1646 07-12-2009 17:18:02 6.3 C 5.77 g/m*3 6.3 C 0 km/h
1647 07-12-2009 17:30:02 6.3 C 5.85 g/m*3 6.3 C 0 km/h
1648 07-12-2009 17:42:02 6.4 C 5.96 g/m*3 6.4 C 0 km/h
1649 07-12-2009 17:54:01 6.5 C 6 g/m*3 6.5 C 0 km/h
1650 07-12-2009 18:06:02 6.5 C 6 g/m*3 6.5 C 0 km/h
Sensor: Nr:Datum:Temp:Abs-Feuchte:Windchill:Wind:
Aussen-T/F 1651 07-12-2009 18:18:02 6.6 C 6.04 g/m*3 6.6 C 0 km/h
1652 07-12-2009 18:30:02 6.7 C 6.15 g/m*3 6.7 C 0 km/h
1653 07-12-2009 18:42:02 6.6 C 6.11 g/m*3 6.6 C 0 km/h
1654 07-12-2009 18:54:02 6.3 C 6 g/m*3 6.3 C 0 km/h
1655 07-12-2009 19:06:02 6.3 C 6.07 g/m*3 6.3 C 0 km/h
1656 07-12-2009 19:18:02 6.4 C 6.18 g/m*3 6.4 C 0 km/h
1657 07-12-2009 19:30:03 6.4 C 6.18 g/m*3 6.4 C 0 km/h
1658 07-12-2009 19:42:02 6.4 C 6.18 g/m*3 6.4 C 0 km/h
1659 07-12-2009 19:54:02 6.2 C 6.1 g/m*3 6.2 C 0 km/h
1660 07-12-2009 20:06:02 6.2 C 6.18 g/m*3 6.2 C 0 km/h
1661 07-12-2009 20:18:02 6.3 C 6.29 g/m*3 6.3 C 0 km/h
1662 07-12-2009 20:30:02 6.4 C 6.41 g/m*3 6.4 C 0 km/h
1663 07-12-2009 20:42:03 6.3 C 6.44 g/m*3 6.3 C 0 km/h
1664 07-12-2009 20:54:01 6.3 C 6.51 g/m*3 6.3 C 0 km/h
1665 07-12-2009 21:06:02 6.3 C 6.59 g/m*3 6.3 C 0 km/h
1666 07-12-2009 21:18:01 6.4 C 6.71 g/m*3 6.4 C 0 km/h
1667 07-12-2009 21:30:01 6.4 C 6.71 g/m*3 6.4 C 0 km/h
1668 07-12-2009 21:42:02 6.3 C 6.74 g/m*3 6.3 C 0 km/h
1669 07-12-2009 21:55:03 6.4 C 6.85 g/m*3 6.4 C 0 km/h
1670 07-12-2009 22:07:03 6.4 C 6.85 g/m*3 6.4 C 0 km/h
1671 07-12-2009 22:19:03 6.2 C 6.77 g/m*3 6.2 C 0 km/h
1672 07-12-2009 22:31:03 5.9 C 6.71 g/m*3 5.9 C 0 km/h
1673 07-12-2009 22:43:03 5.8 C 6.66 g/m*3 5.8 C 0 km/h
1674 07-12-2009 22:55:03 6 C 6.75 g/m*3 6 C 0 km/h
1675 07-12-2009 23:07:03 6.1 C 6.87 g/m*3 6.1 C 0 km/h
Sensor: Nr:Datum:Temp:Abs-Feuchte:Windchill:Wind:
Aussen-T/F 1676 07-12-2009 23:19:03 6.2 C 6.91 g/m*3 6.2 C 0 km/h
1677 07-12-2009 23:31:03 6.5 C 7.05 g/m*3 6.5 C 0 km/h
1678 07-12-2009 23:43:03 6.4 C 7.08 g/m*3 6.4 C 0 km/h
1679 07-12-2009 23:55:03 6.5 C 7.12 g/m*3 6.5 C 0 km/h
1680 08-12-2009 00:07:03 6.5 C 7.12 g/m*3 6.5 C 0 km/h
1681 08-12-2009 00:19:04 6.4 C 7.08 g/m*3 6.4 C 0 km/h
1682 08-12-2009 00:31:04 6.5 C 7.12 g/m*3 6.5 C 0 km/h
1683 08-12-2009 00:43:04 6.4 C 7.08 g/m*3 6.4 C 0 km/h
1684 08-12-2009 00:55:04 6.4 C 7.08 g/m*3 6.4 C 0 km/h
1685 08-12-2009 01:07:04 6.5 C 7.12 g/m*3 6.5 C 0 km/h
1686 08-12-2009 01:19:04 6.9 C 7.31 g/m*3 6.9 C 0 km/h
1687 08-12-2009 01:31:04 7 C 7.36 g/m*3 7 C 0 km/h
1688 08-12-2009 01:43:04 7.2 C 7.46 g/m*3 7.2 C 0 km/h
1689 08-12-2009 01:55:04 7.3 C 7.51 g/m*3 7.3 C 0 km/h
1690 08-12-2009 02:07:04 7.3 C 7.51 g/m*3 7.3 C 0 km/h
1691 08-12-2009 02:19:04 7.1 C 7.41 g/m*3 7.1 C 0 km/h
1692 08-12-2009 02:31:04 7.2 C 7.46 g/m*3 7.2 C 0 km/h
1693 08-12-2009 02:43:04 7.1 C 7.41 g/m*3 7.1 C 0 km/h
1694 08-12-2009 02:55:04 7.3 C 7.51 g/m*3 7.3 C 0 km/h
1695 08-12-2009 03:07:04 7.5 C 7.6 g/m*3 7.5 C 0 km/h
1696 08-12-2009 03:19:04 7.7 C 7.7 g/m*3 7.7 C 0 km/h
1697 08-12-2009 03:31:04 7.6 C 7.65 g/m*3 7.6 C 0 km/h
1698 08-12-2009 03:43:04 7.7 C 7.7 g/m*3 7.7 C 0 km/h
1699 08-12-2009 03:55:04 8 C 7.85 g/m*3 8 C 0 km/h
1700 08-12-2009 04:07:04 8.1 C 7.9 g/m*3 8.1 C 0 km/h
Sensor: Nr:Datum:Temp:Abs-Feuchte:Windchill:Wind:
Aussen-T/F 1701 08-12-2009 04:19:04 7.9 C 7.8 g/m*3 7.9 C 0 km/h
1702 08-12-2009 04:31:05 7.9 C 7.8 g/m*3 7.9 C 0 km/h
1703 08-12-2009 04:43:05 7.9 C 7.8 g/m*3 7.9 C 0 km/h
1704 08-12-2009 04:55:05 7.8 C 7.75 g/m*3 7.8 C 0 km/h
1705 08-12-2009 05:07:05 7.9 C 7.8 g/m*3 7.9 C 0 km/h
1706 08-12-2009 05:19:05 8.2 C 7.87 g/m*3 8.2 C 0 km/h
1707 08-12-2009 05:31:05 8.5 C 7.85 g/m*3 8.5 C 0 km/h
1708 08-12-2009 05:43:05 8.5 C 7.51 g/m*3 8.5 C 0 km/h
1709 08-12-2009 05:55:05 8.3 C 7 g/m*3 8.3 C 0 km/h
1710 08-12-2009 06:07:05 8 C 6.28 g/m*3 8 C 0 km/h
1711 08-12-2009 06:19:05 7.8 C 6.12 g/m*3 7.8 C 0 km/h
1712 08-12-2009 06:31:05 7.6 C 6.04 g/m*3 7.6 C 0 km/h
1713 08-12-2009 06:43:05 7.4 C 5.88 g/m*3 7.4 C 0 km/h
1714 08-12-2009 06:55:02 7.3 C 6 g/m*3 7.3 C 0 km/h
1715 08-12-2009 07:07:02 7.2 C 5.97 g/m*3 7.2 C 0 km/h
1716 08-12-2009 07:19:03 7.1 C 5.85 g/m*3 7.1 C 0 km/h
1717 08-12-2009 07:31:02 6.8 C 5.97 g/m*3 6.8 C 0 km/h
1718 08-12-2009 07:43:02 6.4 C 5.96 g/m*3 6.4 C 0 km/h
1719 08-12-2009 07:55:03 6.2 C 6.03 g/m*3 6.2 C 0 km/h
1720 08-12-2009 08:07:02 6 C 5.88 g/m*3 6 C 0 km/h
1721 08-12-2009 08:19:02 5.9 C 6.06 g/m*3 5.9 C 0 km/h
1722 08-12-2009 08:31:02 6 C 6.02 g/m*3 6 C 0 km/h
1723 08-12-2009 08:43:02 6 C 6.1 g/m*3 6 C 0 km/h
1724 08-12-2009 08:55:02 6.2 C 6.18 g/m*3 6.2 C 0 km/h
1725 08-12-2009 09:07:02 6.3 C 6.14 g/m*3 6.3 C 0 km/h
Sensor: Nr:Datum:Temp:Abs-Feuchte:Windchill:Wind:
Aussen-T/F 1726 08-12-2009 09:19:02 6.2 C 6.1 g/m*3 6.2 C 0 km/h
1727 08-12-2009 09:31:02 6.2 C 5.96 g/m*3 6.2 C 0 km/h
1728 08-12-2009 09:43:02 6.4 C 5.81 g/m*3 6.4 C 0 km/h
1729 08-12-2009 09:55:02 6.6 C 5.89 g/m*3 6.6 C 0 km/h
1730 08-12-2009 10:07:02 6.8 C 5.89 g/m*3 6.8 C 0 km/h
1731 08-12-2009 10:19:01 6.8 C 5.74 g/m*3 6.8 C 0 km/h
1732 08-12-2009 10:31:02 6.9 C 5.77 g/m*3 6.9 C 0 km/h
1733 08-12-2009 10:43:02 7.1 C 5.85 g/m*3 7.1 C 0 km/h
1734 08-12-2009 10:55:02 7.3 C 5.85 g/m*3 7.3 C 0 km/h
1735 08-12-2009 11:07:02 7.4 C 5.88 g/m*3 7.4 C 0 km/h
1736 08-12-2009 11:19:02 7.4 C 5.81 g/m*3 7.4 C 0 km/h
1737 08-12-2009 11:31:02 7.4 C 5.81 g/m*3 7.4 C 0 km/h
1738 08-12-2009 11:43:02 7.5 C 5.92 g/m*3 7.5 C 0 km/h
1739 08-12-2009 11:55:02 7.4 C 5.73 g/m*3 7.4 C 0 km/h
1740 08-12-2009 12:07:02 7.4 C 5.73 g/m*3 7.4 C 0 km/h
1741 08-12-2009 12:19:02 7.4 C 5.81 g/m*3 7.4 C 0 km/h
1742 08-12-2009 12:31:02 7.6 C 5.72 g/m*3 7.6 C 0 km/h
1743 08-12-2009 12:43:02 7.9 C 5.67 g/m*3 7.9 C 0 km/h
1744 08-12-2009 12:55:02 8 C 5.46 g/m*3 8 C 0 km/h
1745 08-12-2009 13:07:02 8 C 5.37 g/m*3 8 C 0 km/h
1746 08-12-2009 13:19:03 7.9 C 5.5 g/m*3 7.9 C 0 km/h
1747 08-12-2009 13:31:02 7.8 C 5.55 g/m*3 7.8 C 0 km/h
1748 08-12-2009 13:43:02 7.6 C 5.48 g/m*3 7.6 C 0 km/h
1749 08-12-2009 13:55:03 7.5 C 5.52 g/m*3 7.5 C 0 km/h
1750 08-12-2009 14:07:02 7.5 C 5.6 g/m*3 7.5 C 0 km/h
Sensor: Nr:Datum:Temp:Abs-Feuchte:Windchill:Wind:
Aussen-T/F 1751 08-12-2009 14:19:02 7.5 C 5.52 g/m*3 7.5 C 0 km/h
1752 08-12-2009 14:31:02 7.8 C 5.63 g/m*3 7.8 C 0 km/h
1753 08-12-2009 14:43:02 7.8 C 5.55 g/m*3 7.8 C 0 km/h
1754 08-12-2009 14:55:02 7.8 C 5.55 g/m*3 7.8 C 0 km/h
1755 08-12-2009 15:07:02 7.8 C 5.63 g/m*3 7.8 C 0 km/h
1756 08-12-2009 15:19:02 7.7 C 5.59 g/m*3 7.7 C 0 km/h
1757 08-12-2009 15:31:02 7.5 C 5.68 g/m*3 7.5 C 0 km/h
1758 08-12-2009 15:43:02 7.3 C 5.61 g/m*3 7.3 C 0 km/h
1759 08-12-2009 15:55:02 7.4 C 5.57 g/m*3 7.4 C 0 km/h
1760 08-12-2009 16:07:01 7.3 C 5.61 g/m*3 7.3 C 0 km/h
1761 08-12-2009 16:19:01 6.9 C 5.7 g/m*3 6.9 C 0 km/h
1762 08-12-2009 16:31:02 6.9 C 5.62 g/m*3 6.9 C 0 km/h
1763 08-12-2009 16:43:02 6.9 C 5.62 g/m*3 6.9 C 0 km/h
1764 08-12-2009 16:55:02 6.8 C 5.66 g/m*3 6.8 C 0 km/h
1765 08-12-2009 17:07:02 6.5 C 5.7 g/m*3 6.5 C 0 km/h
1766 08-12-2009 17:19:02 6.5 C 5.7 g/m*3 6.5 C 0 km/h
1767 08-12-2009 17:31:02 6.5 C 5.7 g/m*3 6.5 C 0 km/h
1768 08-12-2009 17:43:02 6.4 C 5.66 g/m*3 6.4 C 0 km/h
1769 08-12-2009 17:55:01 6.3 C 5.7 g/m*3 6.3 C 0 km/h
1770 08-12-2009 18:07:02 6 C 5.66 g/m*3 6 C 0 km/h
1771 08-12-2009 18:19:01 5.9 C 5.77 g/m*3 5.9 C 0 km/h
1772 08-12-2009 18:31:02 5.8 C 5.8 g/m*3 5.8 C 0 km/h
1773 08-12-2009 18:43:03 5.7 C 5.76 g/m*3 5.7 C 0 km/h
1774 08-12-2009 18:55:02 5.8 C 5.87 g/m*3 5.8 C 0 km/h
1775 08-12-2009 19:07:02 5.7 C 5.84 g/m*3 5.7 C 0 km/h
Sensor: Nr:Datum:Temp:Abs-Feuchte:Windchill:Wind:
Aussen-T/F 1776 08-12-2009 19:19:01 6 C 5.88 g/m*3 6 C 0 km/h
1777 08-12-2009 19:31:02 6 C 5.81 g/m*3 6 C 0 km/h
1778 08-12-2009 19:43:02 6.1 C 5.84 g/m*3 6.1 C 0 km/h
1779 08-12-2009 19:55:02 6.2 C 5.88 g/m*3 6.2 C 0 km/h
1780 08-12-2009 20:07:02 6.2 C 5.88 g/m*3 6.2 C 0 km/h
1781 08-12-2009 20:19:02 6.3 C 5.92 g/m*3 6.3 C 0 km/h
1782 08-12-2009 20:31:02 6.3 C 6 g/m*3 6.3 C 0 km/h
1783 08-12-2009 20:43:02 6.3 C 6 g/m*3 6.3 C 0 km/h
1784 08-12-2009 20:55:02 6.3 C 6.07 g/m*3 6.3 C 0 km/h
1785 08-12-2009 21:07:01 6.3 C 6.07 g/m*3 6.3 C 0 km/h
1786 08-12-2009 21:19:02 6.4 C 6.11 g/m*3 6.4 C 0 km/h
1787 08-12-2009 21:31:01 6.4 C 6.11 g/m*3 6.4 C 0 km/h
1788 08-12-2009 21:43:01 6.5 C 6.15 g/m*3 6.5 C 0 km/h
1789 08-12-2009 21:55:02 6.5 C 6.15 g/m*3 6.5 C 0 km/h
1790 08-12-2009 22:07:02 6.4 C 6.11 g/m*3 6.4 C 0 km/h
1791 08-12-2009 22:19:02 6.4 C 6.11 g/m*3 6.4 C 0 km/h
1792 08-12-2009 22:31:02 6.4 C 6.11 g/m*3 6.4 C 0 km/h
1793 08-12-2009 22:43:02 6.3 C 6.14 g/m*3 6.3 C 0 km/h
1794 08-12-2009 22:55:02 6.3 C 6.22 g/m*3 6.3 C 0 km/h
1795 08-12-2009 23:07:02 6.4 C 6.26 g/m*3 6.4 C 0 km/h
1796 08-12-2009 23:19:02 6.5 C 6.22 g/m*3 6.5 C 0 km/h
1797 08-12-2009 23:31:02 6.5 C 6.22 g/m*3 6.5 C 0 km/h
1798 08-12-2009 23:43:02 6.4 C 6.26 g/m*3 6.4 C 0 km/h
1799 08-12-2009 23:55:02 6.3 C 6.37 g/m*3 6.3 C 0 km/h
1800 09-12-2009 00:07:01 6.2 C 6.4 g/m*3 6.2 C 0 km/h
Sensor: Nr:Datum:Temp:Abs-Feuchte:Windchill:Wind:
Aussen-T/F 1801 09-12-2009 00:19:02 6.2 C 6.47 g/m*3 6.2 C 0 km/h
1802 09-12-2009 00:31:01 6 C 6.39 g/m*3 6 C 0 km/h
1803 09-12-2009 00:43:01 6 C 6.46 g/m*3 6 C 0 km/h
1804 09-12-2009 00:55:02 6 C 6.46 g/m*3 6 C 0 km/h
1805 09-12-2009 01:07:01 5.9 C 6.49 g/m*3 5.9 C 0 km/h
1806 09-12-2009 01:19:01 6 C 6.46 g/m*3 6 C 0 km/h
1807 09-12-2009 01:31:02 6 C 6.46 g/m*3 6 C 0 km/h
1808 09-12-2009 01:43:02 6.1 C 6.5 g/m*3 6.1 C 0 km/h
1809 09-12-2009 01:55:02 6.1 C 6.5 g/m*3 6.1 C 0 km/h
1810 09-12-2009 02:07:02 6.1 C 6.43 g/m*3 6.1 C 0 km/h
1811 09-12-2009 02:19:02 5.9 C 6.42 g/m*3 5.9 C 0 km/h
1812 09-12-2009 02:31:02 5.9 C 6.35 g/m*3 5.9 C 0 km/h
1813 09-12-2009 02:43:02 5.7 C 6.26 g/m*3 5.7 C 0 km/h
1814 09-12-2009 02:55:01 5.5 C 6.18 g/m*3 5.5 C 0 km/h
1815 09-12-2009 03:07:01 5.5 C 6.18 g/m*3 5.5 C 0 km/h
1816 09-12-2009 03:19:02 5.6 C 6.29 g/m*3 5.6 C 0 km/h
1817 09-12-2009 03:31:01 5.8 C 6.3 g/m*3 5.8 C 0 km/h
1818 09-12-2009 03:43:01 5.9 C 6.2 g/m*3 5.9 C 0 km/h
1819 09-12-2009 03:55:01 5.9 C 6.13 g/m*3 5.9 C 0 km/h
1820 09-12-2009 04:07:01 5.9 C 6.06 g/m*3 5.9 C 0 km/h
1821 09-12-2009 04:19:01 5.9 C 5.98 g/m*3 5.9 C 0 km/h
1822 09-12-2009 04:31:02 5.9 C 5.91 g/m*3 5.9 C 0 km/h
1823 09-12-2009 04:43:02 5.9 C 5.91 g/m*3 5.9 C 0 km/h
1824 09-12-2009 04:55:01 5.9 C 5.84 g/m*3 5.9 C 0 km/h
1825 09-12-2009 05:07:02 5.9 C 5.84 g/m*3 5.9 C 0 km/h
Sensor: Nr:Datum:Temp:Abs-Feuchte:Windchill:Wind:
Aussen-T/F 1826 09-12-2009 05:19:01 6 C 5.81 g/m*3 6 C 0 km/h
1827 09-12-2009 05:31:01 6 C 5.73 g/m*3 6 C 0 km/h
1828 09-12-2009 05:43:01 6 C 5.73 g/m*3 6 C 0 km/h
1829 09-12-2009 05:55:01 5.9 C 5.77 g/m*3 5.9 C 0 km/h
1830 09-12-2009 06:07:01 6 C 5.66 g/m*3 6 C 0 km/h
1831 09-12-2009 06:19:01 6 C 5.59 g/m*3 6 C 0 km/h
1832 09-12-2009 06:31:01 6 C 5.59 g/m*3 6 C 0 km/h
1833 09-12-2009 06:43:01 6 C 5.66 g/m*3 6 C 0 km/h
1834 09-12-2009 06:55:01 6.2 C 5.59 g/m*3 6.2 C 0 km/h
1835 09-12-2009 07:07:01 6.2 C 5.52 g/m*3 6.2 C 0 km/h
1836 09-12-2009 07:19:02 6.3 C 5.55 g/m*3 6.3 C 0 km/h
1837 09-12-2009 07:31:01 6.4 C 5.59 g/m*3 6.4 C 0 km/h
1838 09-12-2009 07:43:01 6.4 C 5.59 g/m*3 6.4 C 0 km/h
1839 09-12-2009 07:55:02 6.4 C 5.59 g/m*3 6.4 C 0 km/h
1840 09-12-2009 08:07:01 6.4 C 5.66 g/m*3 6.4 C 0 km/h
1841 09-12-2009 08:19:01 6.3 C 5.63 g/m*3 6.3 C 0 km/h
1842 09-12-2009 08:31:01 5.8 C 5.52 g/m*3 5.8 C 0 km/h
1843 09-12-2009 08:43:01 5.7 C 5.55 g/m*3 5.7 C 0 km/h
1844 09-12-2009 08:55:02 5.3 C 5.48 g/m*3 5.3 C 0 km/h
1845 09-12-2009 09:07:01 5.2 C 5.58 g/m*3 5.2 C 0 km/h
1846 09-12-2009 09:19:01 5.5 C 5.69 g/m*3 5.5 C 0 km/h
1847 09-12-2009 09:31:02 5.7 C 5.76 g/m*3 5.7 C 0 km/h
1848 09-12-2009 09:43:02 5.9 C 5.84 g/m*3 5.9 C 0 km/h
1849 09-12-2009 09:55:01 6 C 5.73 g/m*3 6 C 0 km/h
1850 09-12-2009 10:07:02 6.5 C 5.85 g/m*3 6.5 C 0 km/h
Sensor: Nr:Datum:Temp:Abs-Feuchte:Windchill:Wind:
Aussen-T/F 1851 09-12-2009 10:19:01 7.1 C 5.77 g/m*3 7.1 C 0 km/h
1852 09-12-2009 10:31:01 7.5 C 5.6 g/m*3 7.5 C 0 km/h
1853 09-12-2009 10:43:02 7.6 C 5.64 g/m*3 7.6 C 0 km/h
1854 09-12-2009 10:55:01 7.6 C 5.56 g/m*3 7.6 C 0 km/h
1855 09-12-2009 11:07:02 7.8 C 5.63 g/m*3 7.8 C 0 km/h
1856 09-12-2009 11:19:01 7.9 C 5.59 g/m*3 7.9 C 0 km/h
1857 09-12-2009 11:31:01 8 C 5.62 g/m*3 8 C 0 km/h
1858 09-12-2009 11:43:01 8 C 5.54 g/m*3 8 C 0 km/h
1859 09-12-2009 11:55:01 8.1 C 5.57 g/m*3 8.1 C 0 km/h
1860 09-12-2009 12:07:01 8.2 C 5.61 g/m*3 8.2 C 0 km/h
1861 09-12-2009 12:19:02 8.4 C 5.6 g/m*3 8.4 C 0 km/h
1862 09-12-2009 12:31:01 8.5 C 5.64 g/m*3 8.5 C 0 km/h
1863 09-12-2009 12:43:01 8.4 C 5.6 g/m*3 8.4 C 0 km/h
1864 09-12-2009 12:55:02 8.7 C 5.71 g/m*3 8.7 C 0 km/h
1865 09-12-2009 13:07:01 9 C 5.64 g/m*3 9 C 0 km/h
1866 09-12-2009 13:19:02 9.1 C 5.68 g/m*3 9.1 C 0 km/h
1867 09-12-2009 13:31:01 8.7 C 5.71 g/m*3 8.7 C 0 km/h
1868 09-12-2009 13:43:01 8.8 C 5.83 g/m*3 8.8 C 0 km/h
1869 09-12-2009 13:55:02 9.1 C 5.86 g/m*3 9.1 C 0 km/h
1870 09-12-2009 14:07:01 8.9 C 5.87 g/m*3 8.9 C 0 km/h
1871 09-12-2009 14:19:01 8.8 C 5.92 g/m*3 8.8 C 0 km/h
1872 09-12-2009 14:31:02 9 C 5.91 g/m*3 9 C 0 km/h
1873 09-12-2009 14:43:02 9.3 C 6.02 g/m*3 9.3 C 0 km/h
1874 09-12-2009 14:55:01 9.3 C 6.02 g/m*3 9.3 C 0 km/h
1875 09-12-2009 15:07:02 9.4 C 5.97 g/m*3 9.4 C 0 km/h
Sensor: Nr:Datum:Temp:Abs-Feuchte:Windchill:Wind:
Aussen-T/F 1876 09-12-2009 15:19:01 9.2 C 5.89 g/m*3 9.2 C 0 km/h
1877 09-12-2009 15:31:02 9.1 C 5.86 g/m*3 9.1 C 0 km/h
1878 09-12-2009 15:43:02 9.1 C 5.94 g/m*3 9.1 C 0 km/h
1879 09-12-2009 15:55:01 9 C 5.91 g/m*3 9 C 0 km/h
1880 09-12-2009 16:07:02 9 C 5.99 g/m*3 9 C 0 km/h
1881 09-12-2009 16:19:01 8.9 C 6.13 g/m*3 8.9 C 0 km/h
1882 09-12-2009 16:31:01 8.7 C 6.14 g/m*3 8.7 C 0 km/h
1883 09-12-2009 16:43:01 8.6 C 6.19 g/m*3 8.6 C 0 km/h
1884 09-12-2009 16:55:01 8.6 C 6.27 g/m*3 8.6 C 0 km/h
1885 09-12-2009 17:07:01 8.5 C 6.32 g/m*3 8.5 C 0 km/h
1886 09-12-2009 17:19:02 8.4 C 6.28 g/m*3 8.4 C 0 km/h
1887 09-12-2009 17:31:01 8.4 C 6.36 g/m*3 8.4 C 0 km/h
1888 09-12-2009 17:43:01 8.4 C 6.36 g/m*3 8.4 C 0 km/h
1889 09-12-2009 17:55:01 8.2 C 6.36 g/m*3 8.2 C 0 km/h
1890 09-12-2009 18:07:02 8.1 C 6.41 g/m*3 8.1 C 0 km/h
1891 09-12-2009 18:19:01 8.2 C 6.53 g/m*3 8.2 C 0 km/h
1892 09-12-2009 18:31:01 8.2 C 6.53 g/m*3 8.2 C 0 km/h
1893 09-12-2009 18:43:01 8.2 C 6.53 g/m*3 8.2 C 0 km/h
1894 09-12-2009 18:55:01 8.4 C 6.62 g/m*3 8.4 C 0 km/h
1895 09-12-2009 19:07:01 8.1 C 6.41 g/m*3 8.1 C 0 km/h
1896 09-12-2009 19:19:02 7.8 C 6.53 g/m*3 7.8 C 0 km/h
1897 09-12-2009 19:31:01 7.8 C 6.69 g/m*3 7.8 C 0 km/h
1898 09-12-2009 19:43:01 7.7 C 6.73 g/m*3 7.7 C 0 km/h
1899 09-12-2009 19:55:01 7.7 C 6.81 g/m*3 7.7 C 0 km/h
1900 09-12-2009 20:07:01 7.7 C 6.89 g/m*3 7.7 C 0 km/h
Sensor: Nr:Datum:Temp:Abs-Feuchte:Windchill:Wind:
Aussen-T/F 1901 09-12-2009 20:19:02 7.8 C 6.94 g/m*3 7.8 C 0 km/h
1902 09-12-2009 20:31:01 7.8 C 7.02 g/m*3 7.8 C 0 km/h
1903 09-12-2009 20:43:01 7.8 C 7.02 g/m*3 7.8 C 0 km/h
1904 09-12-2009 20:55:02 7.7 C 7.05 g/m*3 7.7 C 0 km/h
1905 09-12-2009 21:07:02 7.7 C 7.05 g/m*3 7.7 C 0 km/h
1906 09-12-2009 21:19:01 7.8 C 7.1 g/m*3 7.8 C 0 km/h
1907 09-12-2009 21:31:01 7.8 C 7.1 g/m*3 7.8 C 0 km/h
1908 09-12-2009 21:43:01 7.6 C 7.01 g/m*3 7.6 C 0 km/h
1909 09-12-2009 21:55:01 7.6 C 7.09 g/m*3 7.6 C 0 km/h
1910 09-12-2009 22:08:02 7.6 C 7.09 g/m*3 7.6 C 0 km/h
1911 09-12-2009 22:20:02 7.6 C 7.09 g/m*3 7.6 C 0 km/h
1912 09-12-2009 22:32:02 7.7 C 7.14 g/m*3 7.7 C 0 km/h
1913 09-12-2009 22:44:03 7.6 C 7.17 g/m*3 7.6 C 0 km/h
1914 09-12-2009 22:56:03 7.6 C 7.17 g/m*3 7.6 C 0 km/h
1915 09-12-2009 23:08:03 7.6 C 7.17 g/m*3 7.6 C 0 km/h
1916 09-12-2009 23:20:03 7.5 C 7.12 g/m*3 7.5 C 0 km/h
1917 09-12-2009 23:32:03 7.5 C 7.2 g/m*3 7.5 C 0 km/h
1918 09-12-2009 23:44:03 7.5 C 7.28 g/m*3 7.5 C 0 km/h
1919 09-12-2009 23:56:03 7.5 C 7.28 g/m*3 7.5 C 0 km/h
1920 10-12-2009 00:08:03 7.5 C 7.36 g/m*3 7.5 C 0 km/h
1921 10-12-2009 00:20:03 7.4 C 7.32 g/m*3 7.4 C 0 km/h
1922 10-12-2009 00:32:03 7.4 C 7.32 g/m*3 7.4 C 0 km/h
1923 10-12-2009 00:44:03 7.4 C 7.32 g/m*3 7.4 C 0 km/h
1924 10-12-2009 00:56:03 7.5 C 7.44 g/m*3 7.5 C 0 km/h
1925 10-12-2009 01:08:03 7.5 C 7.44 g/m*3 7.5 C 0 km/h
Sensor: Nr:Datum:Temp:Abs-Feuchte:Windchill:Wind:
Aussen-T/F 1926 10-12-2009 01:20:03 7.5 C 7.44 g/m*3 7.5 C 0 km/h
1927 10-12-2009 01:32:03 7.6 C 7.49 g/m*3 7.6 C 0 km/h
1928 10-12-2009 01:44:04 7.6 C 7.49 g/m*3 7.6 C 0 km/h
1929 10-12-2009 01:56:04 7.7 C 7.54 g/m*3 7.7 C 0 km/h
1930 10-12-2009 02:08:04 7.7 C 7.54 g/m*3 7.7 C 0 km/h
1931 10-12-2009 02:20:04 7.6 C 7.49 g/m*3 7.6 C 0 km/h
1932 10-12-2009 02:32:04 7.6 C 7.49 g/m*3 7.6 C 0 km/h
1933 10-12-2009 02:44:04 7.6 C 7.49 g/m*3 7.6 C 0 km/h
1934 10-12-2009 02:56:04 7.7 C 7.54 g/m*3 7.7 C 0 km/h
1935 10-12-2009 03:08:04 7.7 C 7.54 g/m*3 7.7 C 0 km/h
1936 10-12-2009 03:20:04 7.7 C 7.54 g/m*3 7.7 C 0 km/h
1937 10-12-2009 03:32:04 7.7 C 7.62 g/m*3 7.7 C 0 km/h
1938 10-12-2009 03:44:04 7.8 C 7.67 g/m*3 7.8 C 0 km/h
1939 10-12-2009 03:56:04 7.8 C 7.67 g/m*3 7.8 C 0 km/h
1940 10-12-2009 04:08:04 7.8 C 7.67 g/m*3 7.8 C 0 km/h
1941 10-12-2009 04:20:04 7.8 C 7.67 g/m*3 7.8 C 0 km/h
1942 10-12-2009 04:32:04 7.8 C 7.67 g/m*3 7.8 C 0 km/h
1943 10-12-2009 04:44:04 7.8 C 7.67 g/m*3 7.8 C 0 km/h
1944 10-12-2009 04:56:04 7.8 C 7.67 g/m*3 7.8 C 0 km/h
1945 10-12-2009 05:08:04 7.8 C 7.67 g/m*3 7.8 C 0 km/h
1946 10-12-2009 05:20:04 7.9 C 7.72 g/m*3 7.9 C 0 km/h
1947 10-12-2009 05:32:04 7.9 C 7.72 g/m*3 7.9 C 0 km/h
1948 10-12-2009 05:44:04 7.8 C 7.67 g/m*3 7.8 C 0 km/h
1949 10-12-2009 05:56:04 7.9 C 7.8 g/m*3 7.9 C 0 km/h
1950 10-12-2009 06:08:05 8 C 7.77 g/m*3 8 C 0 km/h
Sensor: Nr:Datum:Temp:Abs-Feuchte:Windchill:Wind:
Aussen-T/F 1951 10-12-2009 06:20:05 8.4 C 7.97 g/m*3 8.4 C 0 km/h
1952 10-12-2009 06:32:05 8.5 C 8.11 g/m*3 8.5 C 0 km/h
1953 10-12-2009 06:44:05 8.7 C 8.22 g/m*3 8.7 C 0 km/h
1954 10-12-2009 06:56:05 8.9 C 8.32 g/m*3 8.9 C 0 km/h
1955 10-12-2009 07:08:02 9 C 8.38 g/m*3 9 C 0 km/h
1956 10-12-2009 07:20:02 8.9 C 8.32 g/m*3 8.9 C 0 km/h
1957 10-12-2009 07:32:02 8.9 C 8.32 g/m*3 8.9 C 0 km/h
1958 10-12-2009 07:44:02 8.8 C 8.27 g/m*3 8.8 C 0 km/h
1959 10-12-2009 07:56:02 8.9 C 8.32 g/m*3 8.9 C 0 km/h
1960 10-12-2009 08:08:01 8.9 C 8.32 g/m*3 8.9 C 0 km/h
1961 10-12-2009 08:20:02 8.8 C 8.27 g/m*3 8.8 C 0 km/h
1962 10-12-2009 08:32:02 8.5 C 8.11 g/m*3 8.5 C 0 km/h
1963 10-12-2009 08:44:02 8.5 C 8.11 g/m*3 8.5 C 0 km/h
1964 10-12-2009 08:56:01 8.4 C 8.06 g/m*3 8.4 C 0 km/h
1965 10-12-2009 09:08:01 8.7 C 8.22 g/m*3 8.7 C 0 km/h
1966 10-12-2009 09:20:01 8.7 C 8.22 g/m*3 8.7 C 0 km/h
1967 10-12-2009 09:32:01 8.8 C 8.27 g/m*3 8.8 C 0 km/h
1968 10-12-2009 09:44:01 8.9 C 8.32 g/m*3 8.9 C 0 km/h
1969 10-12-2009 09:56:02 8.9 C 8.32 g/m*3 8.9 C 0 km/h
1970 10-12-2009 10:08:02 8.9 C 8.32 g/m*3 8.9 C 0 km/h
1971 10-12-2009 10:20:01 9 C 8.38 g/m*3 9 C 0 km/h
1972 10-12-2009 10:32:02 9 C 8.29 g/m*3 9 C 0 km/h
1973 10-12-2009 10:44:02 8.9 C 8.32 g/m*3 8.9 C 0 km/h
1974 10-12-2009 10:56:02 9.1 C 8.34 g/m*3 9.1 C 0 km/h
1975 10-12-2009 11:08:02 9.3 C 8.45 g/m*3 9.3 C 0 km/h
Sensor: Nr:Datum:Temp:Abs-Feuchte:Windchill:Wind:
Aussen-T/F 1976 10-12-2009 11:20:01 9.7 C 8.57 g/m*3 9.7 C 0 km/h
1977 10-12-2009 11:32:01 9.6 C 8.43 g/m*3 9.6 C 0 km/h
1978 10-12-2009 11:44:01 9.8 C 8.35 g/m*3 9.8 C 0 km/h
1979 10-12-2009 11:56:02 10 C 7.99 g/m*3 10 C 0 km/h
1980 10-12-2009 12:08:02 10 C 7.52 g/m*3 10 C 0 km/h
1981 10-12-2009 12:20:02 10 C 7.8 g/m*3 10 C 0 km/h
1982 10-12-2009 12:32:01 10 C 7.61 g/m*3 10 C 0 km/h
1983 10-12-2009 12:44:01 10.1 C 7.09 g/m*3 10.1 C 0 km/h
1984 10-12-2009 12:56:03 10.1 C 6.71 g/m*3 10.1 C 0 km/h
1985 10-12-2009 13:08:02 10.3 C 6.8 g/m*3 10.3 C 0 km/h
1986 10-12-2009 13:20:03 10.4 C 6.46 g/m*3 10.4 C 0 km/h
1987 10-12-2009 13:32:02 10.7 C 6.29 g/m*3 10.7 C 0 km/h
1988 10-12-2009 13:44:02 10.8 C 6.13 g/m*3 10.8 C 0 km/h
1989 10-12-2009 13:56:02 10.9 C 5.97 g/m*3 10.9 C 0 km/h
1990 10-12-2009 14:08:01 10.8 C 6.03 g/m*3 10.8 C 0 km/h
1991 10-12-2009 14:20:02 10.8 C 6.03 g/m*3 10.8 C 0 km/h
1992 10-12-2009 14:32:02 10.8 C 6.03 g/m*3 10.8 C 0 km/h
1993 10-12-2009 14:44:02 10.8 C 5.93 g/m*3 10.8 C 0 km/h
1994 10-12-2009 14:56:02 11 C 5.71 g/m*3 11 C 0 km/h
1995 10-12-2009 15:08:02 10.8 C 5.73 g/m*3 10.8 C 0 km/h
1996 10-12-2009 15:20:02 10.8 C 5.63 g/m*3 10.8 C 0 km/h
1997 10-12-2009 15:32:02 10.5 C 5.53 g/m*3 10.5 C 0 km/h
1998 10-12-2009 15:44:02 10.4 C 5.3 g/m*3 10.4 C 0 km/h
1999 10-12-2009 15:56:02 10.4 C 5.11 g/m*3 10.4 C 0 km/h
2000 10-12-2009 16:08:02 10.2 C 5.14 g/m*3 10.2 C 0 km/h
Sensor: Nr:Datum:Temp:Abs-Feuchte:Windchill:Wind:
Aussen-T/F 2001 10-12-2009 16:20:01 10.1 C 5.01 g/m*3 10.1 C 0 km/h
2002 10-12-2009 16:32:02 9.9 C 5.04 g/m*3 9.9 C 0 km/h
2003 10-12-2009 16:44:02 9.8 C 5.1 g/m*3 9.8 C 0 km/h
2004 10-12-2009 16:56:02 9.8 C 5.2 g/m*3 9.8 C 0 km/h
2005 10-12-2009 17:08:02 9.7 C 5.35 g/m*3 9.7 C 0 km/h
2006 10-12-2009 17:20:02 9.5 C 5.37 g/m*3 9.5 C 0 km/h
2007 10-12-2009 17:32:02 9.3 C 5.39 g/m*3 9.3 C 0 km/h
2008 10-12-2009 17:44:03 9.1 C 5.5 g/m*3 9.1 C 0 km/h
2009 10-12-2009 17:56:01 9 C 5.29 g/m*3 9 C 0 km/h
2010 10-12-2009 18:08:02 8.7 C 5.28 g/m*3 8.7 C 0 km/h
2011 10-12-2009 18:20:01 8.5 C 5.29 g/m*3 8.5 C 0 km/h
2012 10-12-2009 18:32:02 8.7 C 5.45 g/m*3 8.7 C 0 km/h
2013 10-12-2009 18:44:02 8.7 C 5.53 g/m*3 8.7 C 0 km/h
2014 10-12-2009 18:56:01 8.7 C 5.53 g/m*3 8.7 C 0 km/h
2015 10-12-2009 19:08:02 8.7 C 5.71 g/m*3 8.7 C 0 km/h
2016 10-12-2009 19:20:02 8.2 C 5.95 g/m*3 8.2 C 0 km/h
2017 10-12-2009 19:32:02 8.2 C 6.11 g/m*3 8.2 C 0 km/h
2018 10-12-2009 19:44:02 8.1 C 6.16 g/m*3 8.1 C 0 km/h
2019 10-12-2009 19:56:02 8.3 C 6.15 g/m*3 8.3 C 0 km/h
2020 10-12-2009 20:08:03 8.3 C 6.15 g/m*3 8.3 C 0 km/h
2021 10-12-2009 20:20:04 8.6 C 6.1 g/m*3 8.6 C 0 km/h
2022 10-12-2009 20:32:02 8.6 C 6.02 g/m*3 8.6 C 0 km/h
2023 10-12-2009 20:44:02 8.5 C 5.98 g/m*3 8.5 C 0 km/h
2024 10-12-2009 20:56:02 8.6 C 5.93 g/m*3 8.6 C 0 km/h
2025 10-12-2009 21:08:02 8.5 C 6.06 g/m*3 8.5 C 0 km/h
Sensor: Nr:Datum:Temp:Abs-Feuchte:Windchill:Wind:
Aussen-T/F 2026 10-12-2009 21:20:02 7.9 C 6.24 g/m*3 7.9 C 0 km/h
2027 10-12-2009 21:32:02 7.9 C 6.32 g/m*3 7.9 C 0 km/h
2028 10-12-2009 21:44:02 7.9 C 6.32 g/m*3 7.9 C 0 km/h
2029 10-12-2009 21:56:02 8.2 C 6.2 g/m*3 8.2 C 0 km/h
2030 10-12-2009 22:08:01 8.5 C 6.06 g/m*3 8.5 C 0 km/h
2031 10-12-2009 22:21:03 8.5 C 6.06 g/m*3 8.5 C 0 km/h
2032 10-12-2009 22:33:03 8.4 C 6.11 g/m*3 8.4 C 0 km/h
2033 10-12-2009 22:45:03 8.3 C 6.24 g/m*3 8.3 C 0 km/h
2034 10-12-2009 22:57:03 8.3 C 6.32 g/m*3 8.3 C 0 km/h
2035 10-12-2009 23:09:03 8.3 C 6.32 g/m*3 8.3 C 0 km/h
2036 10-12-2009 23:21:03 8.1 C 6.41 g/m*3 8.1 C 0 km/h
2037 10-12-2009 23:33:03 8 C 6.45 g/m*3 8 C 0 km/h
2038 10-12-2009 23:45:03 7.9 C 6.74 g/m*3 7.9 C 0 km/h
2039 10-12-2009 23:57:03 7.7 C 6.81 g/m*3 7.7 C 0 km/h
2040 11-12-2009 00:09:03 7.6 C 6.93 g/m*3 7.6 C 0 km/h
2041 11-12-2009 00:21:03 7.5 C 7.04 g/m*3 7.5 C 0 km/h
2042 11-12-2009 00:33:03 7.6 C 7.09 g/m*3 7.6 C 0 km/h
2043 11-12-2009 00:45:03 7.7 C 7.14 g/m*3 7.7 C 0 km/h
2044 11-12-2009 00:57:03 7.8 C 7.1 g/m*3 7.8 C 0 km/h
2045 11-12-2009 01:09:03 7.8 C 7.1 g/m*3 7.8 C 0 km/h
2046 11-12-2009 01:21:03 7.8 C 7.1 g/m*3 7.8 C 0 km/h
2047 11-12-2009 01:33:03 7.8 C 7.1 g/m*3 7.8 C 0 km/h
2048 11-12-2009 01:45:03 7.9 C 7.06 g/m*3 7.9 C 0 km/h
2049 11-12-2009 01:57:03 7.9 C 6.98 g/m*3 7.9 C 0 km/h
2050 11-12-2009 02:09:04 8 C 6.86 g/m*3 8 C 0 km/h
Sensor: Nr:Datum:Temp:Abs-Feuchte:Windchill:Wind:
Aussen-T/F 2051 11-12-2009 02:21:04 7.9 C 6.9 g/m*3 7.9 C 0 km/h
2052 11-12-2009 02:33:04 7.8 C 6.94 g/m*3 7.8 C 0 km/h
2053 11-12-2009 02:45:04 7.9 C 6.98 g/m*3 7.9 C 0 km/h
2054 11-12-2009 02:57:04 8 C 6.94 g/m*3 8 C 0 km/h
2055 11-12-2009 03:09:04 8 C 6.94 g/m*3 8 C 0 km/h
2056 11-12-2009 03:21:04 8 C 6.86 g/m*3 8 C 0 km/h
2057 11-12-2009 03:33:04 7.9 C 6.98 g/m*3 7.9 C 0 km/h
2058 11-12-2009 03:45:04 7.9 C 7.06 g/m*3 7.9 C 0 km/h
2059 11-12-2009 03:57:04 7.9 C 7.06 g/m*3 7.9 C 0 km/h
2060 11-12-2009 04:09:04 8.1 C 6.91 g/m*3 8.1 C 0 km/h
2061 11-12-2009 04:21:04 8.2 C 6.95 g/m*3 8.2 C 0 km/h
2062 11-12-2009 04:33:04 8.1 C 6.91 g/m*3 8.1 C 0 km/h
2063 11-12-2009 04:45:04 8.1 C 6.91 g/m*3 8.1 C 0 km/h
2064 11-12-2009 04:57:04 8 C 6.86 g/m*3 8 C 0 km/h
2065 11-12-2009 05:09:04 7.9 C 6.98 g/m*3 7.9 C 0 km/h
2066 11-12-2009 05:21:04 7.8 C 7.02 g/m*3 7.8 C 0 km/h
2067 11-12-2009 05:33:04 7.8 C 7.02 g/m*3 7.8 C 0 km/h
2068 11-12-2009 05:45:04 7.9 C 7.06 g/m*3 7.9 C 0 km/h
2069 11-12-2009 05:57:04 7.9 C 6.9 g/m*3 7.9 C 0 km/h
2070 11-12-2009 06:09:04 8 C 6.7 g/m*3 8 C 0 km/h
2071 11-12-2009 06:21:04 7.8 C 6.77 g/m*3 7.8 C 0 km/h
2072 11-12-2009 06:33:05 7.6 C 6.93 g/m*3 7.6 C 0 km/h
2073 11-12-2009 06:45:05 7.4 C 7 g/m*3 7.4 C 0 km/h
2074 11-12-2009 06:57:05 7.3 C 6.95 g/m*3 7.3 C 0 km/h
2075 11-12-2009 07:09:02 7 C 6.82 g/m*3 7 C 0 km/h
Sensor: Nr:Datum:Temp:Abs-Feuchte:Windchill:Wind:
Aussen-T/F 2076 11-12-2009 07:21:03 7.3 C 7.03 g/m*3 7.3 C 0 km/h
2077 11-12-2009 07:33:03 7.4 C 7.08 g/m*3 7.4 C 0 km/h
2078 11-12-2009 07:45:02 7.4 C 7 g/m*3 7.4 C 0 km/h
2079 11-12-2009 07:57:02 7.6 C 7.01 g/m*3 7.6 C 0 km/h
2080 11-12-2009 08:09:02 7.6 C 6.77 g/m*3 7.6 C 0 km/h
2081 11-12-2009 08:21:02 7.7 C 6.57 g/m*3 7.7 C 0 km/h
2082 11-12-2009 08:33:03 7.7 C 6.49 g/m*3 7.7 C 0 km/h
2083 11-12-2009 08:45:02 7.7 C 6.57 g/m*3 7.7 C 0 km/h
2084 11-12-2009 08:57:02 7.8 C 6.61 g/m*3 7.8 C 0 km/h
2085 11-12-2009 09:09:02 7.7 C 6.49 g/m*3 7.7 C 0 km/h
2086 11-12-2009 09:21:01 7.7 C 6.41 g/m*3 7.7 C 0 km/h
2087 11-12-2009 09:33:02 7.6 C 6.2 g/m*3 7.6 C 0 km/h
2088 11-12-2009 09:45:02 7.6 C 6.04 g/m*3 7.6 C 0 km/h
2089 11-12-2009 09:57:02 7.6 C 5.96 g/m*3 7.6 C 0 km/h
2090 11-12-2009 10:09:02 7.4 C 5.73 g/m*3 7.4 C 0 km/h
2091 11-12-2009 10:21:02 7.4 C 5.57 g/m*3 7.4 C 0 km/h
2092 11-12-2009 10:33:02 7.3 C 5.45 g/m*3 7.3 C 0 km/h
2093 11-12-2009 10:45:02 7.3 C 5.45 g/m*3 7.3 C 0 km/h
2094 11-12-2009 10:57:02 7.5 C 5.44 g/m*3 7.5 C 0 km/h
2095 11-12-2009 11:09:02 7.6 C 5.4 g/m*3 7.6 C 0 km/h
2096 11-12-2009 11:21:02 7.5 C 5.44 g/m*3 7.5 C 0 km/h
2097 11-12-2009 11:33:02 7.5 C 5.36 g/m*3 7.5 C 0 km/h
2098 11-12-2009 11:45:02 7.9 C 5.42 g/m*3 7.9 C 0 km/h
2099 11-12-2009 11:57:02 8.2 C 5.36 g/m*3 8.2 C 0 km/h
2100 11-12-2009 12:09:02 8.3 C 5.31 g/m*3 8.3 C 0 km/h
Sensor: Nr:Datum:Temp:Abs-Feuchte:Windchill:Wind:
Aussen-T/F 2101 11-12-2009 12:21:03 8 C 5.29 g/m*3 8 C 0 km/h
2102 11-12-2009 12:33:02 7.8 C 5.3 g/m*3 7.8 C 0 km/h
2103 11-12-2009 12:45:03 7.7 C 5.27 g/m*3 7.7 C 0 km/h
2104 11-12-2009 12:57:03 7.7 C 5.27 g/m*3 7.7 C 0 km/h
2105 11-12-2009 13:09:02 7.9 C 5.34 g/m*3 7.9 C 0 km/h
2106 11-12-2009 13:21:02 7.9 C 5.42 g/m*3 7.9 C 0 km/h
2107 11-12-2009 13:33:02 7.8 C 5.3 g/m*3 7.8 C 0 km/h
2108 11-12-2009 13:45:02 7.7 C 5.27 g/m*3 7.7 C 0 km/h
2109 11-12-2009 13:57:02 7.7 C 5.35 g/m*3 7.7 C 0 km/h
2110 11-12-2009 14:09:02 7.6 C 5.32 g/m*3 7.6 C 0 km/h
2111 11-12-2009 14:21:02 7.4 C 5.17 g/m*3 7.4 C 0 km/h
2112 11-12-2009 14:33:02 7.3 C 5.14 g/m*3 7.3 C 0 km/h
2113 11-12-2009 14:45:02 7.3 C 5.14 g/m*3 7.3 C 0 km/h
2114 11-12-2009 14:57:03 7.3 C 5.21 g/m*3 7.3 C 0 km/h
2115 11-12-2009 15:09:01 7.1 C 5.15 g/m*3 7.1 C 0 km/h
2116 11-12-2009 15:21:01 7.1 C 5.15 g/m*3 7.1 C 0 km/h
2117 11-12-2009 15:33:02 7 C 5.19 g/m*3 7 C 0 km/h
2118 11-12-2009 15:45:02 7 C 5.27 g/m*3 7 C 0 km/h
2119 11-12-2009 15:57:02 6.8 C 5.51 g/m*3 6.8 C 0 km/h
2120 11-12-2009 16:09:02 6.5 C 5.55 g/m*3 6.5 C 0 km/h
2121 11-12-2009 16:21:02 6.3 C 5.63 g/m*3 6.3 C 0 km/h
2122 11-12-2009 16:33:02 6.4 C 5.74 g/m*3 6.4 C 0 km/h
2123 11-12-2009 16:45:02 6.3 C 5.7 g/m*3 6.3 C 0 km/h
2124 11-12-2009 16:57:02 6.3 C 5.7 g/m*3 6.3 C 0 km/h
2125 11-12-2009 17:09:02 6.3 C 5.63 g/m*3 6.3 C 0 km/h
Sensor: Nr:Datum:Temp:Abs-Feuchte:Windchill:Wind:
Aussen-T/F 2126 11-12-2009 17:21:02 6.2 C 5.66 g/m*3 6.2 C 0 km/h
2127 11-12-2009 17:33:02 6 C 5.81 g/m*3 6 C 0 km/h
2128 11-12-2009 17:45:02 5.8 C 6.02 g/m*3 5.8 C 0 km/h
2129 11-12-2009 17:57:02 5.8 C 6.16 g/m*3 5.8 C 0 km/h
2130 11-12-2009 18:09:02 5.8 C 6.23 g/m*3 5.8 C 0 km/h
2131 11-12-2009 18:21:02 5.9 C 6.35 g/m*3 5.9 C 0 km/h
2132 11-12-2009 18:33:02 5.7 C 6.33 g/m*3 5.7 C 0 km/h
2133 11-12-2009 18:45:02 5.6 C 6.36 g/m*3 5.6 C 0 km/h
2134 11-12-2009 18:57:02 5.4 C 6.28 g/m*3 5.4 C 0 km/h
2135 11-12-2009 19:09:01 5.4 C 6.35 g/m*3 5.4 C 0 km/h
2136 11-12-2009 19:21:02 5.4 C 6.35 g/m*3 5.4 C 0 km/h
2137 11-12-2009 19:33:02 5.3 C 6.38 g/m*3 5.3 C 0 km/h
2138 11-12-2009 19:45:02 5.1 C 6.29 g/m*3 5.1 C 0 km/h
2139 11-12-2009 19:57:02 4.6 C 6.09 g/m*3 4.6 C 0 km/h
2140 11-12-2009 20:09:02 4.3 C 5.9 g/m*3 4.3 C 0 km/h
2141 11-12-2009 20:21:02 4 C 5.79 g/m*3 4 C 0 km/h
2142 11-12-2009 20:33:02 3.9 C 5.75 g/m*3 3.9 C 0 km/h
2143 11-12-2009 20:45:01 3.7 C 5.73 g/m*3 3.7 C 0 km/h
2144 11-12-2009 20:57:01 3.5 C 5.6 g/m*3 3.5 C 0 km/h
2145 11-12-2009 21:09:01 3.4 C 5.56 g/m*3 3.4 C 0 km/h
2146 11-12-2009 21:21:02 3.2 C 5.54 g/m*3 3.2 C 0 km/h
2147 11-12-2009 21:33:01 3.3 C 5.58 g/m*3 3.3 C 0 km/h
2148 11-12-2009 21:45:02 3.4 C 5.68 g/m*3 3.4 C 0 km/h
2149 11-12-2009 21:57:02 3.4 C 5.68 g/m*3 3.4 C 0 km/h
2150 11-12-2009 22:09:02 3.4 C 5.68 g/m*3 3.4 C 0 km/h
Sensor: Nr:Datum:Temp:Abs-Feuchte:Windchill:Wind:
Aussen-T/F 2151 11-12-2009 22:21:02 3.4 C 5.68 g/m*3 3.4 C 0 km/h
2152 11-12-2009 22:33:02 3.3 C 5.64 g/m*3 3.3 C 0 km/h
2153 11-12-2009 22:45:02 3.4 C 5.68 g/m*3 3.4 C 0 km/h
2154 11-12-2009 22:57:02 3.4 C 5.68 g/m*3 3.4 C 0 km/h
2155 11-12-2009 23:09:01 3.4 C 5.68 g/m*3 3.4 C 0 km/h
2156 11-12-2009 23:21:02 3.4 C 5.68 g/m*3 3.4 C 0 km/h
2157 11-12-2009 23:33:02 3.4 C 5.68 g/m*3 3.4 C 0 km/h
2158 11-12-2009 23:45:02 3.2 C 5.6 g/m*3 3.2 C 0 km/h
2159 11-12-2009 23:57:02 3.3 C 5.64 g/m*3 3.3 C 0 km/h
2160 12-12-2009 00:09:03 3.4 C 5.68 g/m*3 3.4 C 0 km/h
2161 12-12-2009 00:21:02 3.4 C 5.68 g/m*3 3.4 C 0 km/h
2162 12-12-2009 00:33:02 3.1 C 5.57 g/m*3 3.1 C 0 km/h
2163 12-12-2009 00:45:01 3.1 C 5.63 g/m*3 3.1 C 0 km/h
2164 12-12-2009 00:57:01 3.3 C 5.7 g/m*3 3.3 C 0 km/h
2165 12-12-2009 01:09:02 3.4 C 5.74 g/m*3 3.4 C 0 km/h
2166 12-12-2009 01:21:01 3.2 C 5.66 g/m*3 3.2 C 0 km/h
2167 12-12-2009 01:33:01 3.2 C 5.66 g/m*3 3.2 C 0 km/h
2168 12-12-2009 01:45:01 3.1 C 5.63 g/m*3 3.1 C 0 km/h
2169 12-12-2009 01:57:01 3.3 C 5.7 g/m*3 3.3 C 0 km/h
2170 12-12-2009 02:09:02 3.3 C 5.7 g/m*3 3.3 C 0 km/h
2171 12-12-2009 02:21:02 3.2 C 5.66 g/m*3 3.2 C 0 km/h
2172 12-12-2009 02:33:01 3.1 C 5.63 g/m*3 3.1 C 0 km/h
2173 12-12-2009 02:46:03 3.2 C 5.72 g/m*3 3.2 C 0 km/h
2174 12-12-2009 02:58:03 3.4 C 5.8 g/m*3 3.4 C 0 km/h
2175 12-12-2009 03:10:03 3.4 C 5.8 g/m*3 3.4 C 0 km/h
Sensor: Nr:Datum:Temp:Abs-Feuchte:Windchill:Wind:
Aussen-T/F 2176 12-12-2009 03:22:03 3.3 C 5.7 g/m*3 3.3 C 0 km/h
2177 12-12-2009 03:34:02 3.4 C 5.74 g/m*3 3.4 C 0 km/h
2178 12-12-2009 03:46:02 3.2 C 5.6 g/m*3 3.2 C 0 km/h
2179 12-12-2009 03:58:02 3.1 C 5.57 g/m*3 3.1 C 0 km/h
2180 12-12-2009 04:10:02 3.1 C 5.51 g/m*3 3.1 C 0 km/h
2181 12-12-2009 04:22:02 3.1 C 5.51 g/m*3 3.1 C 0 km/h
2182 12-12-2009 04:34:02 2.9 C 5.49 g/m*3 2.9 C 0 km/h
2183 12-12-2009 04:46:02 2.9 C 5.49 g/m*3 2.9 C 0 km/h
2184 12-12-2009 04:58:02 2.9 C 5.49 g/m*3 2.9 C 0 km/h
2185 12-12-2009 05:10:02 3 C 5.47 g/m*3 3 C 0 km/h
2186 12-12-2009 05:22:02 2.9 C 5.49 g/m*3 2.9 C 0 km/h
2187 12-12-2009 05:34:02 2.9 C 5.49 g/m*3 2.9 C 0 km/h
2188 12-12-2009 05:46:02 3 C 5.47 g/m*3 3 C 0 km/h
2189 12-12-2009 05:58:02 2.9 C 5.49 g/m*3 2.9 C 0 km/h
2190 12-12-2009 06:10:02 2.9 C 5.49 g/m*3 2.9 C 0 km/h
2191 12-12-2009 06:22:02 3 C 5.47 g/m*3 3 C 0 km/h
2192 12-12-2009 06:34:02 3 C 5.47 g/m*3 3 C 0 km/h
2193 12-12-2009 06:46:02 3.1 C 5.51 g/m*3 3.1 C 0 km/h
2194 12-12-2009 06:58:02 3.1 C 5.51 g/m*3 3.1 C 0 km/h
2195 12-12-2009 07:10:01 3.1 C 5.51 g/m*3 3.1 C 0 km/h
2196 12-12-2009 07:22:02 3.1 C 5.51 g/m*3 3.1 C 0 km/h
2197 12-12-2009 07:34:01 3.1 C 5.51 g/m*3 3.1 C 0 km/h
2198 12-12-2009 07:46:02 3.1 C 5.51 g/m*3 3.1 C 0 km/h
2199 12-12-2009 07:58:02 3.1 C 5.51 g/m*3 3.1 C 0 km/h
2200 12-12-2009 08:10:02 3.1 C 5.51 g/m*3 3.1 C 0 km/h
Sensor: Nr:Datum:Temp:Abs-Feuchte:Windchill:Wind:
Aussen-T/F 2201 12-12-2009 08:22:02 3.1 C 5.51 g/m*3 3.1 C 0 km/h
2202 12-12-2009 08:34:02 3.4 C 5.62 g/m*3 3.4 C 0 km/h
2203 12-12-2009 08:46:02 3.1 C 5.51 g/m*3 3.1 C 0 km/h
2204 12-12-2009 08:58:02 3.1 C 5.51 g/m*3 3.1 C 0 km/h
2205 12-12-2009 09:10:02 3.2 C 5.54 g/m*3 3.2 C 0 km/h
2206 12-12-2009 09:22:01 3.2 C 5.54 g/m*3 3.2 C 0 km/h
2207 12-12-2009 09:34:02 3.3 C 5.58 g/m*3 3.3 C 0 km/h
2208 12-12-2009 09:46:02 3.4 C 5.62 g/m*3 3.4 C 0 km/h
2209 12-12-2009 09:58:02 3.4 C 5.62 g/m*3 3.4 C 0 km/h
2210 12-12-2009 10:10:02 3.4 C 5.56 g/m*3 3.4 C 0 km/h
2211 12-12-2009 10:22:01 3.5 C 5.6 g/m*3 3.5 C 0 km/h
2212 12-12-2009 10:34:02 3.4 C 5.56 g/m*3 3.4 C 0 km/h
2213 12-12-2009 10:46:02 3.3 C 5.52 g/m*3 3.3 C 0 km/h
2214 12-12-2009 10:58:02 3.4 C 5.56 g/m*3 3.4 C 0 km/h
2215 12-12-2009 11:10:02 3.6 C 5.63 g/m*3 3.6 C 0 km/h
2216 12-12-2009 11:22:02 3.6 C 5.63 g/m*3 3.6 C 0 km/h
2217 12-12-2009 11:34:02 3.6 C 5.63 g/m*3 3.6 C 0 km/h
2218 12-12-2009 11:46:02 3.7 C 5.61 g/m*3 3.7 C 0 km/h
2219 12-12-2009 11:58:02 3.8 C 5.65 g/m*3 3.8 C 0 km/h
2220 12-12-2009 12:10:02 3.8 C 5.58 g/m*3 3.8 C 0 km/h
2221 12-12-2009 12:22:01 3.8 C 5.58 g/m*3 3.8 C 0 km/h
2222 12-12-2009 12:34:02 3.8 C 5.58 g/m*3 3.8 C 0 km/h
2223 12-12-2009 12:46:01 3.8 C 5.52 g/m*3 3.8 C 0 km/h
2224 12-12-2009 12:58:01 4 C 5.53 g/m*3 4 C 0 km/h
2225 12-12-2009 13:10:02 4.2 C 5.54 g/m*3 4.2 C 0 km/h
Sensor: Nr:Datum:Temp:Abs-Feuchte:Windchill:Wind:
Aussen-T/F 2226 12-12-2009 13:22:02 4.2 C 5.54 g/m*3 4.2 C 0 km/h
2227 12-12-2009 13:34:01 4.4 C 5.55 g/m*3 4.4 C 0 km/h
2228 12-12-2009 13:46:02 4.5 C 5.52 g/m*3 4.5 C 0 km/h
2229 12-12-2009 13:58:02 4.5 C 5.46 g/m*3 4.5 C 0 km/h
2230 12-12-2009 14:10:01 4.5 C 5.39 g/m*3 4.5 C 0 km/h
2231 12-12-2009 14:22:02 4.6 C 5.43 g/m*3 4.6 C 0 km/h
2232 12-12-2009 14:34:01 4.7 C 5.46 g/m*3 4.7 C 0 km/h
2233 12-12-2009 14:46:03 4.6 C 5.43 g/m*3 4.6 C 0 km/h
2234 12-12-2009 14:58:03 4.5 C 5.39 g/m*3 4.5 C 0 km/h
2235 12-12-2009 15:10:02 4.4 C 5.29 g/m*3 4.4 C 0 km/h
2236 12-12-2009 15:22:02 4.4 C 5.22 g/m*3 4.4 C 0 km/h
2237 12-12-2009 15:34:02 4.4 C 5.22 g/m*3 4.4 C 0 km/h
2238 12-12-2009 15:46:02 4.4 C 5.03 g/m*3 4.4 C 0 km/h
2239 12-12-2009 15:58:02 4.4 C 4.9 g/m*3 4.4 C 0 km/h
2240 12-12-2009 16:10:01 4.4 C 4.83 g/m*3 4.4 C 0 km/h
2241 12-12-2009 16:22:02 4.3 C 4.74 g/m*3 4.3 C 0 km/h
2242 12-12-2009 16:34:02 4.2 C 4.77 g/m*3 4.2 C 0 km/h
2243 12-12-2009 16:46:02 4.2 C 4.9 g/m*3 4.2 C 0 km/h
2244 12-12-2009 16:58:03 4.1 C 4.86 g/m*3 4.1 C 0 km/h
2245 12-12-2009 17:10:01 4.1 C 4.8 g/m*3 4.1 C 0 km/h
2246 12-12-2009 17:22:01 4.1 C 4.74 g/m*3 4.1 C 0 km/h
2247 12-12-2009 17:34:02 4 C 4.77 g/m*3 4 C 0 km/h
2248 12-12-2009 17:46:02 4 C 4.77 g/m*3 4 C 0 km/h
2249 12-12-2009 17:58:02 4 C 4.77 g/m*3 4 C 0 km/h
2250 12-12-2009 18:10:01 3.9 C 4.86 g/m*3 3.9 C 0 km/h
Sensor: Nr:Datum:Temp:Abs-Feuchte:Windchill:Wind:
Aussen-T/F 2251 12-12-2009 18:22:02 3.9 C 4.86 g/m*3 3.9 C 0 km/h
2252 12-12-2009 18:34:02 3.8 C 4.83 g/m*3 3.8 C 0 km/h
2253 12-12-2009 18:46:01 3.9 C 4.8 g/m*3 3.9 C 0 km/h
2254 12-12-2009 18:58:01 3.9 C 4.86 g/m*3 3.9 C 0 km/h
2255 12-12-2009 19:10:02 3.8 C 4.83 g/m*3 3.8 C 0 km/h
2256 12-12-2009 19:22:01 3.8 C 4.77 g/m*3 3.8 C 0 km/h
2257 12-12-2009 19:34:02 3.5 C 4.67 g/m*3 3.5 C 0 km/h
2258 12-12-2009 19:46:02 3.1 C 4.61 g/m*3 3.1 C 0 km/h
2259 12-12-2009 19:58:02 2.8 C 4.69 g/m*3 2.8 C 0 km/h
2260 12-12-2009 20:10:02 2.7 C 4.72 g/m*3 2.7 C 0 km/h
2261 12-12-2009 20:22:01 2.8 C 4.81 g/m*3 2.8 C 0 km/h
2262 12-12-2009 20:34:02 3 C 4.82 g/m*3 3 C 0 km/h
2263 12-12-2009 20:46:02 3 C 4.82 g/m*3 3 C 0 km/h
2264 12-12-2009 20:58:02 3.2 C 4.76 g/m*3 3.2 C 0 km/h
2265 12-12-2009 21:10:02 3.1 C 4.73 g/m*3 3.1 C 0 km/h
2266 12-12-2009 21:22:02 3.2 C 4.82 g/m*3 3.2 C 0 km/h
2267 12-12-2009 21:34:01 3.1 C 4.79 g/m*3 3.1 C 0 km/h
2268 12-12-2009 21:46:02 3 C 4.76 g/m*3 3 C 0 km/h
2269 12-12-2009 21:58:02 3.1 C 4.85 g/m*3 3.1 C 0 km/h
2270 12-12-2009 22:10:01 3.1 C 4.85 g/m*3 3.1 C 0 km/h
2271 12-12-2009 22:22:02 3 C 4.82 g/m*3 3 C 0 km/h
2272 12-12-2009 22:34:01 3 C 4.82 g/m*3 3 C 0 km/h
2273 12-12-2009 22:46:02 3 C 4.82 g/m*3 3 C 0 km/h
2274 12-12-2009 22:58:02 3 C 4.82 g/m*3 3 C 0 km/h
2275 12-12-2009 23:10:02 3 C 4.76 g/m*3 3 C 0 km/h
Sensor: Nr:Datum:Temp:Abs-Feuchte:Windchill:Wind:
Aussen-T/F 2276 12-12-2009 23:22:02 3.1 C 4.73 g/m*3 3.1 C 0 km/h
2277 12-12-2009 23:34:03 3.1 C 4.67 g/m*3 3.1 C 0 km/h
2278 12-12-2009 23:46:02 3.2 C 4.7 g/m*3 3.2 C 0 km/h
2279 12-12-2009 23:58:02 3.1 C 4.67 g/m*3 3.1 C 0 km/h
2280 13-12-2009 00:10:01 3.1 C 4.61 g/m*3 3.1 C 0 km/h
2281 13-12-2009 00:22:01 3.1 C 4.61 g/m*3 3.1 C 0 km/h
2282 13-12-2009 00:34:02 3.1 C 4.61 g/m*3 3.1 C 0 km/h
2283 13-12-2009 00:46:01 3.1 C 4.67 g/m*3 3.1 C 0 km/h
2284 13-12-2009 00:58:01 3.1 C 4.67 g/m*3 3.1 C 0 km/h
2285 13-12-2009 01:10:02 3.1 C 4.67 g/m*3 3.1 C 0 km/h
2286 13-12-2009 01:22:02 3 C 4.58 g/m*3 3 C 0 km/h
2287 13-12-2009 01:34:02 2.9 C 4.61 g/m*3 2.9 C 0 km/h
2288 13-12-2009 01:46:02 2.8 C 4.63 g/m*3 2.8 C 0 km/h
2289 13-12-2009 01:58:02 2.6 C 4.63 g/m*3 2.6 C 0 km/h
2290 13-12-2009 02:10:02 2.6 C 4.69 g/m*3 2.6 C 0 km/h
2291 13-12-2009 02:22:02 2.4 C 4.68 g/m*3 2.4 C 0 km/h
2292 13-12-2009 02:34:01 2.4 C 4.74 g/m*3 2.4 C 0 km/h
2293 13-12-2009 02:47:04 2.2 C 4.79 g/m*3 2.2 C 0 km/h
2294 13-12-2009 02:59:04 2.2 C 4.79 g/m*3 2.2 C 0 km/h
2295 13-12-2009 03:11:03 2.1 C 4.81 g/m*3 2.1 C 0 km/h
2296 13-12-2009 03:23:03 2.1 C 4.87 g/m*3 2.1 C 0 km/h
2297 13-12-2009 03:35:01 2.2 C 4.9 g/m*3 2.2 C 0 km/h
2298 13-12-2009 03:47:01 2.3 C 4.99 g/m*3 2.3 C 0 km/h
2299 13-12-2009 03:59:01 2.2 C 4.96 g/m*3 2.2 C 0 km/h
2300 13-12-2009 04:11:02 2.2 C 4.96 g/m*3 2.2 C 0 km/h
Sensor: Nr:Datum:Temp:Abs-Feuchte:Windchill:Wind:
Aussen-T/F 2301 13-12-2009 04:23:01 2.2 C 4.96 g/m*3 2.2 C 0 km/h
2302 13-12-2009 04:35:01 2.2 C 4.96 g/m*3 2.2 C 0 km/h
2303 13-12-2009 04:47:01 2.2 C 4.9 g/m*3 2.2 C 0 km/h
2304 13-12-2009 04:59:01 2.2 C 4.9 g/m*3 2.2 C 0 km/h
2305 13-12-2009 05:11:01 2.2 C 4.9 g/m*3 2.2 C 0 km/h
2306 13-12-2009 05:23:02 2.2 C 4.84 g/m*3 2.2 C 0 km/h
2307 13-12-2009 05:35:01 2.2 C 4.84 g/m*3 2.2 C 0 km/h
2308 13-12-2009 05:47:03 2.2 C 4.84 g/m*3 2.2 C 0 km/h
2309 13-12-2009 05:59:03 2.2 C 4.84 g/m*3 2.2 C 0 km/h
2310 13-12-2009 06:11:02 2.2 C 4.79 g/m*3 2.2 C 0 km/h
2311 13-12-2009 06:23:02 2.2 C 4.79 g/m*3 2.2 C 0 km/h
2312 13-12-2009 06:35:02 2.2 C 4.79 g/m*3 2.2 C 0 km/h
2313 13-12-2009 06:47:02 2 C 4.56 g/m*3 2 C 0 km/h
2314 13-12-2009 06:59:02 2.1 C 4.25 g/m*3 2.1 C 0 km/h
2315 13-12-2009 07:11:01 2 C 4.06 g/m*3 2 C 0 km/h
2316 13-12-2009 07:23:02 1.7 C 4.03 g/m*3 1.7 C 0 km/h
2317 13-12-2009 07:35:02 1.7 C 4.08 g/m*3 1.7 C 0 km/h
2318 13-12-2009 07:47:02 1.7 C 4.03 g/m*3 1.7 C 0 km/h
2319 13-12-2009 07:59:02 1.7 C 3.97 g/m*3 1.7 C 0 km/h
2320 13-12-2009 08:11:03 1.7 C 4.03 g/m*3 1.7 C 0 km/h
2321 13-12-2009 08:23:02 1.7 C 4.08 g/m*3 1.7 C 0 km/h
2322 13-12-2009 08:35:02 1.7 C 4.08 g/m*3 1.7 C 0 km/h
2323 13-12-2009 08:47:01 1.7 C 4.08 g/m*3 1.7 C 0 km/h
2324 13-12-2009 08:59:01 1.8 C 4.11 g/m*3 1.8 C 0 km/h
2325 13-12-2009 09:11:02 1.8 C 4.11 g/m*3 1.8 C 0 km/h
Sensor: Nr:Datum:Temp:Abs-Feuchte:Windchill:Wind:
Aussen-T/F 2326 13-12-2009 09:23:01 1.9 C 4.14 g/m*3 1.9 C 0 km/h
2327 13-12-2009 09:35:01 2 C 4.11 g/m*3 2 C 0 km/h
2328 13-12-2009 09:47:01 2.1 C 4.14 g/m*3 2.1 C 0 km/h
2329 13-12-2009 09:59:01 2.1 C 4.08 g/m*3 2.1 C 0 km/h
2330 13-12-2009 10:11:02 2.1 C 3.97 g/m*3 2.1 C 0 km/h
2331 13-12-2009 10:23:01 2.1 C 3.92 g/m*3 2.1 C 0 km/h
2332 13-12-2009 10:35:02 2.1 C 3.75 g/m*3 2.1 C 0 km/h
2333 13-12-2009 10:47:01 2.3 C 3.69 g/m*3 2.3 C 0 km/h
2334 13-12-2009 10:59:01 2.3 C 3.52 g/m*3 2.3 C 0 km/h
2335 13-12-2009 11:11:02 2.3 C 3.52 g/m*3 2.3 C 0 km/h
2336 13-12-2009 11:23:01 2.3 C 3.52 g/m*3 2.3 C 0 km/h
2337 13-12-2009 11:35:01 2.7 C 3.67 g/m*3 2.7 C 0 km/h
2338 13-12-2009 11:47:01 2.8 C 3.7 g/m*3 2.8 C 0 km/h
2339 13-12-2009 11:59:01 2.5 C 3.56 g/m*3 2.5 C 0 km/h
2340 13-12-2009 12:11:01 2.5 C 3.56 g/m*3 2.5 C 0 km/h
2341 13-12-2009 12:23:02 2.6 C 3.59 g/m*3 2.6 C 0 km/h
2342 13-12-2009 12:35:01 2.6 C 3.59 g/m*3 2.6 C 0 km/h
2343 13-12-2009 12:47:02 2.9 C 3.48 g/m*3 2.9 C 0 km/h
2344 13-12-2009 12:59:02 2.8 C 3.4 g/m*3 2.8 C 0 km/h
2345 13-12-2009 13:11:02 2.6 C 3.47 g/m*3 2.6 C 0 km/h
2346 13-12-2009 13:23:02 2.6 C 3.47 g/m*3 2.6 C 0 km/h
2347 13-12-2009 13:35:02 2.7 C 3.5 g/m*3 2.7 C 0 km/h
2348 13-12-2009 13:47:02 2.8 C 3.58 g/m*3 2.8 C 0 km/h
2349 13-12-2009 13:59:02 2.8 C 3.28 g/m*3 2.8 C 0 km/h
2350 13-12-2009 14:11:02 2.6 C 3.07 g/m*3 2.6 C 0 km/h
Sensor: Nr:Datum:Temp:Abs-Feuchte:Windchill:Wind:
Aussen-T/F 2351 13-12-2009 14:23:02 2.3 C 3.01 g/m*3 2.3 C 0 km/h
2352 13-12-2009 14:35:01 2 C 2.95 g/m*3 2 C 0 km/h
2353 13-12-2009 14:47:02 1.7 C 2.99 g/m*3 1.7 C 0 km/h
2354 13-12-2009 14:59:02 1.6 C 2.97 g/m*3 1.6 C 0 km/h
2355 13-12-2009 15:11:02 1.6 C 2.97 g/m*3 1.6 C 0 km/h
2356 13-12-2009 15:23:02 1.5 C 3.01 g/m*3 1.5 C 0 km/h
2357 13-12-2009 15:35:03 1.4 C 2.72 g/m*3 1.4 C 0 km/h
2358 13-12-2009 15:47:02 1.4 C 2.72 g/m*3 1.4 C 0 km/h
2359 13-12-2009 15:59:02 1.3 C 2.7 g/m*3 1.3 C 0 km/h
2360 13-12-2009 16:11:01 1.2 C 2.63 g/m*3 1.2 C 0 km/h
2361 13-12-2009 16:23:02 1.1 C 2.67 g/m*3 1.1 C 0 km/h
2362 13-12-2009 16:35:01 1 C 2.7 g/m*3 1 C 0 km/h
2363 13-12-2009 16:47:02 1 C 2.8 g/m*3 1 C 0 km/h
2364 13-12-2009 16:59:02 0.9 C 2.73 g/m*3 0.9 C 0 km/h
2365 13-12-2009 17:11:01 0.8 C 2.61 g/m*3 0.8 C 0 km/h
2366 13-12-2009 17:23:01 0.8 C 2.61 g/m*3 0.8 C 0 km/h
2367 13-12-2009 17:35:02 0.8 C 2.51 g/m*3 0.8 C 0 km/h
2368 13-12-2009 17:47:02 0.6 C 2.42 g/m*3 0.6 C 0 km/h
2369 13-12-2009 17:59:02 0.6 C 2.42 g/m*3 0.6 C 0 km/h
2370 13-12-2009 18:11:02 0.5 C 2.41 g/m*3 0.5 C 0 km/h
2371 13-12-2009 18:23:02 0.5 C 2.46 g/m*3 0.5 C 0 km/h
2372 13-12-2009 18:35:02 0.4 C 2.39 g/m*3 0.4 C 0 km/h
2373 13-12-2009 18:47:01 0.3 C 2.37 g/m*3 0.3 C 0 km/h
2374 13-12-2009 18:59:01 0.2 C 2.41 g/m*3 0.2 C 0 km/h
2375 13-12-2009 19:11:02 0.2 C 2.36 g/m*3 0.2 C 0 km/h
Sensor: Nr:Datum:Temp:Abs-Feuchte:Windchill:Wind:
Aussen-T/F 2376 13-12-2009 19:23:01 0 C 2.37 g/m*3 0 C 0 km/h
2377 13-12-2009 19:35:02 -0.2 C 2.39 g/m*3 -0.2 C 0 km/h
2378 13-12-2009 19:47:02 -0.4 C 2.4 g/m*3 -0.4 C 0 km/h
2379 13-12-2009 19:59:02 -0.5 C 2.43 g/m*3 -0.5 C 0 km/h
2380 13-12-2009 20:11:02 -0.6 C 2.42 g/m*3 -0.6 C 0 km/h
2381 13-12-2009 20:23:02 -0.6 C 2.46 g/m*3 -0.6 C 0 km/h
2382 13-12-2009 20:35:02 -0.7 C 2.45 g/m*3 -0.7 C 0 km/h
2383 13-12-2009 20:47:02 -0.7 C 2.45 g/m*3 -0.7 C 0 km/h
2384 13-12-2009 20:59:02 -0.8 C 2.43 g/m*3 -0.8 C 0 km/h
2385 13-12-2009 21:11:02 -0.9 C 2.46 g/m*3 -0.9 C 0 km/h
2386 13-12-2009 21:23:02 -0.9 C 2.5 g/m*3 -0.9 C 0 km/h
2387 13-12-2009 21:35:02 -0.9 C 2.5 g/m*3 -0.9 C 0 km/h
2388 13-12-2009 21:47:02 -0.7 C 2.54 g/m*3 -0.7 C 0 km/h
2389 13-12-2009 21:59:02 -0.5 C 2.57 g/m*3 -0.5 C 0 km/h
2390 13-12-2009 22:11:02 -0.5 C 2.57 g/m*3 -0.5 C 0 km/h
2391 13-12-2009 22:24:02 -0.4 C 2.59 g/m*3 -0.4 C 0 km/h
2392 13-12-2009 22:36:02 -0.5 C 2.57 g/m*3 -0.5 C 0 km/h
2393 13-12-2009 22:48:02 -0.4 C 2.59 g/m*3 -0.4 C 0 km/h
2394 13-12-2009 23:00:02 -0.3 C 2.56 g/m*3 -0.3 C 0 km/h
2395 13-12-2009 23:12:02 -0.3 C 2.56 g/m*3 -0.3 C 0 km/h
2396 13-12-2009 23:24:02 -0.3 C 2.56 g/m*3 -0.3 C 0 km/h
2397 13-12-2009 23:36:02 -0.3 C 2.61 g/m*3 -0.3 C 0 km/h
2398 13-12-2009 23:48:02 -0.3 C 2.61 g/m*3 -0.3 C 0 km/h
2399 14-12-2009 00:00:02 -0.3 C 2.66 g/m*3 -0.3 C 0 km/h
2400 14-12-2009 00:12:02 -0.3 C 2.71 g/m*3 -0.3 C 0 km/h
Sensor: Nr:Datum:Temp:Abs-Feuchte:Windchill:Wind:
Aussen-T/F 2401 14-12-2009 00:24:02 -0.4 C 2.73 g/m*3 -0.4 C 0 km/h
2402 14-12-2009 00:36:02 -0.4 C 2.83 g/m*3 -0.4 C 0 km/h
2403 14-12-2009 00:48:02 -0.5 C 2.86 g/m*3 -0.5 C 0 km/h
2404 14-12-2009 01:00:02 -0.7 C 2.86 g/m*3 -0.7 C 0 km/h
2405 14-12-2009 01:12:02 -1.1 C 2.83 g/m*3 -1.1 C 0 km/h
2406 14-12-2009 01:24:02 -1.4 C 2.86 g/m*3 -1.4 C 0 km/h
2407 14-12-2009 01:36:02 -1.7 C 2.84 g/m*3 -1.7 C 0 km/h
2408 14-12-2009 01:48:02 -2 C 2.78 g/m*3 -2 C 0 km/h
2409 14-12-2009 02:00:03 -2.2 C 2.78 g/m*3 -2.2 C 0 km/h
2410 14-12-2009 02:12:03 -2.3 C 2.81 g/m*3 -2.3 C 0 km/h
2411 14-12-2009 02:24:03 -2.4 C 2.79 g/m*3 -2.4 C 0 km/h
2412 14-12-2009 02:36:03 -2.4 C 2.83 g/m*3 -2.4 C 0 km/h
2413 14-12-2009 02:48:03 -2.5 C 2.85 g/m*3 -2.5 C 0 km/h
2414 14-12-2009 03:00:03 -2.5 C 2.85 g/m*3 -2.5 C 0 km/h
2415 14-12-2009 03:12:03 -2.7 C 2.85 g/m*3 -2.7 C 0 km/h
2416 14-12-2009 03:24:03 -2.5 C 2.93 g/m*3 -2.5 C 0 km/h
2417 14-12-2009 03:36:03 -2.1 C 3.01 g/m*3 -2.1 C 0 km/h
2418 14-12-2009 03:48:03 -1.8 C 3.08 g/m*3 -1.8 C 0 km/h
2419 14-12-2009 04:00:03 -1.7 C 3.06 g/m*3 -1.7 C 0 km/h
2420 14-12-2009 04:12:03 -1.5 C 3.06 g/m*3 -1.5 C 0 km/h
2421 14-12-2009 04:24:03 -1.4 C 3.08 g/m*3 -1.4 C 0 km/h
2422 14-12-2009 04:36:03 -1.3 C 3.01 g/m*3 -1.3 C 0 km/h
2423 14-12-2009 04:48:03 -1.2 C 2.99 g/m*3 -1.2 C 0 km/h
2424 14-12-2009 05:00:03 -1.1 C 2.96 g/m*3 -1.1 C 0 km/h
2425 14-12-2009 05:12:03 -0.9 C 2.87 g/m*3 -0.9 C 0 km/h
Sensor: Nr:Datum:Temp:Abs-Feuchte:Windchill:Wind:
Aussen-T/F 2426 14-12-2009 05:24:03 -0.9 C 2.82 g/m*3 -0.9 C 0 km/h
2427 14-12-2009 05:36:03 -0.9 C 2.78 g/m*3 -0.9 C 0 km/h
2428 14-12-2009 05:48:03 -0.8 C 2.75 g/m*3 -0.8 C 0 km/h
2429 14-12-2009 06:00:03 -0.8 C 2.66 g/m*3 -0.8 C 0 km/h
2430 14-12-2009 06:12:04 -0.7 C 2.68 g/m*3 -0.7 C 0 km/h
2431 14-12-2009 06:24:04 -0.7 C 2.63 g/m*3 -0.7 C 0 km/h
2432 14-12-2009 06:36:04 -0.7 C 2.58 g/m*3 -0.7 C 0 km/h
2433 14-12-2009 06:48:04 -0.8 C 2.57 g/m*3 -0.8 C 0 km/h
2434 14-12-2009 07:00:04 -0.8 C 2.57 g/m*3 -0.8 C 0 km/h
2435 14-12-2009 07:12:04 -0.8 C 2.52 g/m*3 -0.8 C 0 km/h
2436 14-12-2009 07:24:04 -0.8 C 2.52 g/m*3 -0.8 C 0 km/h
2437 14-12-2009 07:36:04 -0.7 C 2.58 g/m*3 -0.7 C 0 km/h
2438 14-12-2009 07:48:02 -0.7 C 2.63 g/m*3 -0.7 C 0 km/h
2439 14-12-2009 08:00:02 -0.7 C 2.63 g/m*3 -0.7 C 0 km/h
2440 14-12-2009 08:12:02 -0.7 C 2.63 g/m*3 -0.7 C 0 km/h
2441 14-12-2009 08:24:02 -0.7 C 2.58 g/m*3 -0.7 C 0 km/h
2442 14-12-2009 08:36:01 -0.7 C 2.63 g/m*3 -0.7 C 0 km/h
2443 14-12-2009 08:48:02 -0.7 C 2.63 g/m*3 -0.7 C 0 km/h
2444 14-12-2009 09:00:02 -0.7 C 2.63 g/m*3 -0.7 C 0 km/h
2445 14-12-2009 09:12:02 -0.7 C 2.63 g/m*3 -0.7 C 0 km/h
2446 14-12-2009 09:24:02 -0.7 C 2.63 g/m*3 -0.7 C 0 km/h
2447 14-12-2009 09:36:03 -0.7 C 2.58 g/m*3 -0.7 C 0 km/h
2448 14-12-2009 09:48:02 -0.7 C 2.54 g/m*3 -0.7 C 0 km/h
2449 14-12-2009 10:00:02 -0.6 C 2.51 g/m*3 -0.6 C 0 km/h
2450 14-12-2009 10:12:03 -0.5 C 2.48 g/m*3 -0.5 C 0 km/h
Sensor: Nr:Datum:Temp:Abs-Feuchte:Windchill:Wind:
Aussen-T/F 2451 14-12-2009 10:24:02 -0.4 C 2.5 g/m*3 -0.4 C 0 km/h
2452 14-12-2009 10:36:03 -0.5 C 2.43 g/m*3 -0.5 C 0 km/h
2453 14-12-2009 10:48:02 -0.2 C 2.53 g/m*3 -0.2 C 0 km/h
2454 14-12-2009 11:00:02 -0.2 C 2.48 g/m*3 -0.2 C 0 km/h
2455 14-12-2009 11:12:02 -0.2 C 2.48 g/m*3 -0.2 C 0 km/h
2456 14-12-2009 11:24:01 0 C 2.52 g/m*3 0 C 0 km/h
2457 14-12-2009 11:36:02 0.1 C 2.49 g/m*3 0.1 C 0 km/h
2458 14-12-2009 11:48:01 0.3 C 2.52 g/m*3 0.3 C 0 km/h
2459 14-12-2009 12:00:01 0.2 C 2.46 g/m*3 0.2 C 0 km/h
2460 14-12-2009 12:12:02 0.1 C 2.44 g/m*3 0.1 C 0 km/h
2461 14-12-2009 12:24:01 0.1 C 2.44 g/m*3 0.1 C 0 km/h
2462 14-12-2009 12:36:02 0.1 C 2.44 g/m*3 0.1 C 0 km/h
2463 14-12-2009 12:48:01 0 C 2.42 g/m*3 0 C 0 km/h
2464 14-12-2009 13:00:01 0 C 2.42 g/m*3 0 C 0 km/h
2465 14-12-2009 13:12:02 0 C 2.42 g/m*3 0 C 0 km/h
2466 14-12-2009 13:24:01 0.1 C 2.44 g/m*3 0.1 C 0 km/h
2467 14-12-2009 13:36:01 0.2 C 2.46 g/m*3 0.2 C 0 km/h
2468 14-12-2009 13:48:01 0.4 C 2.49 g/m*3 0.4 C 0 km/h
2469 14-12-2009 14:00:01 0.6 C 2.58 g/m*3 0.6 C 0 km/h
2470 14-12-2009 14:12:01 0.6 C 2.63 g/m*3 0.6 C 0 km/h
2471 14-12-2009 14:24:02 0.3 C 2.57 g/m*3 0.3 C 0 km/h
2472 14-12-2009 14:36:01 0.2 C 2.6 g/m*3 0.2 C 0 km/h
2473 14-12-2009 14:48:02 0.1 C 2.63 g/m*3 0.1 C 0 km/h
2474 14-12-2009 15:00:02 0 C 2.62 g/m*3 0 C 0 km/h
2475 14-12-2009 15:12:01 -0.1 C 2.65 g/m*3 -0.1 C 0 km/h
Sensor: Nr:Datum:Temp:Abs-Feuchte:Windchill:Wind:
Aussen-T/F 2476 14-12-2009 15:24:02 -0.3 C 2.56 g/m*3 -0.3 C 0 km/h
2477 14-12-2009 15:36:01 -0.4 C 2.59 g/m*3 -0.4 C 0 km/h
2478 14-12-2009 15:48:02 -0.5 C 2.57 g/m*3 -0.5 C 0 km/h
2479 14-12-2009 16:00:02 -0.4 C 2.64 g/m*3 -0.4 C 0 km/h
2480 14-12-2009 16:12:02 -0.5 C 2.62 g/m*3 -0.5 C 0 km/h
2481 14-12-2009 16:24:02 -0.5 C 2.67 g/m*3 -0.5 C 0 km/h
2482 14-12-2009 16:36:02 -0.5 C 2.67 g/m*3 -0.5 C 0 km/h
2483 14-12-2009 16:48:02 -0.6 C 2.65 g/m*3 -0.6 C 0 km/h
2484 14-12-2009 17:00:03 -0.4 C 2.73 g/m*3 -0.4 C 0 km/h
2485 14-12-2009 17:12:01 -0.5 C 2.71 g/m*3 -0.5 C 0 km/h
2486 14-12-2009 17:24:01 -0.6 C 2.65 g/m*3 -0.6 C 0 km/h
2487 14-12-2009 17:36:02 -0.6 C 2.65 g/m*3 -0.6 C 0 km/h
2488 14-12-2009 17:48:02 -0.6 C 2.65 g/m*3 -0.6 C 0 km/h
2489 14-12-2009 18:00:02 -0.6 C 2.7 g/m*3 -0.6 C 0 km/h
2490 14-12-2009 18:12:02 -0.6 C 2.65 g/m*3 -0.6 C 0 km/h
2491 14-12-2009 18:24:02 -0.7 C 2.58 g/m*3 -0.7 C 0 km/h
2492 14-12-2009 18:36:02 -0.7 C 2.54 g/m*3 -0.7 C 0 km/h
2493 14-12-2009 18:48:02 -0.8 C 2.57 g/m*3 -0.8 C 0 km/h
2494 14-12-2009 19:00:02 -0.8 C 2.61 g/m*3 -0.8 C 0 km/h
2495 14-12-2009 19:12:02 -0.7 C 2.63 g/m*3 -0.7 C 0 km/h
2496 14-12-2009 19:24:02 -0.7 C 2.68 g/m*3 -0.7 C 0 km/h
2497 14-12-2009 19:36:02 -0.7 C 2.68 g/m*3 -0.7 C 0 km/h
2498 14-12-2009 19:48:01 -0.7 C 2.68 g/m*3 -0.7 C 0 km/h
2499 14-12-2009 20:00:01 -0.6 C 2.7 g/m*3 -0.6 C 0 km/h
2500 14-12-2009 20:12:02 -0.6 C 2.7 g/m*3 -0.6 C 0 km/h
Sensor: Nr:Datum:Temp:Abs-Feuchte:Windchill:Wind:
Aussen-T/F 2501 14-12-2009 20:24:02 -0.6 C 2.7 g/m*3 -0.6 C 0 km/h
2502 14-12-2009 20:36:02 -0.6 C 2.7 g/m*3 -0.6 C 0 km/h
2503 14-12-2009 20:48:02 -0.6 C 2.65 g/m*3 -0.6 C 0 km/h
2504 14-12-2009 21:00:02 -0.5 C 2.71 g/m*3 -0.5 C 0 km/h
2505 14-12-2009 21:12:02 -0.5 C 2.71 g/m*3 -0.5 C 0 km/h
2506 14-12-2009 21:24:02 -0.5 C 2.76 g/m*3 -0.5 C 0 km/h
2507 14-12-2009 21:36:02 -0.5 C 2.71 g/m*3 -0.5 C 0 km/h
2508 14-12-2009 21:49:04 -0.5 C 2.67 g/m*3 -0.5 C 0 km/h
2509 14-12-2009 22:01:04 -1.1 C 2.6 g/m*3 -1.1 C 0 km/h
2510 14-12-2009 22:13:04 -1.6 C 2.6 g/m*3 -1.6 C 0 km/h
2511 14-12-2009 22:25:04 -1.8 C 2.61 g/m*3 -1.8 C 0 km/h
2512 14-12-2009 22:37:04 -2 C 2.61 g/m*3 -2 C 0 km/h
2513 14-12-2009 22:49:04 -2 C 2.66 g/m*3 -2 C 0 km/h
2514 14-12-2009 23:01:04 -2.1 C 2.64 g/m*3 -2.1 C 0 km/h
2515 14-12-2009 23:13:04 -2.2 C 2.66 g/m*3 -2.2 C 0 km/h
2516 14-12-2009 23:25:05 -2.3 C 2.64 g/m*3 -2.3 C 0 km/h
2517 14-12-2009 23:37:05 -2.4 C 2.62 g/m*3 -2.4 C 0 km/h
2518 14-12-2009 23:49:05 -2.7 C 2.65 g/m*3 -2.7 C 0 km/h
2519 15-12-2009 00:01:05 -2.7 C 2.69 g/m*3 -2.7 C 0 km/h
2520 15-12-2009 00:13:05 -2.7 C 2.73 g/m*3 -2.7 C 0 km/h
2521 15-12-2009 00:25:05 -2.9 C 2.69 g/m*3 -2.9 C 0 km/h
2522 15-12-2009 00:37:05 -3 C 2.67 g/m*3 -3 C 0 km/h
2523 15-12-2009 00:49:05 -3.2 C 2.67 g/m*3 -3.2 C 0 km/h
2524 15-12-2009 01:01:05 -3.3 C 2.69 g/m*3 -3.3 C 0 km/h
2525 15-12-2009 01:13:05 -3.3 C 2.73 g/m*3 -3.3 C 0 km/h
Sensor: Nr:Datum:Temp:Abs-Feuchte:Windchill:Wind:
Aussen-T/F 2526 15-12-2009 01:25:05 -3.3 C 2.73 g/m*3 -3.3 C 0 km/h
2527 15-12-2009 01:37:05 -3.4 C 2.71 g/m*3 -3.4 C 0 km/h
2528 15-12-2009 01:49:05 -3.5 C 2.73 g/m*3 -3.5 C 0 km/h
2529 15-12-2009 02:01:05 -3.5 C 2.73 g/m*3 -3.5 C 0 km/h
2530 15-12-2009 02:13:05 -3.5 C 2.77 g/m*3 -3.5 C 0 km/h
2531 15-12-2009 02:25:05 -3.2 C 2.83 g/m*3 -3.2 C 0 km/h
2532 15-12-2009 02:37:05 -3 C 2.87 g/m*3 -3 C 0 km/h
2533 15-12-2009 02:49:05 -2.7 C 2.93 g/m*3 -2.7 C 0 km/h
2534 15-12-2009 03:01:06 -2.6 C 2.91 g/m*3 -2.6 C 0 km/h
2535 15-12-2009 03:13:06 -2.4 C 2.91 g/m*3 -2.4 C 0 km/h
2536 15-12-2009 03:25:06 -2.3 C 2.89 g/m*3 -2.3 C 0 km/h
2537 15-12-2009 03:37:06 -2.3 C 2.89 g/m*3 -2.3 C 0 km/h
2538 15-12-2009 03:49:06 -2.2 C 2.91 g/m*3 -2.2 C 0 km/h
2539 15-12-2009 04:01:06 -2.1 C 2.93 g/m*3 -2.1 C 0 km/h
2540 15-12-2009 04:13:06 -2 C 2.95 g/m*3 -2 C 0 km/h
2541 15-12-2009 04:25:06 -1.9 C 2.97 g/m*3 -1.9 C 0 km/h
2542 15-12-2009 04:37:06 -1.9 C 2.97 g/m*3 -1.9 C 0 km/h
2543 15-12-2009 04:49:06 -1.9 C 2.97 g/m*3 -1.9 C 0 km/h
2544 15-12-2009 05:01:06 -1.9 C 2.97 g/m*3 -1.9 C 0 km/h
2545 15-12-2009 05:13:06 -1.9 C 2.97 g/m*3 -1.9 C 0 km/h
2546 15-12-2009 05:25:06 -1.8 C 3.04 g/m*3 -1.8 C 0 km/h
2547 15-12-2009 05:37:06 -1.8 C 3.04 g/m*3 -1.8 C 0 km/h
2548 15-12-2009 05:49:06 -1.8 C 3.08 g/m*3 -1.8 C 0 km/h
2549 15-12-2009 06:01:06 -1.7 C 3.1 g/m*3 -1.7 C 0 km/h
2550 15-12-2009 06:13:06 -1.6 C 3.12 g/m*3 -1.6 C 0 km/h
Sensor: Nr:Datum:Temp:Abs-Feuchte:Windchill:Wind:
Aussen-T/F 2551 15-12-2009 06:25:06 -1.5 C 3.14 g/m*3 -1.5 C 0 km/h
2552 15-12-2009 06:37:06 -1.6 C 3.12 g/m*3 -1.6 C 0 km/h
2553 15-12-2009 06:49:06 -1.6 C 3.12 g/m*3 -1.6 C 0 km/h
2554 15-12-2009 07:01:07 -1.7 C 3.1 g/m*3 -1.7 C 0 km/h
2555 15-12-2009 07:13:07 -1.7 C 3.14 g/m*3 -1.7 C 0 km/h
2556 15-12-2009 07:25:02 -1.6 C 3.16 g/m*3 -1.6 C 0 km/h
2557 15-12-2009 07:37:02 -1.6 C 3.16 g/m*3 -1.6 C 0 km/h
2558 15-12-2009 07:49:02 -1.5 C 3.19 g/m*3 -1.5 C 0 km/h
2559 15-12-2009 08:01:01 -1.3 C 3.19 g/m*3 -1.3 C 0 km/h
2560 15-12-2009 08:13:01 -1.2 C 3.21 g/m*3 -1.2 C 0 km/h
2561 15-12-2009 08:25:02 -1.2 C 3.21 g/m*3 -1.2 C 0 km/h
2562 15-12-2009 08:37:02 -1.1 C 3.23 g/m*3 -1.1 C 0 km/h
2563 15-12-2009 08:49:02 -1 C 3.25 g/m*3 -1 C 0 km/h
2564 15-12-2009 09:01:02 -0.9 C 3.28 g/m*3 -0.9 C 0 km/h
2565 15-12-2009 09:13:02 -0.9 C 3.23 g/m*3 -0.9 C 0 km/h
2566 15-12-2009 09:25:01 -0.7 C 3.28 g/m*3 -0.7 C 0 km/h
2567 15-12-2009 09:37:02 -0.5 C 3.28 g/m*3 -0.5 C 0 km/h
2568 15-12-2009 09:49:02 -0.4 C 3.2 g/m*3 -0.4 C 0 km/h
2569 15-12-2009 10:01:02 -0.2 C 3.15 g/m*3 -0.2 C 0 km/h
2570 15-12-2009 10:13:02 0 C 3.15 g/m*3 0 C 0 km/h
2571 15-12-2009 10:25:02 0.1 C 3.17 g/m*3 0.1 C 0 km/h
2572 15-12-2009 10:37:02 0.2 C 3.14 g/m*3 0.2 C 0 km/h
2573 15-12-2009 10:49:02 0.3 C 3.17 g/m*3 0.3 C 0 km/h
2574 15-12-2009 11:01:02 0.3 C 3.12 g/m*3 0.3 C 0 km/h
2575 15-12-2009 11:13:03 0.4 C 3.14 g/m*3 0.4 C 0 km/h
Sensor: Nr:Datum:Temp:Abs-Feuchte:Windchill:Wind:
Aussen-T/F 2576 15-12-2009 11:25:02 0.3 C 3.12 g/m*3 0.3 C 0 km/h
2577 15-12-2009 11:37:02 0.5 C 3.11 g/m*3 0.5 C 0 km/h
2578 15-12-2009 11:49:01 0.7 C 3.05 g/m*3 0.7 C 0 km/h
2579 15-12-2009 12:01:01 0.9 C 3.04 g/m*3 0.9 C 0 km/h
2580 15-12-2009 12:13:01 1 C 2.91 g/m*3 1 C 0 km/h
2581 15-12-2009 12:25:02 1 C 2.91 g/m*3 1 C 0 km/h
2582 15-12-2009 12:37:01 0.8 C 2.92 g/m*3 0.8 C 0 km/h
2583 15-12-2009 12:49:01 0.7 C 2.85 g/m*3 0.7 C 0 km/h
2584 15-12-2009 13:01:01 0.8 C 2.87 g/m*3 0.8 C 0 km/h
2585 15-12-2009 13:13:01 1.1 C 2.87 g/m*3 1.1 C 0 km/h
2586 15-12-2009 13:25:02 1.6 C 2.87 g/m*3 1.6 C 0 km/h
2587 15-12-2009 13:37:01 1.6 C 2.81 g/m*3 1.6 C 0 km/h
2588 15-12-2009 13:49:02 1.6 C 2.76 g/m*3 1.6 C 0 km/h
2589 15-12-2009 14:01:02 1.6 C 2.7 g/m*3 1.6 C 0 km/h
2590 15-12-2009 14:13:02 1.6 C 2.65 g/m*3 1.6 C 0 km/h
2591 15-12-2009 14:25:02 1.5 C 2.69 g/m*3 1.5 C 0 km/h
2592 15-12-2009 14:37:02 1.4 C 2.67 g/m*3 1.4 C 0 km/h
2593 15-12-2009 14:49:02 1.3 C 2.65 g/m*3 1.3 C 0 km/h
2594 15-12-2009 15:01:01 1.2 C 2.63 g/m*3 1.2 C 0 km/h
2595 15-12-2009 15:13:01 1.2 C 2.63 g/m*3 1.2 C 0 km/h
2596 15-12-2009 15:25:02 1.2 C 2.63 g/m*3 1.2 C 0 km/h
2597 15-12-2009 15:37:02 1.1 C 2.67 g/m*3 1.1 C 0 km/h
2598 15-12-2009 15:49:02 1 C 2.65 g/m*3 1 C 0 km/h
2599 15-12-2009 16:01:02 1 C 2.65 g/m*3 1 C 0 km/h
2600 15-12-2009 16:13:02 1 C 2.6 g/m*3 1 C 0 km/h
Sensor: Nr:Datum:Temp:Abs-Feuchte:Windchill:Wind:
Aussen-T/F 2601 15-12-2009 16:25:02 0.9 C 2.63 g/m*3 0.9 C 0 km/h
2602 15-12-2009 16:37:02 0.9 C 2.68 g/m*3 0.9 C 0 km/h
2603 15-12-2009 16:49:02 0.8 C 2.66 g/m*3 0.8 C 0 km/h
2604 15-12-2009 17:01:02 0.7 C 2.64 g/m*3 0.7 C 0 km/h
2605 15-12-2009 17:13:02 0.7 C 2.64 g/m*3 0.7 C 0 km/h
2606 15-12-2009 17:25:02 0.6 C 2.68 g/m*3 0.6 C 0 km/h
2607 15-12-2009 17:37:02 0.6 C 2.73 g/m*3 0.6 C 0 km/h
2608 15-12-2009 17:49:01 0.6 C 2.68 g/m*3 0.6 C 0 km/h
2609 15-12-2009 18:01:01 0.6 C 2.68 g/m*3 0.6 C 0 km/h
2610 15-12-2009 18:13:01 0.6 C 2.63 g/m*3 0.6 C 0 km/h
2611 15-12-2009 18:25:02 0.6 C 2.63 g/m*3 0.6 C 0 km/h
2612 15-12-2009 18:37:02 0.6 C 2.63 g/m*3 0.6 C 0 km/h
2613 15-12-2009 18:49:02 0.6 C 2.68 g/m*3 0.6 C 0 km/h
2614 15-12-2009 19:01:02 0.5 C 2.71 g/m*3 0.5 C 0 km/h
2615 15-12-2009 19:13:02 0.4 C 2.69 g/m*3 0.4 C 0 km/h
2616 15-12-2009 19:25:05 0.4 C 2.74 g/m*3 0.4 C 0 km/h
2617 15-12-2009 19:37:02 0.4 C 2.69 g/m*3 0.4 C 0 km/h
2618 15-12-2009 19:49:02 0.4 C 2.74 g/m*3 0.4 C 0 km/h
2619 15-12-2009 20:01:56 0.5 C 2.71 g/m*3 0.5 C 0 km/h
2620 15-12-2009 20:13:56 0.5 C 2.76 g/m*3 0.5 C 0 km/h
2621 15-12-2009 20:25:02 0.4 C 2.69 g/m*3 0.4 C 0 km/h
2622 15-12-2009 20:37:02 0.5 C 2.66 g/m*3 0.5 C 0 km/h
2623 15-12-2009 20:49:02 0.5 C 2.71 g/m*3 0.5 C 0 km/h
2624 15-12-2009 21:01:01 0.5 C 2.71 g/m*3 0.5 C 0 km/h
2625 15-12-2009 21:13:01 0.5 C 2.71 g/m*3 0.5 C 0 km/h
Sensor: Nr:Datum:Temp:Abs-Feuchte:Windchill:Wind:
Aussen-T/F 2626 15-12-2009 21:25:01 0.3 C 2.67 g/m*3 0.3 C 0 km/h
2627 15-12-2009 21:37:02 0.2 C 2.65 g/m*3 0.2 C 0 km/h
2628 15-12-2009 21:49:02 0.2 C 2.65 g/m*3 0.2 C 0 km/h
2629 15-12-2009 22:01:02 0.1 C 2.63 g/m*3 0.1 C 0 km/h
2630 15-12-2009 22:13:02 0.1 C 2.68 g/m*3 0.1 C 0 km/h
2631 15-12-2009 22:25:02 0.1 C 2.68 g/m*3 0.1 C 0 km/h
2632 15-12-2009 22:38:02 0 C 2.66 g/m*3 0 C 0 km/h
2633 15-12-2009 22:50:02 0 C 2.66 g/m*3 0 C 0 km/h
2634 15-12-2009 23:02:02 -0.1 C 2.69 g/m*3 -0.1 C 0 km/h
2635 15-12-2009 23:14:02 -0.2 C 2.72 g/m*3 -0.2 C 0 km/h
2636 15-12-2009 23:26:03 -0.2 C 2.72 g/m*3 -0.2 C 0 km/h
2637 15-12-2009 23:38:03 -0.2 C 2.72 g/m*3 -0.2 C 0 km/h
2638 15-12-2009 23:50:03 -0.2 C 2.72 g/m*3 -0.2 C 0 km/h
2639 16-12-2009 00:02:03 -0.2 C 2.77 g/m*3 -0.2 C 0 km/h
2640 16-12-2009 00:14:03 -0.2 C 2.77 g/m*3 -0.2 C 0 km/h
2641 16-12-2009 00:26:03 -0.3 C 2.75 g/m*3 -0.3 C 0 km/h
2642 16-12-2009 00:38:03 -0.4 C 2.78 g/m*3 -0.4 C 0 km/h
2643 16-12-2009 00:50:03 -0.5 C 2.76 g/m*3 -0.5 C 0 km/h
2644 16-12-2009 01:02:03 -0.9 C 2.73 g/m*3 -0.9 C 0 km/h
2645 16-12-2009 01:14:03 -1 C 2.76 g/m*3 -1 C 0 km/h
2646 16-12-2009 01:26:03 -1.1 C 2.78 g/m*3 -1.1 C 0 km/h
2647 16-12-2009 01:38:03 -1.1 C 2.74 g/m*3 -1.1 C 0 km/h
2648 16-12-2009 01:50:03 -1.1 C 2.74 g/m*3 -1.1 C 0 km/h
2649 16-12-2009 02:02:03 -1.2 C 2.76 g/m*3 -1.2 C 0 km/h
2650 16-12-2009 02:14:03 -1.3 C 2.74 g/m*3 -1.3 C 0 km/h
Sensor: Nr:Datum:Temp:Abs-Feuchte:Windchill:Wind:
Aussen-T/F 2651 16-12-2009 02:26:03 -1.3 C 2.79 g/m*3 -1.3 C 0 km/h
2652 16-12-2009 02:38:03 -1.2 C 2.81 g/m*3 -1.2 C 0 km/h
2653 16-12-2009 02:50:03 -1.1 C 2.83 g/m*3 -1.1 C 0 km/h
2654 16-12-2009 03:02:03 -1.1 C 2.78 g/m*3 -1.1 C 0 km/h
2655 16-12-2009 03:14:04 -1.1 C 2.78 g/m*3 -1.1 C 0 km/h
2656 16-12-2009 03:26:04 -1.1 C 2.78 g/m*3 -1.1 C 0 km/h
2657 16-12-2009 03:38:04 -1 C 2.85 g/m*3 -1 C 0 km/h
2658 16-12-2009 03:50:04 -1 C 2.85 g/m*3 -1 C 0 km/h
2659 16-12-2009 04:02:04 -1 C 2.8 g/m*3 -1 C 0 km/h
2660 16-12-2009 04:14:04 -1 C 2.8 g/m*3 -1 C 0 km/h
2661 16-12-2009 04:26:04 -1 C 2.8 g/m*3 -1 C 0 km/h
2662 16-12-2009 04:38:04 -1.1 C 2.78 g/m*3 -1.1 C 0 km/h
2663 16-12-2009 04:50:04 -1.1 C 2.78 g/m*3 -1.1 C 0 km/h
2664 16-12-2009 05:02:04 -1.1 C 2.83 g/m*3 -1.1 C 0 km/h
2665 16-12-2009 05:14:04 -1.2 C 2.81 g/m*3 -1.2 C 0 km/h
2666 16-12-2009 05:26:04 -1.2 C 2.85 g/m*3 -1.2 C 0 km/h
2667 16-12-2009 05:38:04 -1.2 C 2.85 g/m*3 -1.2 C 0 km/h
2668 16-12-2009 05:50:04 -1.1 C 2.92 g/m*3 -1.1 C 0 km/h
2669 16-12-2009 06:02:04 -1.1 C 2.87 g/m*3 -1.1 C 0 km/h
2670 16-12-2009 06:14:04 -1.1 C 2.87 g/m*3 -1.1 C 0 km/h
2671 16-12-2009 06:26:04 -1.2 C 2.85 g/m*3 -1.2 C 0 km/h
2672 16-12-2009 06:38:04 -1.2 C 2.85 g/m*3 -1.2 C 0 km/h
2673 16-12-2009 06:50:04 -1.2 C 2.85 g/m*3 -1.2 C 0 km/h
2674 16-12-2009 07:02:03 -1.2 C 2.85 g/m*3 -1.2 C 0 km/h
2675 16-12-2009 07:14:03 -1.2 C 2.85 g/m*3 -1.2 C 0 km/h
Sensor: Nr:Datum:Temp:Abs-Feuchte:Windchill:Wind:
Aussen-T/F 2676 16-12-2009 07:26:02 -1.2 C 2.85 g/m*3 -1.2 C 0 km/h
2677 16-12-2009 07:38:02 -1.2 C 2.9 g/m*3 -1.2 C 0 km/h
2678 16-12-2009 07:50:01 -1.2 C 2.9 g/m*3 -1.2 C 0 km/h
2679 16-12-2009 08:02:02 -1.2 C 2.9 g/m*3 -1.2 C 0 km/h
2680 16-12-2009 08:14:02 -1.2 C 2.9 g/m*3 -1.2 C 0 km/h
2681 16-12-2009 08:26:02 -1.2 C 2.9 g/m*3 -1.2 C 0 km/h
2682 16-12-2009 08:38:02 -1.2 C 2.9 g/m*3 -1.2 C 0 km/h
2683 16-12-2009 08:50:03 -1.2 C 2.9 g/m*3 -1.2 C 0 km/h
2684 16-12-2009 09:02:02 -1.2 C 2.94 g/m*3 -1.2 C 0 km/h
2685 16-12-2009 09:14:02 -1.2 C 2.94 g/m*3 -1.2 C 0 km/h
2686 16-12-2009 09:26:03 -1.1 C 2.96 g/m*3 -1.1 C 0 km/h
2687 16-12-2009 09:38:02 -1 C 2.98 g/m*3 -1 C 0 km/h
2688 16-12-2009 09:50:02 -0.8 C 2.98 g/m*3 -0.8 C 0 km/h
2689 16-12-2009 10:02:02 -0.6 C 3.02 g/m*3 -0.6 C 0 km/h
2690 16-12-2009 10:14:02 -0.4 C 3.02 g/m*3 -0.4 C 0 km/h
2691 16-12-2009 10:26:02 -0.2 C 3.01 g/m*3 -0.2 C 0 km/h
2692 16-12-2009 10:38:02 -0.2 C 2.91 g/m*3 -0.2 C 0 km/h
2693 16-12-2009 10:50:02 0 C 2.96 g/m*3 0 C 0 km/h
2694 16-12-2009 11:02:02 0.1 C 2.98 g/m*3 0.1 C 0 km/h
2695 16-12-2009 11:14:02 0.2 C 2.95 g/m*3 0.2 C 0 km/h
2696 16-12-2009 11:26:02 0.1 C 2.88 g/m*3 0.1 C 0 km/h
2697 16-12-2009 11:38:03 0.2 C 2.9 g/m*3 0.2 C 0 km/h
2698 16-12-2009 11:50:02 0.4 C 2.89 g/m*3 0.4 C 0 km/h
2699 16-12-2009 12:02:02 0.6 C 2.98 g/m*3 0.6 C 0 km/h
2700 16-12-2009 12:14:02 0.8 C 2.97 g/m*3 0.8 C 0 km/h
Sensor: Nr:Datum:Temp:Abs-Feuchte:Windchill:Wind:
Aussen-T/F 2701 16-12-2009 12:26:02 0.7 C 2.9 g/m*3 0.7 C 0 km/h
2702 16-12-2009 12:38:02 1 C 2.96 g/m*3 1 C 0 km/h
2703 16-12-2009 12:50:02 1.1 C 2.93 g/m*3 1.1 C 0 km/h
2704 16-12-2009 13:02:03 1.1 C 2.93 g/m*3 1.1 C 0 km/h
2705 16-12-2009 13:14:03 1.2 C 2.89 g/m*3 1.2 C 0 km/h
2706 16-12-2009 13:26:02 1.1 C 2.82 g/m*3 1.1 C 0 km/h
2707 16-12-2009 13:38:03 0.6 C 2.78 g/m*3 0.6 C 0 km/h
2708 16-12-2009 13:50:02 0.6 C 2.78 g/m*3 0.6 C 0 km/h
2709 16-12-2009 14:02:02 0.8 C 2.76 g/m*3 0.8 C 0 km/h
2710 16-12-2009 14:14:02 0.9 C 2.84 g/m*3 0.9 C 0 km/h
2711 16-12-2009 14:26:01 1 C 2.7 g/m*3 1 C 0 km/h
2712 16-12-2009 14:38:02 1.3 C 2.75 g/m*3 1.3 C 0 km/h
2713 16-12-2009 14:50:02 1.1 C 2.72 g/m*3 1.1 C 0 km/h
2714 16-12-2009 15:02:02 0.7 C 2.69 g/m*3 0.7 C 0 km/h
2715 16-12-2009 15:14:03 0.4 C 2.59 g/m*3 0.4 C 0 km/h
2716 16-12-2009 15:26:01 0 C 2.62 g/m*3 0 C 0 km/h
2717 16-12-2009 15:38:02 -0.3 C 2.61 g/m*3 -0.3 C 0 km/h
2718 16-12-2009 15:50:02 -0.5 C 2.62 g/m*3 -0.5 C 0 km/h
2719 16-12-2009 16:02:02 -0.6 C 2.6 g/m*3 -0.6 C 0 km/h
2720 16-12-2009 16:14:02 -0.7 C 2.58 g/m*3 -0.7 C 0 km/h
2721 16-12-2009 16:26:02 -0.9 C 2.55 g/m*3 -0.9 C 0 km/h
2722 16-12-2009 16:38:02 -1.1 C 2.51 g/m*3 -1.1 C 0 km/h
2723 16-12-2009 16:50:01 -1.3 C 2.48 g/m*3 -1.3 C 0 km/h
2724 16-12-2009 17:02:02 -1.5 C 2.49 g/m*3 -1.5 C 0 km/h
2725 16-12-2009 17:14:02 -1.7 C 2.5 g/m*3 -1.7 C 0 km/h
Sensor: Nr:Datum:Temp:Abs-Feuchte:Windchill:Wind:
Aussen-T/F 2726 16-12-2009 17:26:02 -1.7 C 2.58 g/m*3 -1.7 C 0 km/h
2727 16-12-2009 17:38:02 -1.8 C 2.61 g/m*3 -1.8 C 0 km/h
2728 16-12-2009 17:50:02 -1.9 C 2.63 g/m*3 -1.9 C 0 km/h
2729 16-12-2009 18:02:02 -2 C 2.66 g/m*3 -2 C 0 km/h
2730 16-12-2009 18:14:02 -2.1 C 2.68 g/m*3 -2.1 C 0 km/h
2731 16-12-2009 18:26:02 -2 C 2.7 g/m*3 -2 C 0 km/h
2732 16-12-2009 18:38:03 -2 C 2.7 g/m*3 -2 C 0 km/h
2733 16-12-2009 18:50:02 -2 C 2.7 g/m*3 -2 C 0 km/h
2734 16-12-2009 19:02:01 -1.9 C 2.76 g/m*3 -1.9 C 0 km/h
2735 16-12-2009 19:14:01 -1.9 C 2.76 g/m*3 -1.9 C 0 km/h
2736 16-12-2009 19:26:01 -2.1 C 2.72 g/m*3 -2.1 C 0 km/h
2737 16-12-2009 19:38:02 -2.3 C 2.68 g/m*3 -2.3 C 0 km/h
2738 16-12-2009 19:50:02 -2.5 C 2.65 g/m*3 -2.5 C 0 km/h
2739 16-12-2009 20:02:02 -2.6 C 2.67 g/m*3 -2.6 C 0 km/h
2740 16-12-2009 20:14:02 -2.8 C 2.67 g/m*3 -2.8 C 0 km/h
2741 16-12-2009 20:26:01 -2.9 C 2.69 g/m*3 -2.9 C 0 km/h
2742 16-12-2009 20:38:02 -3 C 2.71 g/m*3 -3 C 0 km/h
2743 16-12-2009 20:50:02 -3.1 C 2.69 g/m*3 -3.1 C 0 km/h
2744 16-12-2009 21:02:02 -3.2 C 2.71 g/m*3 -3.2 C 0 km/h
2745 16-12-2009 21:14:02 -3.2 C 2.75 g/m*3 -3.2 C 0 km/h
2746 16-12-2009 21:26:02 -3.3 C 2.73 g/m*3 -3.3 C 0 km/h
2747 16-12-2009 21:38:02 -3.5 C 2.69 g/m*3 -3.5 C 0 km/h
2748 16-12-2009 21:50:02 -3.7 C 2.69 g/m*3 -3.7 C 0 km/h
2749 16-12-2009 22:02:02 -3.7 C 2.73 g/m*3 -3.7 C 0 km/h
2750 16-12-2009 22:14:02 -3.8 C 2.71 g/m*3 -3.8 C 0 km/h
Sensor: Nr:Datum:Temp:Abs-Feuchte:Windchill:Wind:
Aussen-T/F 2751 16-12-2009 22:27:05 -3.9 C 2.69 g/m*3 -3.9 C 0 km/h
2752 16-12-2009 22:39:05 -3.9 C 2.73 g/m*3 -3.9 C 0 km/h
2753 16-12-2009 22:51:05 -3.8 C 2.78 g/m*3 -3.8 C 0 km/h
2754 16-12-2009 23:03:05 -3.8 C 2.78 g/m*3 -3.8 C 0 km/h
2755 16-12-2009 23:15:06 -4.1 C 2.72 g/m*3 -4.1 C 0 km/h
2756 16-12-2009 23:27:06 -4.3 C 2.69 g/m*3 -4.3 C 0 km/h
2757 16-12-2009 23:39:06 -4.4 C 2.67 g/m*3 -4.4 C 0 km/h
2758 16-12-2009 23:51:06 -4.4 C 2.67 g/m*3 -4.4 C 0 km/h
2759 17-12-2009 00:03:06 -4.6 C 2.66 g/m*3 -4.6 C 0 km/h
2760 17-12-2009 00:15:06 -4.7 C 2.64 g/m*3 -4.7 C 0 km/h
2761 17-12-2009 00:27:06 -4.8 C 2.66 g/m*3 -4.8 C 0 km/h
2762 17-12-2009 00:39:06 -5.1 C 2.6 g/m*3 -5.1 C 0 km/h
2763 17-12-2009 00:51:06 -5.3 C 2.57 g/m*3 -5.3 C 0 km/h
2764 17-12-2009 01:03:06 -5.2 C 2.62 g/m*3 -5.2 C 0 km/h
2765 17-12-2009 01:15:06 -5.4 C 2.58 g/m*3 -5.4 C 0 km/h
2766 17-12-2009 01:27:06 -5.3 C 2.63 g/m*3 -5.3 C 0 km/h
2767 17-12-2009 01:39:06 -5.3 C 2.63 g/m*3 -5.3 C 0 km/h
2768 17-12-2009 01:51:06 -5.6 C 2.58 g/m*3 -5.6 C 0 km/h
2769 17-12-2009 02:03:06 -5.6 C 2.58 g/m*3 -5.6 C 0 km/h
2770 17-12-2009 02:15:06 -5.5 C 2.63 g/m*3 -5.5 C 0 km/h
2771 17-12-2009 02:27:06 -5.6 C 2.64 g/m*3 -5.6 C 0 km/h
2772 17-12-2009 02:39:06 -5.7 C 2.62 g/m*3 -5.7 C 0 km/h
2773 17-12-2009 02:51:06 -5.9 C 2.58 g/m*3 -5.9 C 0 km/h
2774 17-12-2009 03:03:06 -5.9 C 2.58 g/m*3 -5.9 C 0 km/h
2775 17-12-2009 03:15:06 -5.6 C 2.67 g/m*3 -5.6 C 0 km/h
Sensor: Nr:Datum:Temp:Abs-Feuchte:Windchill:Wind:
Aussen-T/F 2776 17-12-2009 03:27:07 -5.4 C 2.75 g/m*3 -5.4 C 0 km/h
2777 17-12-2009 03:39:07 -5.3 C 2.77 g/m*3 -5.3 C 0 km/h
2778 17-12-2009 03:51:07 -5.4 C 2.75 g/m*3 -5.4 C 0 km/h
2779 17-12-2009 04:03:07 -5.3 C 2.77 g/m*3 -5.3 C 0 km/h
2780 17-12-2009 04:15:07 -5.4 C 2.75 g/m*3 -5.4 C 0 km/h
2781 17-12-2009 04:27:07 -5.5 C 2.73 g/m*3 -5.5 C 0 km/h
2782 17-12-2009 04:39:07 -5.6 C 2.71 g/m*3 -5.6 C 0 km/h
2783 17-12-2009 04:51:07 -5.9 C 2.65 g/m*3 -5.9 C 0 km/h
2784 17-12-2009 05:03:07 -5.9 C 2.65 g/m*3 -5.9 C 0 km/h
2785 17-12-2009 05:15:07 -6 C 2.63 g/m*3 -6 C 0 km/h
2786 17-12-2009 05:27:07 -5.8 C 2.67 g/m*3 -5.8 C 0 km/h
2787 17-12-2009 05:39:07 -5.9 C 2.65 g/m*3 -5.9 C 0 km/h
2788 17-12-2009 05:51:07 -6 C 2.63 g/m*3 -6 C 0 km/h
2789 17-12-2009 06:03:07 -6 C 2.63 g/m*3 -6 C 0 km/h
2790 17-12-2009 06:15:07 -6.1 C 2.61 g/m*3 -6.1 C 0 km/h
2791 17-12-2009 06:27:07 -6 C 2.63 g/m*3 -6 C 0 km/h
2792 17-12-2009 06:39:07 -6.2 C 2.59 g/m*3 -6.2 C 0 km/h
2793 17-12-2009 06:51:02 -6.2 C 2.59 g/m*3 -6.2 C 0 km/h
2794 17-12-2009 07:03:02 -6.1 C 2.61 g/m*3 -6.1 C 0 km/h
2795 17-12-2009 07:15:02 -6.2 C 2.59 g/m*3 -6.2 C 0 km/h
2796 17-12-2009 07:27:02 -6.4 C 2.55 g/m*3 -6.4 C 0 km/h
2797 17-12-2009 07:39:02 -6.5 C 2.53 g/m*3 -6.5 C 0 km/h
2798 17-12-2009 07:51:02 -6.6 C 2.52 g/m*3 -6.6 C 0 km/h
2799 17-12-2009 08:03:01 -6.7 C 2.5 g/m*3 -6.7 C 0 km/h
2800 17-12-2009 08:15:01 -6.7 C 2.5 g/m*3 -6.7 C 0 km/h
Sensor: Nr:Datum:Temp:Abs-Feuchte:Windchill:Wind:
Aussen-T/F 2801 17-12-2009 08:27:01 -6.6 C 2.52 g/m*3 -6.6 C 0 km/h
2802 17-12-2009 08:39:02 -6.2 C 2.62 g/m*3 -6.2 C 0 km/h
2803 17-12-2009 08:51:02 -6 C 2.66 g/m*3 -6 C 0 km/h
2804 17-12-2009 09:03:02 -6 C 2.66 g/m*3 -6 C 0 km/h
2805 17-12-2009 09:15:02 -6 C 2.63 g/m*3 -6 C 0 km/h
2806 17-12-2009 09:27:02 -5.9 C 2.65 g/m*3 -5.9 C 0 km/h
2807 17-12-2009 09:39:02 -5.8 C 2.67 g/m*3 -5.8 C 0 km/h
2808 17-12-2009 09:51:02 -5.7 C 2.69 g/m*3 -5.7 C 0 km/h
2809 17-12-2009 10:03:03 -5.6 C 2.71 g/m*3 -5.6 C 0 km/h
2810 17-12-2009 10:15:02 -5.5 C 2.73 g/m*3 -5.5 C 0 km/h
2811 17-12-2009 10:27:02 -5.3 C 2.77 g/m*3 -5.3 C 0 km/h
2812 17-12-2009 10:39:02 -5.1 C 2.81 g/m*3 -5.1 C 0 km/h
2813 17-12-2009 10:51:01 -4.9 C 2.85 g/m*3 -4.9 C 0 km/h
2814 17-12-2009 11:03:02 -4.5 C 2.93 g/m*3 -4.5 C 0 km/h
2815 17-12-2009 11:15:01 -4.2 C 2.96 g/m*3 -4.2 C 0 km/h
2816 17-12-2009 11:27:01 -4 C 3 g/m*3 -4 C 0 km/h
2817 17-12-2009 11:39:01 -4.1 C 2.94 g/m*3 -4.1 C 0 km/h
2818 17-12-2009 11:51:01 -4.1 C 2.94 g/m*3 -4.1 C 0 km/h
2819 17-12-2009 12:03:01 -4.1 C 2.94 g/m*3 -4.1 C 0 km/h
2820 17-12-2009 12:15:02 -3.8 C 3.01 g/m*3 -3.8 C 0 km/h
2821 17-12-2009 12:27:02 -3 C 3.14 g/m*3 -3 C 0 km/h
2822 17-12-2009 12:39:01 -2.3 C 3.05 g/m*3 -2.3 C 0 km/h
2823 17-12-2009 12:51:01 -1.9 C 2.84 g/m*3 -1.9 C 0 km/h
2824 17-12-2009 13:03:01 -1.8 C 2.78 g/m*3 -1.8 C 0 km/h
2825 17-12-2009 13:15:02 -1.7 C 2.76 g/m*3 -1.7 C 0 km/h
Sensor: Nr:Datum:Temp:Abs-Feuchte:Windchill:Wind:
Aussen-T/F 2826 17-12-2009 13:27:02 -1.6 C 2.64 g/m*3 -1.6 C 0 km/h
2827 17-12-2009 13:39:01 -1.5 C 2.62 g/m*3 -1.5 C 0 km/h
2828 17-12-2009 13:51:02 -1.5 C 2.62 g/m*3 -1.5 C 0 km/h
2829 17-12-2009 14:03:02 -1.4 C 2.64 g/m*3 -1.4 C 0 km/h
2830 17-12-2009 14:15:02 -1.4 C 2.64 g/m*3 -1.4 C 0 km/h
2831 17-12-2009 14:27:03 -1.3 C 2.66 g/m*3 -1.3 C 0 km/h
2832 17-12-2009 14:39:02 -1.3 C 2.61 g/m*3 -1.3 C 0 km/h
2833 17-12-2009 14:51:02 -1.3 C 2.52 g/m*3 -1.3 C 0 km/h
2834 17-12-2009 15:03:01 -1.3 C 2.48 g/m*3 -1.3 C 0 km/h
2835 17-12-2009 15:15:02 -1.6 C 2.43 g/m*3 -1.6 C 0 km/h
2836 17-12-2009 15:27:02 -1.7 C 2.45 g/m*3 -1.7 C 0 km/h
2837 17-12-2009 15:39:02 -2 C 2.49 g/m*3 -2 C 0 km/h
2838 17-12-2009 15:51:02 -2.2 C 2.54 g/m*3 -2.2 C 0 km/h
2839 17-12-2009 16:03:03 -2.3 C 2.56 g/m*3 -2.3 C 0 km/h
2840 17-12-2009 16:15:02 -2.5 C 2.52 g/m*3 -2.5 C 0 km/h
2841 17-12-2009 16:27:02 -2.7 C 2.53 g/m*3 -2.7 C 0 km/h
2842 17-12-2009 16:39:02 -2.6 C 2.51 g/m*3 -2.6 C 0 km/h
2843 17-12-2009 16:51:01 -2.6 C 2.51 g/m*3 -2.6 C 0 km/h
2844 17-12-2009 17:03:02 -3 C 2.44 g/m*3 -3 C 0 km/h
2845 17-12-2009 17:15:01 -3.5 C 2.39 g/m*3 -3.5 C 0 km/h
2846 17-12-2009 17:27:01 -3.8 C 2.37 g/m*3 -3.8 C 0 km/h
2847 17-12-2009 17:39:02 -4.1 C 2.36 g/m*3 -4.1 C 0 km/h
2848 17-12-2009 17:51:01 -4.2 C 2.34 g/m*3 -4.2 C 0 km/h
2849 17-12-2009 18:03:02 -4.5 C 2.29 g/m*3 -4.5 C 0 km/h
2850 17-12-2009 18:15:01 -4.6 C 2.28 g/m*3 -4.6 C 0 km/h
Sensor: Nr:Datum:Temp:Abs-Feuchte:Windchill:Wind:
Aussen-T/F 2851 17-12-2009 18:27:01 -4.5 C 2.33 g/m*3 -4.5 C 0 km/h
2852 17-12-2009 18:39:02 -4.6 C 2.35 g/m*3 -4.6 C 0 km/h
2853 17-12-2009 18:51:01 -4.6 C 2.35 g/m*3 -4.6 C 0 km/h
2854 17-12-2009 19:03:02 -4.7 C 2.37 g/m*3 -4.7 C 0 km/h
2855 17-12-2009 19:15:02 -4.6 C 2.42 g/m*3 -4.6 C 0 km/h
2856 17-12-2009 19:27:02 -4.7 C 2.4 g/m*3 -4.7 C 0 km/h
2857 17-12-2009 19:39:02 -4.7 C 2.44 g/m*3 -4.7 C 0 km/h
2858 17-12-2009 19:51:02 -4.6 C 2.45 g/m*3 -4.6 C 0 km/h
2859 17-12-2009 20:03:01 -4.7 C 2.44 g/m*3 -4.7 C 0 km/h
2860 17-12-2009 20:15:02 -4.6 C 2.49 g/m*3 -4.6 C 0 km/h
2861 17-12-2009 20:27:02 -4.4 C 2.52 g/m*3 -4.4 C 0 km/h
2862 17-12-2009 20:39:01 -4.2 C 2.56 g/m*3 -4.2 C 0 km/h
2863 17-12-2009 20:51:02 -4.1 C 2.58 g/m*3 -4.1 C 0 km/h
2864 17-12-2009 21:03:01 -4.1 C 2.54 g/m*3 -4.1 C 0 km/h
2865 17-12-2009 21:15:01 -4.1 C 2.54 g/m*3 -4.1 C 0 km/h
2866 17-12-2009 21:27:01 -4.1 C 2.58 g/m*3 -4.1 C 0 km/h
2867 17-12-2009 21:39:01 -4.1 C 2.58 g/m*3 -4.1 C 0 km/h
2868 17-12-2009 21:51:02 -4 C 2.56 g/m*3 -4 C 0 km/h
2869 17-12-2009 22:04:03 -4 C 2.56 g/m*3 -4 C 0 km/h
2870 17-12-2009 22:16:03 -3.9 C 2.54 g/m*3 -3.9 C 0 km/h
2871 17-12-2009 22:28:03 -3.9 C 2.51 g/m*3 -3.9 C 0 km/h
2872 17-12-2009 22:40:03 -3.7 C 2.54 g/m*3 -3.7 C 0 km/h
2873 17-12-2009 22:52:03 -3.7 C 2.54 g/m*3 -3.7 C 0 km/h
2874 17-12-2009 23:04:03 -3.7 C 2.54 g/m*3 -3.7 C 0 km/h
2875 17-12-2009 23:16:03 -3.8 C 2.49 g/m*3 -3.8 C 0 km/h
Sensor: Nr:Datum:Temp:Abs-Feuchte:Windchill:Wind:
Aussen-T/F 2876 17-12-2009 23:28:03 -4 C 2.41 g/m*3 -4 C 0 km/h
2877 17-12-2009 23:40:03 -4.2 C 2.38 g/m*3 -4.2 C 0 km/h
2878 17-12-2009 23:52:03 -4.3 C 2.4 g/m*3 -4.3 C 0 km/h
2879 18-12-2009 00:04:03 -4.6 C 2.35 g/m*3 -4.6 C 0 km/h
2880 18-12-2009 00:16:03 -4.9 C 2.33 g/m*3 -4.9 C 0 km/h
2881 18-12-2009 00:28:03 -5.1 C 2.37 g/m*3 -5.1 C 0 km/h
2882 18-12-2009 00:40:03 -5.3 C 2.33 g/m*3 -5.3 C 0 km/h
2883 18-12-2009 00:52:03 -5.4 C 2.35 g/m*3 -5.4 C 0 km/h
2884 18-12-2009 01:04:03 -5.5 C 2.33 g/m*3 -5.5 C 0 km/h
2885 18-12-2009 01:16:03 -5.6 C 2.35 g/m*3 -5.6 C 0 km/h
2886 18-12-2009 01:28:03 -5.7 C 2.33 g/m*3 -5.7 C 0 km/h
2887 18-12-2009 01:40:03 -5.6 C 2.38 g/m*3 -5.6 C 0 km/h
2888 18-12-2009 01:52:04 -5.6 C 2.41 g/m*3 -5.6 C 0 km/h
2889 18-12-2009 02:04:04 -5.4 C 2.41 g/m*3 -5.4 C 0 km/h
2890 18-12-2009 02:16:04 -5.7 C 2.33 g/m*3 -5.7 C 0 km/h
2891 18-12-2009 02:28:04 -6 C 2.28 g/m*3 -6 C 0 km/h
2892 18-12-2009 02:40:04 -6.1 C 2.3 g/m*3 -6.1 C 0 km/h
2893 18-12-2009 02:52:04 -6.3 C 2.26 g/m*3 -6.3 C 0 km/h
2894 18-12-2009 03:04:04 -6.4 C 2.28 g/m*3 -6.4 C 0 km/h
2895 18-12-2009 03:16:04 -6.5 C 2.29 g/m*3 -6.5 C 0 km/h
2896 18-12-2009 03:28:04 -6.6 C 2.27 g/m*3 -6.6 C 0 km/h
2897 18-12-2009 03:40:04 -6.7 C 2.26 g/m*3 -6.7 C 0 km/h
2898 18-12-2009 03:52:04 -6.6 C 2.3 g/m*3 -6.6 C 0 km/h
2899 18-12-2009 04:04:04 -6.7 C 2.32 g/m*3 -6.7 C 0 km/h
2900 18-12-2009 04:16:04 -6.8 C 2.3 g/m*3 -6.8 C 0 km/h
Sensor: Nr:Datum:Temp:Abs-Feuchte:Windchill:Wind:
Aussen-T/F 2901 18-12-2009 04:28:04 -6.8 C 2.3 g/m*3 -6.8 C 0 km/h
2902 18-12-2009 04:40:04 -6.9 C 2.31 g/m*3 -6.9 C 0 km/h
2903 18-12-2009 04:52:04 -7.1 C 2.28 g/m*3 -7.1 C 0 km/h
2904 18-12-2009 05:04:04 -7.1 C 2.28 g/m*3 -7.1 C 0 km/h
2905 18-12-2009 05:16:04 -7.2 C 2.29 g/m*3 -7.2 C 0 km/h
2906 18-12-2009 05:28:04 -7.4 C 2.26 g/m*3 -7.4 C 0 km/h
2907 18-12-2009 05:40:04 -7.4 C 2.26 g/m*3 -7.4 C 0 km/h
2908 18-12-2009 05:52:04 -7.5 C 2.24 g/m*3 -7.5 C 0 km/h
2909 18-12-2009 06:04:04 -7.5 C 2.24 g/m*3 -7.5 C 0 km/h
2910 18-12-2009 06:16:05 -7.6 C 2.25 g/m*3 -7.6 C 0 km/h
2911 18-12-2009 06:28:05 -7.7 C 2.24 g/m*3 -7.7 C 0 km/h
2912 18-12-2009 06:40:05 -7.8 C 2.22 g/m*3 -7.8 C 0 km/h
2913 18-12-2009 06:52:05 -7.9 C 2.2 g/m*3 -7.9 C 0 km/h
2914 18-12-2009 07:04:02 -7.9 C 2.2 g/m*3 -7.9 C 0 km/h
2915 18-12-2009 07:16:02 -7.8 C 2.22 g/m*3 -7.8 C 0 km/h
2916 18-12-2009 07:28:03 -7.7 C 2.24 g/m*3 -7.7 C 0 km/h
2917 18-12-2009 07:40:02 -7.3 C 2.33 g/m*3 -7.3 C 0 km/h
2918 18-12-2009 07:52:02 -7.1 C 2.37 g/m*3 -7.1 C 0 km/h
2919 18-12-2009 08:04:02 -6.8 C 2.42 g/m*3 -6.8 C 0 km/h
2920 18-12-2009 08:16:02 -6.6 C 2.46 g/m*3 -6.6 C 0 km/h
2921 18-12-2009 08:28:02 -6.5 C 2.44 g/m*3 -6.5 C 0 km/h
2922 18-12-2009 08:40:02 -6.6 C 2.43 g/m*3 -6.6 C 0 km/h
2923 18-12-2009 08:52:02 -6.7 C 2.38 g/m*3 -6.7 C 0 km/h
2924 18-12-2009 09:04:02 -6.7 C 2.38 g/m*3 -6.7 C 0 km/h
2925 18-12-2009 09:16:01 -6.6 C 2.39 g/m*3 -6.6 C 0 km/h
Sensor: Nr:Datum:Temp:Abs-Feuchte:Windchill:Wind:
Aussen-T/F 2926 18-12-2009 09:28:01 -6.4 C 2.43 g/m*3 -6.4 C 0 km/h
2927 18-12-2009 09:40:02 -6.1 C 2.48 g/m*3 -6.1 C 0 km/h
2928 18-12-2009 09:52:02 -5.7 C 2.56 g/m*3 -5.7 C 0 km/h
2929 18-12-2009 10:04:02 -5.4 C 2.58 g/m*3 -5.4 C 0 km/h
2930 18-12-2009 10:16:01 -5.2 C 2.58 g/m*3 -5.2 C 0 km/h
2931 18-12-2009 10:28:01 -4.8 C 2.63 g/m*3 -4.8 C 0 km/h
2932 18-12-2009 10:40:02 -4.4 C 2.67 g/m*3 -4.4 C 0 km/h
2933 18-12-2009 10:52:02 -4.2 C 2.6 g/m*3 -4.2 C 0 km/h
2934 18-12-2009 11:04:02 -4.1 C 2.51 g/m*3 -4.1 C 0 km/h
2935 18-12-2009 11:16:01 -3.9 C 2.54 g/m*3 -3.9 C 0 km/h
2936 18-12-2009 11:28:01 -3.7 C 2.54 g/m*3 -3.7 C 0 km/h
2937 18-12-2009 11:40:02 -3.6 C 2.52 g/m*3 -3.6 C 0 km/h
2938 18-12-2009 11:52:02 -3.4 C 2.52 g/m*3 -3.4 C 0 km/h
2939 18-12-2009 12:04:02 -3.1 C 2.5 g/m*3 -3.1 C 0 km/h
2940 18-12-2009 12:16:02 -2.9 C 2.49 g/m*3 -2.9 C 0 km/h
2941 18-12-2009 12:28:02 -3 C 2.44 g/m*3 -3 C 0 km/h
2942 18-12-2009 12:40:02 -3 C 2.44 g/m*3 -3 C 0 km/h
2943 18-12-2009 12:52:02 -3.2 C 2.44 g/m*3 -3.2 C 0 km/h
2944 18-12-2009 13:04:02 -3 C 2.51 g/m*3 -3 C 0 km/h
2945 18-12-2009 13:16:02 -2.8 C 2.59 g/m*3 -2.8 C 0 km/h
2946 18-12-2009 13:28:02 -2.8 C 2.55 g/m*3 -2.8 C 0 km/h
2947 18-12-2009 13:40:01 -2.4 C 2.66 g/m*3 -2.4 C 0 km/h
2948 18-12-2009 13:52:02 -2.1 C 2.68 g/m*3 -2.1 C 0 km/h
2949 18-12-2009 14:04:01 -2.1 C 2.64 g/m*3 -2.1 C 0 km/h
2950 18-12-2009 14:16:02 -2.2 C 2.66 g/m*3 -2.2 C 0 km/h
Sensor: Nr:Datum:Temp:Abs-Feuchte:Windchill:Wind:
Aussen-T/F 2951 18-12-2009 14:28:02 -2.1 C 2.72 g/m*3 -2.1 C 0 km/h
2952 18-12-2009 14:40:01 -2 C 2.78 g/m*3 -2 C 0 km/h
2953 18-12-2009 14:52:02 -1.9 C 2.84 g/m*3 -1.9 C 0 km/h
2954 18-12-2009 15:04:02 -1.8 C 2.91 g/m*3 -1.8 C 0 km/h
2955 18-12-2009 15:16:02 -1.8 C 2.86 g/m*3 -1.8 C 0 km/h
2956 18-12-2009 15:28:02 -1.9 C 2.89 g/m*3 -1.9 C 0 km/h
2957 18-12-2009 15:40:03 -1.9 C 2.89 g/m*3 -1.9 C 0 km/h
2958 18-12-2009 15:52:02 -1.9 C 2.8 g/m*3 -1.9 C 0 km/h
2959 18-12-2009 16:04:02 -2 C 2.74 g/m*3 -2 C 0 km/h
2960 18-12-2009 16:16:01 -2.1 C 2.89 g/m*3 -2.1 C 0 km/h
2961 18-12-2009 16:28:01 -2.5 C 3.01 g/m*3 -2.5 C 0 km/h
2962 18-12-2009 16:40:02 -2.6 C 3.07 g/m*3 -2.6 C 0 km/h
2963 18-12-2009 16:52:02 -2.7 C 3.05 g/m*3 -2.7 C 0 km/h
2964 18-12-2009 17:04:02 -2.9 C 3.05 g/m*3 -2.9 C 0 km/h
2965 18-12-2009 17:16:02 -3 C 3.02 g/m*3 -3 C 0 km/h
2966 18-12-2009 17:28:02 -3 C 3.02 g/m*3 -3 C 0 km/h
2967 18-12-2009 17:40:02 -2.9 C 3.01 g/m*3 -2.9 C 0 km/h
2968 18-12-2009 17:52:02 -3 C 2.83 g/m*3 -3 C 0 km/h
2969 18-12-2009 18:04:01 -3.2 C 2.59 g/m*3 -3.2 C 0 km/h
2970 18-12-2009 18:16:02 -3.4 C 2.52 g/m*3 -3.4 C 0 km/h
2971 18-12-2009 18:28:02 -3.6 C 2.45 g/m*3 -3.6 C 0 km/h
2972 18-12-2009 18:40:01 -3.7 C 2.35 g/m*3 -3.7 C 0 km/h
2973 18-12-2009 18:52:02 -3.8 C 2.12 g/m*3 -3.8 C 0 km/h
2974 18-12-2009 19:04:02 -3.8 C 2.08 g/m*3 -3.8 C 0 km/h
2975 18-12-2009 19:16:02 -3.8 C 2.12 g/m*3 -3.8 C 0 km/h
Sensor: Nr:Datum:Temp:Abs-Feuchte:Windchill:Wind:
Aussen-T/F 2976 18-12-2009 19:28:02 -4.1 C 1.96 g/m*3 -4.1 C 0 km/h
2977 18-12-2009 19:40:03 -4.2 C 1.8 g/m*3 -4.2 C 0 km/h
2978 18-12-2009 19:52:02 -4.2 C 1.8 g/m*3 -4.2 C 0 km/h
2979 18-12-2009 20:04:01 -4.6 C 1.61 g/m*3 -4.6 C 0 km/h
2980 18-12-2009 20:16:02 -4.8 C 1.59 g/m*3 -4.8 C 0 km/h
2981 18-12-2009 20:28:02 -5.1 C 1.55 g/m*3 -5.1 C 0 km/h
2982 18-12-2009 20:40:02 -5.2 C 1.51 g/m*3 -5.2 C 0 km/h
2983 18-12-2009 20:52:02 -5.2 C 1.54 g/m*3 -5.2 C 0 km/h
2984 18-12-2009 21:04:01 -5.3 C 1.5 g/m*3 -5.3 C 0 km/h
2985 18-12-2009 21:16:01 -5.4 C 1.49 g/m*3 -5.4 C 0 km/h
2986 18-12-2009 21:28:01 -5.4 C 1.59 g/m*3 -5.4 C 0 km/h
2987 18-12-2009 21:41:29 -5.4 C 1.69 g/m*3 -5.4 C 0 km/h
2988 18-12-2009 21:53:29 -5.4 C 1.72 g/m*3 -5.4 C 0 km/h
2989 18-12-2009 22:05:29 -5.7 C 1.78 g/m*3 -5.7 C 0 km/h
2990 18-12-2009 22:17:29 -5.8 C 1.86 g/m*3 -5.8 C 0 km/h
2991 18-12-2009 22:29:29 -6 C 1.93 g/m*3 -6 C 0 km/h
2992 18-12-2009 22:41:29 -7.2 C 1.83 g/m*3 -7.2 C 0 km/h
2993 18-12-2009 22:53:29 -7.4 C 1.89 g/m*3 -7.4 C 0 km/h
2994 18-12-2009 23:05:29 -7.3 C 1.96 g/m*3 -7.3 C 0 km/h
2995 18-12-2009 23:17:29 -7.6 C 1.92 g/m*3 -7.6 C 0 km/h
2996 18-12-2009 23:29:29 -7.8 C 1.89 g/m*3 -7.8 C 0 km/h
2997 18-12-2009 23:41:29 -7.9 C 1.87 g/m*3 -7.9 C 0 km/h
2998 18-12-2009 23:53:29 -8.2 C 1.75 g/m*3 -8.2 C 0 km/h
2999 19-12-2009 00:05:29 -8.5 C 1.69 g/m*3 -8.5 C 0 km/h
3000 19-12-2009 00:17:29 -8.6 C 1.65 g/m*3 -8.6 C 0 km/h
Sensor: Nr:Datum:Temp:Abs-Feuchte:Windchill:Wind:
Aussen-T/F 3001 19-12-2009 00:29:29 -8.8 C 1.57 g/m*3 -8.8 C 0 km/h
3002 19-12-2009 00:41:29 -9.1 C 1.49 g/m*3 -9.1 C 0 km/h
3003 19-12-2009 00:53:29 -9.4 C 1.43 g/m*3 -9.4 C 0 km/h
3004 19-12-2009 01:05:29 -9.6 C 1.38 g/m*3 -9.6 C 0 km/h
3005 19-12-2009 01:17:29 -9.8 C 1.36 g/m*3 -9.8 C 0 km/h
3006 19-12-2009 01:29:30 -9.9 C 1.35 g/m*3 -9.9 C 0 km/h
3007 19-12-2009 01:41:30 -10 C 1.3 g/m*3 -10 C 0 km/h
3008 19-12-2009 01:53:30 -10 C 1.27 g/m*3 -10 C 0 km/h
3009 19-12-2009 02:05:30 -10 C 1.25 g/m*3 -10 C 0 km/h
3010 19-12-2009 02:17:30 -10 C 1.22 g/m*3 -10 C 0 km/h
3011 19-12-2009 02:29:30 -10 C 1.25 g/m*3 -10 C 0 km/h
3012 19-12-2009 02:41:30 -10.4 C 1.17 g/m*3 -10.4 C 0 km/h
3013 19-12-2009 02:53:30 -11.2 C 1.1 g/m*3 -11.2 C 0 km/h
3014 19-12-2009 03:05:30 -11.8 C 1.07 g/m*3 -11.8 C 0 km/h
3015 19-12-2009 03:17:30 -12.1 C 1.06 g/m*3 -12.1 C 0 km/h
3016 19-12-2009 03:29:30 -12.3 C 1.07 g/m*3 -12.3 C 0 km/h
3017 19-12-2009 03:41:30 -12.5 C 1.07 g/m*3 -12.5 C 0 km/h
3018 19-12-2009 03:53:30 -12.5 C 1.09 g/m*3 -12.5 C 0 km/h
3019 19-12-2009 04:05:30 -12.5 C 1.09 g/m*3 -12.5 C 0 km/h
3020 19-12-2009 04:17:30 -12.6 C 1.08 g/m*3 -12.6 C 0 km/h
3021 19-12-2009 04:29:30 -12.6 C 1.1 g/m*3 -12.6 C 0 km/h
3022 19-12-2009 04:41:30 -12.6 C 1.08 g/m*3 -12.6 C 0 km/h
3023 19-12-2009 04:53:30 -12.6 C 1.06 g/m*3 -12.6 C 0 km/h
3024 19-12-2009 05:05:30 -12.7 C 1.04 g/m*3 -12.7 C 0 km/h
3025 19-12-2009 05:17:30 -13.1 C 1 g/m*3 -13.1 C 0 km/h
Sensor: Nr:Datum:Temp:Abs-Feuchte:Windchill:Wind:
Aussen-T/F 3026 19-12-2009 05:29:30 -13.2 C 1 g/m*3 -13.2 C 0 km/h
3027 19-12-2009 05:41:30 -13.3 C 1.01 g/m*3 -13.3 C 0 km/h
3028 19-12-2009 05:53:30 -13.4 C 1.02 g/m*3 -13.4 C 0 km/h
3029 19-12-2009 06:05:31 -13.5 C 1.03 g/m*3 -13.5 C 0 km/h
3030 19-12-2009 06:17:31 -13.6 C 1.02 g/m*3 -13.6 C 0 km/h
3031 19-12-2009 06:29:31 -13.7 C 1.03 g/m*3 -13.7 C 0 km/h
3032 19-12-2009 06:41:31 -13.9 C 1.01 g/m*3 -13.9 C 0 km/h
3033 19-12-2009 06:53:31 -13.7 C 1.05 g/m*3 -13.7 C 0 km/h
3034 19-12-2009 07:05:31 -13.9 C 1.05 g/m*3 -13.9 C 0 km/h
3035 19-12-2009 07:17:31 -14 C 1.04 g/m*3 -14 C 0 km/h
3036 19-12-2009 07:29:31 -13.7 C 1.08 g/m*3 -13.7 C 0 km/h
3037 19-12-2009 07:41:01 -13.5 C 1.1 g/m*3 -13.5 C 0 km/h
3038 19-12-2009 07:53:02 -13.4 C 1.13 g/m*3 -13.4 C 0 km/h
3039 19-12-2009 08:05:02 -13.5 C 1.12 g/m*3 -13.5 C 0 km/h
3040 19-12-2009 08:17:02 -13.7 C 1.1 g/m*3 -13.7 C 0 km/h
3041 19-12-2009 08:29:03 -13.7 C 1.1 g/m*3 -13.7 C 0 km/h
3042 19-12-2009 08:41:02 -14 C 1.07 g/m*3 -14 C 0 km/h
3043 19-12-2009 08:53:02 -14.1 C 1.07 g/m*3 -14.1 C 0 km/h
3044 19-12-2009 09:05:01 -14.1 C 1.07 g/m*3 -14.1 C 0 km/h
3045 19-12-2009 09:17:02 -13.9 C 1.1 g/m*3 -13.9 C 0 km/h
3046 19-12-2009 09:29:02 -13.9 C 1.1 g/m*3 -13.9 C 0 km/h
3047 19-12-2009 09:41:02 -13.9 C 1.08 g/m*3 -13.9 C 0 km/h
3048 19-12-2009 09:53:02 -13.7 C 1.12 g/m*3 -13.7 C 0 km/h
3049 19-12-2009 10:05:03 -13.5 C 1.14 g/m*3 -13.5 C 0 km/h
3050 19-12-2009 10:17:02 -13.4 C 1.16 g/m*3 -13.4 C 0 km/h
Sensor: Nr:Datum:Temp:Abs-Feuchte:Windchill:Wind:
Aussen-T/F 3051 19-12-2009 10:29:02 -13.2 C 1.16 g/m*3 -13.2 C 0 km/h
3052 19-12-2009 10:41:03 -13 C 1.18 g/m*3 -13 C 0 km/h
3053 19-12-2009 10:53:02 -12.7 C 1.19 g/m*3 -12.7 C 0 km/h
3054 19-12-2009 11:05:02 -12.8 C 1.16 g/m*3 -12.8 C 0 km/h
3055 19-12-2009 11:17:01 -12.8 C 1.14 g/m*3 -12.8 C 0 km/h
3056 19-12-2009 11:29:01 -12.7 C 1.15 g/m*3 -12.7 C 0 km/h
3057 19-12-2009 11:41:02 -12.6 C 1.14 g/m*3 -12.6 C 0 km/h
3058 19-12-2009 11:53:02 -12.6 C 1.12 g/m*3 -12.6 C 0 km/h
3059 19-12-2009 12:05:02 -12.3 C 1.15 g/m*3 -12.3 C 0 km/h
3060 19-12-2009 12:17:02 -12 C 1.13 g/m*3 -12 C 0 km/h
3061 19-12-2009 12:29:02 -11.5 C 1.16 g/m*3 -11.5 C 0 km/h
3062 19-12-2009 12:41:02 -11.7 C 1.12 g/m*3 -11.7 C 0 km/h
3063 19-12-2009 12:53:02 -11.7 C 1.12 g/m*3 -11.7 C 0 km/h
3064 19-12-2009 13:05:02 -11.6 C 1.11 g/m*3 -11.6 C 0 km/h
3065 19-12-2009 13:17:01 -11.6 C 1.11 g/m*3 -11.6 C 0 km/h
3066 19-12-2009 13:29:01 -11.4 C 1.12 g/m*3 -11.4 C 0 km/h
3067 19-12-2009 13:41:02 -11.3 C 1.11 g/m*3 -11.3 C 0 km/h
3068 19-12-2009 13:53:02 -11.1 C 1.13 g/m*3 -11.1 C 0 km/h
3069 19-12-2009 14:05:02 -11.2 C 1.12 g/m*3 -11.2 C 0 km/h
3070 19-12-2009 14:17:02 -11.2 C 1.12 g/m*3 -11.2 C 0 km/h
3071 19-12-2009 14:29:02 -11.1 C 1.11 g/m*3 -11.1 C 0 km/h
3072 19-12-2009 14:41:02 -11.2 C 1.12 g/m*3 -11.2 C 0 km/h
3073 19-12-2009 14:53:02 -11.2 C 1.12 g/m*3 -11.2 C 0 km/h
3074 19-12-2009 15:05:02 -11.2 C 1.12 g/m*3 -11.2 C 0 km/h
3075 19-12-2009 15:17:02 -11.1 C 1.15 g/m*3 -11.1 C 0 km/h
Sensor: Nr:Datum:Temp:Abs-Feuchte:Windchill:Wind:
Aussen-T/F 3076 19-12-2009 15:29:02 -11 C 1.16 g/m*3 -11 C 0 km/h
3077 19-12-2009 15:41:02 -11.2 C 1.14 g/m*3 -11.2 C 0 km/h
3078 19-12-2009 15:53:02 -11.4 C 1.12 g/m*3 -11.4 C 0 km/h
3079 19-12-2009 16:05:02 -11.7 C 1.12 g/m*3 -11.7 C 0 km/h
3080 19-12-2009 16:17:02 -12 C 1.11 g/m*3 -12 C 0 km/h
3081 19-12-2009 16:29:02 -12.1 C 1.1 g/m*3 -12.1 C 0 km/h
3082 19-12-2009 16:41:02 -12.3 C 1.11 g/m*3 -12.3 C 0 km/h
3083 19-12-2009 16:53:02 -12.4 C 1.1 g/m*3 -12.4 C 0 km/h
3084 19-12-2009 17:05:02 -12.4 C 1.1 g/m*3 -12.4 C 0 km/h
3085 19-12-2009 17:17:03 -12.4 C 1.12 g/m*3 -12.4 C 0 km/h
3086 19-12-2009 17:29:03 -12.5 C 1.09 g/m*3 -12.5 C 0 km/h
3087 19-12-2009 17:41:02 -12.7 C 1.07 g/m*3 -12.7 C 0 km/h
3088 19-12-2009 17:53:02 -13 C 1.05 g/m*3 -13 C 0 km/h
3089 19-12-2009 18:05:04 -13.2 C 1.05 g/m*3 -13.2 C 0 km/h
3090 19-12-2009 18:17:02 -13.3 C 1.06 g/m*3 -13.3 C 0 km/h
3091 19-12-2009 18:29:02 -13.4 C 1.05 g/m*3 -13.4 C 0 km/h
3092 19-12-2009 18:41:04 -13.6 C 1.05 g/m*3 -13.6 C 0 km/h
3093 19-12-2009 18:53:05 -13.8 C 1.04 g/m*3 -13.8 C 0 km/h
3094 19-12-2009 19:05:04 -13.5 C 1.1 g/m*3 -13.5 C 0 km/h
3095 19-12-2009 19:17:03 -13.9 C 1.1 g/m*3 -13.9 C 0 km/h
3096 19-12-2009 19:29:03 -13.9 C 1.1 g/m*3 -13.9 C 0 km/h
3097 19-12-2009 19:41:03 -14.2 C 1.09 g/m*3 -14.2 C 0 km/h
3098 19-12-2009 19:53:02 -14.4 C 1.07 g/m*3 -14.4 C 0 km/h
3099 19-12-2009 20:05:02 -14.6 C 1.07 g/m*3 -14.6 C 0 km/h
3100 19-12-2009 20:17:02 -14.8 C 1.06 g/m*3 -14.8 C 0 km/h
Sensor: Nr:Datum:Temp:Abs-Feuchte:Windchill:Wind:
Aussen-T/F 3101 19-12-2009 20:29:02 -14.8 C 1.07 g/m*3 -14.8 C 0 km/h
3102 19-12-2009 20:41:02 -14.9 C 1.07 g/m*3 -14.9 C 0 km/h
3103 19-12-2009 20:53:02 -15 C 1.06 g/m*3 -15 C 0 km/h
3104 19-12-2009 21:05:03 -15.1 C 1.05 g/m*3 -15.1 C 0 km/h
3105 19-12-2009 21:17:02 -15 C 1.06 g/m*3 -15 C 0 km/h
3106 19-12-2009 21:29:02 -15 C 1.06 g/m*3 -15 C 0 km/h
3107 19-12-2009 21:41:02 -15.1 C 1.05 g/m*3 -15.1 C 0 km/h
3108 19-12-2009 21:53:01 -15.3 C 1.03 g/m*3 -15.3 C 0 km/h
3109 19-12-2009 22:05:01 -15.3 C 1.05 g/m*3 -15.3 C 0 km/h
3110 19-12-2009 22:17:02 -15.4 C 1.02 g/m*3 -15.4 C 0 km/h
3111 19-12-2009 22:29:02 -15.5 C 1.02 g/m*3 -15.5 C 0 km/h
3112 19-12-2009 22:41:01 -15.6 C 1.02 g/m*3 -15.6 C 0 km/h
3113 19-12-2009 22:53:03 -15.7 C 1.02 g/m*3 -15.7 C 0 km/h
3114 19-12-2009 23:05:02 -15.8 C 0.99 g/m*3 -15.8 C 0 km/h
3115 19-12-2009 23:17:02 -15.8 C 0.99 g/m*3 -15.8 C 0 km/h
3116 19-12-2009 23:29:02 -15.8 C 0.99 g/m*3 -15.8 C 0 km/h
3117 19-12-2009 23:41:02 -15.9 C 0.98 g/m*3 -15.9 C 0 km/h
3118 19-12-2009 23:53:02 -15.9 C 0.98 g/m*3 -15.9 C 0 km/h
3119 20-12-2009 00:05:01 -16 C 0.98 g/m*3 -16 C 0 km/h
3120 20-12-2009 00:17:02 -16.1 C 0.97 g/m*3 -16.1 C 0 km/h
3121 20-12-2009 00:29:02 -16.2 C 0.96 g/m*3 -16.2 C 0 km/h
3122 20-12-2009 00:41:01 -16.3 C 0.95 g/m*3 -16.3 C 0 km/h
3123 20-12-2009 00:54:01 -16.2 C 0.98 g/m*3 -16.2 C 0 km/h
3124 20-12-2009 01:06:01 -16.2 C 0.98 g/m*3 -16.2 C 0 km/h
3125 20-12-2009 01:18:01 -16.3 C 0.95 g/m*3 -16.3 C 0 km/h
Sensor: Nr:Datum:Temp:Abs-Feuchte:Windchill:Wind:
Aussen-T/F 3126 20-12-2009 01:30:01 -16.4 C 0.95 g/m*3 -16.4 C 0 km/h
3127 20-12-2009 01:42:01 -16.4 C 0.95 g/m*3 -16.4 C 0 km/h
3128 20-12-2009 01:54:01 -16.4 C 0.95 g/m*3 -16.4 C 0 km/h
3129 20-12-2009 02:06:01 -16 C 0.99 g/m*3 -16 C 0 km/h
3130 20-12-2009 02:18:01 -16.1 C 0.98 g/m*3 -16.1 C 0 km/h
3131 20-12-2009 02:30:01 -16.1 C 0.98 g/m*3 -16.1 C 0 km/h
3132 20-12-2009 02:42:01 -16.1 C 0.98 g/m*3 -16.1 C 0 km/h
3133 20-12-2009 02:54:01 -16 C 0.99 g/m*3 -16 C 0 km/h
3134 20-12-2009 03:06:02 -16 C 0.99 g/m*3 -16 C 0 km/h
3135 20-12-2009 03:18:02 -15.9 C 1 g/m*3 -15.9 C 0 km/h
3136 20-12-2009 03:30:02 -15.8 C 1.01 g/m*3 -15.8 C 0 km/h
3137 20-12-2009 03:42:02 -15.4 C 1.06 g/m*3 -15.4 C 0 km/h
3138 20-12-2009 03:54:02 -14.8 C 1.12 g/m*3 -14.8 C 0 km/h
3139 20-12-2009 04:06:02 -14.5 C 1.13 g/m*3 -14.5 C 0 km/h
3140 20-12-2009 04:18:02 -14.7 C 1.1 g/m*3 -14.7 C 0 km/h
3141 20-12-2009 04:30:02 -14.8 C 1.09 g/m*3 -14.8 C 0 km/h
3142 20-12-2009 04:42:02 -14.5 C 1.12 g/m*3 -14.5 C 0 km/h
3143 20-12-2009 04:54:02 -14.3 C 1.13 g/m*3 -14.3 C 0 km/h
3144 20-12-2009 05:06:02 -14.2 C 1.16 g/m*3 -14.2 C 0 km/h
3145 20-12-2009 05:18:02 -14.1 C 1.17 g/m*3 -14.1 C 0 km/h
3146 20-12-2009 05:30:02 -13.3 C 1.24 g/m*3 -13.3 C 0 km/h
3147 20-12-2009 05:42:02 -12.8 C 1.26 g/m*3 -12.8 C 0 km/h
3148 20-12-2009 05:54:02 -13 C 1.22 g/m*3 -13 C 0 km/h
3149 20-12-2009 06:06:03 -12.8 C 1.22 g/m*3 -12.8 C 0 km/h
3150 20-12-2009 06:18:03 -12.5 C 1.25 g/m*3 -12.5 C 0 km/h
Sensor: Nr:Datum:Temp:Abs-Feuchte:Windchill:Wind:
Aussen-T/F 3151 20-12-2009 06:30:03 -12.3 C 1.25 g/m*3 -12.3 C 0 km/h
3152 20-12-2009 06:42:03 -12 C 1.25 g/m*3 -12 C 0 km/h
3153 20-12-2009 06:54:03 -12.5 C 1.19 g/m*3 -12.5 C 0 km/h
3154 20-12-2009 07:06:03 -12.8 C 1.18 g/m*3 -12.8 C 0 km/h
3155 20-12-2009 07:18:03 -12.9 C 1.19 g/m*3 -12.9 C 0 km/h
3156 20-12-2009 07:30:03 -12.7 C 1.23 g/m*3 -12.7 C 0 km/h
3157 20-12-2009 07:42:03 -12.5 C 1.27 g/m*3 -12.5 C 0 km/h
3158 20-12-2009 07:54:03 -12.1 C 1.33 g/m*3 -12.1 C 0 km/h
3159 20-12-2009 08:06:02 -11.6 C 1.38 g/m*3 -11.6 C 0 km/h
3160 20-12-2009 08:18:02 -11.3 C 1.41 g/m*3 -11.3 C 0 km/h
3161 20-12-2009 08:30:02 -11.2 C 1.42 g/m*3 -11.2 C 0 km/h
3162 20-12-2009 08:42:01 -11 C 1.44 g/m*3 -11 C 0 km/h
3163 20-12-2009 08:54:02 -10.8 C 1.46 g/m*3 -10.8 C 0 km/h
3164 20-12-2009 09:06:02 -10.6 C 1.51 g/m*3 -10.6 C 0 km/h
3165 20-12-2009 09:18:02 -10 C 1.55 g/m*3 -10 C 0 km/h
3166 20-12-2009 09:30:02 -9.6 C 1.6 g/m*3 -9.6 C 0 km/h
3167 20-12-2009 09:42:02 -9.1 C 1.59 g/m*3 -9.1 C 0 km/h
3168 20-12-2009 09:54:01 -8.8 C 1.6 g/m*3 -8.8 C 0 km/h
3169 20-12-2009 10:06:01 -8.5 C 1.61 g/m*3 -8.5 C 0 km/h
3170 20-12-2009 10:18:01 -8.2 C 1.62 g/m*3 -8.2 C 0 km/h
3171 20-12-2009 10:30:01 -8 C 1.64 g/m*3 -8 C 0 km/h
3172 20-12-2009 10:42:01 -7.8 C 1.67 g/m*3 -7.8 C 0 km/h
3173 20-12-2009 10:54:01 -7.4 C 1.69 g/m*3 -7.4 C 0 km/h
3174 20-12-2009 11:06:02 -7.2 C 1.68 g/m*3 -7.2 C 0 km/h
3175 20-12-2009 11:18:01 -7.1 C 1.7 g/m*3 -7.1 C 0 km/h
Sensor: Nr:Datum:Temp:Abs-Feuchte:Windchill:Wind:
Aussen-T/F 3176 20-12-2009 11:30:01 -7 C 1.71 g/m*3 -7 C 0 km/h
3177 20-12-2009 11:42:01 -6.7 C 1.81 g/m*3 -6.7 C 0 km/h
3178 20-12-2009 11:54:02 -6.5 C 1.83 g/m*3 -6.5 C 0 km/h
3179 20-12-2009 12:06:02 -6.2 C 1.87 g/m*3 -6.2 C 0 km/h
3180 20-12-2009 12:18:02 -6.1 C 1.92 g/m*3 -6.1 C 0 km/h
3181 20-12-2009 12:30:02 -5.9 C 2.01 g/m*3 -5.9 C 0 km/h
3182 20-12-2009 12:42:02 -6 C 2.06 g/m*3 -6 C 0 km/h
3183 20-12-2009 12:54:02 -5.9 C 2.14 g/m*3 -5.9 C 0 km/h
3184 20-12-2009 13:06:02 -5.8 C 2.25 g/m*3 -5.8 C 0 km/h
3185 20-12-2009 13:18:03 -5.7 C 2.33 g/m*3 -5.7 C 0 km/h
3186 20-12-2009 13:30:03 -5.7 C 2.36 g/m*3 -5.7 C 0 km/h
3187 20-12-2009 13:42:02 -5.6 C 2.41 g/m*3 -5.6 C 0 km/h
3188 20-12-2009 13:54:02 -5.5 C 2.46 g/m*3 -5.5 C 0 km/h
3189 20-12-2009 14:06:02 -5.4 C 2.51 g/m*3 -5.4 C 0 km/h
3190 20-12-2009 14:18:01 -5.3 C 2.57 g/m*3 -5.3 C 0 km/h
3191 20-12-2009 14:30:01 -5.3 C 2.57 g/m*3 -5.3 C 0 km/h
3192 20-12-2009 14:42:01 -5.2 C 2.62 g/m*3 -5.2 C 0 km/h
3193 20-12-2009 14:54:01 -5 C 2.66 g/m*3 -5 C 0 km/h
3194 20-12-2009 15:06:01 -5 C 2.66 g/m*3 -5 C 0 km/h
3195 20-12-2009 15:18:02 -4.9 C 2.68 g/m*3 -4.9 C 0 km/h
3196 20-12-2009 15:30:02 -4.7 C 2.71 g/m*3 -4.7 C 0 km/h
3197 20-12-2009 15:42:01 -4.4 C 2.74 g/m*3 -4.4 C 0 km/h
3198 20-12-2009 15:54:02 -4.3 C 2.76 g/m*3 -4.3 C 0 km/h
3199 20-12-2009 16:06:02 -4.3 C 2.72 g/m*3 -4.3 C 0 km/h
3200 20-12-2009 16:18:03 -4 C 2.82 g/m*3 -4 C 0 km/h
Sensor: Nr:Datum:Temp:Abs-Feuchte:Windchill:Wind:
Aussen-T/F 3201 20-12-2009 16:30:03 -3.8 C 2.86 g/m*3 -3.8 C 0 km/h
3202 20-12-2009 16:42:02 -3.7 C 2.84 g/m*3 -3.7 C 0 km/h
3203 20-12-2009 16:54:03 -3.7 C 2.8 g/m*3 -3.7 C 0 km/h
3204 20-12-2009 17:06:02 -3.5 C 2.84 g/m*3 -3.5 C 0 km/h
3205 20-12-2009 17:18:02 -3.2 C 2.9 g/m*3 -3.2 C 0 km/h
3206 20-12-2009 17:30:02 -3 C 2.95 g/m*3 -3 C 0 km/h
3207 20-12-2009 17:42:02 -2.8 C 2.95 g/m*3 -2.8 C 0 km/h
3208 20-12-2009 17:54:02 -2.8 C 2.95 g/m*3 -2.8 C 0 km/h
3209 20-12-2009 18:06:02 -2.7 C 2.97 g/m*3 -2.7 C 0 km/h
3210 20-12-2009 18:18:02 -2.7 C 2.97 g/m*3 -2.7 C 0 km/h
3211 20-12-2009 18:30:02 -2.7 C 3.01 g/m*3 -2.7 C 0 km/h
3212 20-12-2009 18:42:02 -2.5 C 3.05 g/m*3 -2.5 C 0 km/h
3213 20-12-2009 18:54:02 -2.3 C 3.1 g/m*3 -2.3 C 0 km/h
3214 20-12-2009 19:06:02 -2 C 3.12 g/m*3 -2 C 0 km/h
3215 20-12-2009 19:18:01 -1.8 C 3.12 g/m*3 -1.8 C 0 km/h
3216 20-12-2009 19:30:01 -1.9 C 3.1 g/m*3 -1.9 C 0 km/h
3217 20-12-2009 19:42:02 -2 C 3.08 g/m*3 -2 C 0 km/h
3218 20-12-2009 19:54:02 -1.9 C 3.14 g/m*3 -1.9 C 0 km/h
3219 20-12-2009 20:06:02 -1.7 C 3.14 g/m*3 -1.7 C 0 km/h
3220 20-12-2009 20:18:01 -1.6 C 3.16 g/m*3 -1.6 C 0 km/h
3221 20-12-2009 20:30:01 -1.7 C 3.14 g/m*3 -1.7 C 0 km/h
3222 20-12-2009 20:42:02 -1.6 C 3.16 g/m*3 -1.6 C 0 km/h
3223 20-12-2009 20:54:02 -1.5 C 3.19 g/m*3 -1.5 C 0 km/h
3224 20-12-2009 21:06:02 -1.5 C 3.14 g/m*3 -1.5 C 0 km/h
3225 20-12-2009 21:18:01 -1.3 C 3.14 g/m*3 -1.3 C 0 km/h
Sensor: Nr:Datum:Temp:Abs-Feuchte:Windchill:Wind:
Aussen-T/F 3226 20-12-2009 21:30:01 -1.1 C 3.14 g/m*3 -1.1 C 0 km/h
3227 20-12-2009 21:42:02 -1.1 C 3.05 g/m*3 -1.1 C 0 km/h
3228 20-12-2009 21:54:02 -1.2 C 2.99 g/m*3 -1.2 C 0 km/h
3229 20-12-2009 22:06:02 -1.3 C 2.92 g/m*3 -1.3 C 0 km/h
3230 20-12-2009 22:18:02 -1.8 C 2.78 g/m*3 -1.8 C 0 km/h
3231 20-12-2009 22:30:02 -2 C 2.78 g/m*3 -2 C 0 km/h
3232 20-12-2009 22:42:02 -2.1 C 2.76 g/m*3 -2.1 C 0 km/h
3233 20-12-2009 22:54:02 -2 C 2.87 g/m*3 -2 C 0 km/h
3234 20-12-2009 23:06:01 -2 C 2.87 g/m*3 -2 C 0 km/h
3235 20-12-2009 23:18:01 -2.1 C 2.85 g/m*3 -2.1 C 0 km/h
3236 20-12-2009 23:30:01 -2.3 C 2.85 g/m*3 -2.3 C 0 km/h
3237 20-12-2009 23:42:02 -2.6 C 2.83 g/m*3 -2.6 C 0 km/h
3238 20-12-2009 23:54:02 -2.6 C 2.87 g/m*3 -2.6 C 0 km/h
3239 21-12-2009 00:06:02 -2.7 C 2.85 g/m*3 -2.7 C 0 km/h
3240 21-12-2009 00:18:02 -3.1 C 2.81 g/m*3 -3.1 C 0 km/h
3241 21-12-2009 00:30:02 -3.2 C 2.79 g/m*3 -3.2 C 0 km/h
3242 21-12-2009 00:42:02 -3.2 C 2.79 g/m*3 -3.2 C 0 km/h
3243 21-12-2009 00:54:01 -3.3 C 2.77 g/m*3 -3.3 C 0 km/h
3244 21-12-2009 01:06:02 -3.3 C